GFSMA_sfc_thetae_000.txt.gz
Theta_e
344 345 350 351 350 350 348 348 348 346 345 346 347 347 346 347 349 349 348 352 359 359 359 358 358 358 356 354 353 356 355 353 353 353 353 352 353 352 353 351 350 351 351
347 347 348 348 348 349 347 348 346 344 342 342 343 344 344 345 347 347 348 350 354 360 361 360 359 358 359 356 355 356 355 355 356 355 356 357 355 355 355 353 351 350 353
348 348 346 346 347 345 346 345 343 341 340 340 340 341 341 343 344 345 347 350 351 354 357 362 362 360 359 360 357 358 359 357 358 357 357 356 356 356 357 356 355 355 356
351 347 345 344 345 345 344 343 340 339 339 338 338 339 340 341 343 343 346 347 350 351 355 357 361 360 359 358 359 359 359 358 357 358 358 357 357 357 356 356 356 356 356
351 349 345 345 346 345 343 341 339 338 338 337 338 340 340 341 342 343 344 345 346 348 349 352 357 358 359 358 359 360 358 359 359 359 358 359 358 358 357 357 358 358 357
350 349 346 345 346 343 341 340 339 339 338 337 337 338 338 338 340 341 341 344 345 346 348 351 357 355 356 358 357 358 359 358 357 359 358 359 359 358 357 356 356 356 357
350 348 347 345 344 342 342 341 339 338 337 337 336 335 334 334 336 335 339 341 337 340 346 351 354 355 354 355 356 357 358 358 359 358 358 357 358 359 358 356 356 356 356
349 347 345 344 344 342 340 338 338 336 337 339 333 328 325 329 332 334 336 337 334 335 337 342 346 347 349 352 353 355 356 357 359 359 358 357 358 357 357 357 356 356 356
348 347 346 344 341 339 338 337 336 335 334 336 336 332 323 321 327 331 333 333 333 334 336 338 340 341 345 347 347 348 349 352 354 357 358 357 356 357 357 357 356 355 355
345 343 342 340 338 337 336 336 339 337 336 332 334 336 333 332 324 322 328 328 329 329 333 336 336 339 341 343 341 344 346 347 349 351 353 356 355 356 357 357 357 356 355
337 339 338 337 338 336 335 336 337 336 336 334 332 332 330 328 328 323 319 322 325 330 331 333 334 336 338 336 337 336 338 342 345 349 351 351 353 356 358 359 359 358 357
332 335 337 339 337 334 335 335 336 335 335 335 334 332 329 325 325 324 322 321 321 324 329 331 332 333 333 334 330 334 335 337 337 339 342 347 351 352 354 359 359 360 360
331 333 336 334 333 332 333 334 335 334 334 334 334 332 331 330 329 327 324 322 321 322 325 325 330 331 330 331 330 332 333 332 334 334 336 339 344 348 351 355 357 359 360
331 333 332 333 329 330 333 335 333 333 333 334 333 331 331 331 329 328 325 321 314 315 317 321 323 329 329 326 328 330 329 330 331 331 331 333 336 341 345 347 351 353 354
330 331 331 331 330 330 334 334 332 333 334 334 334 333 331 331 329 328 326 324 318 312 312 317 319 324 324 325 326 328 329 329 330 330 329 330 332 336 340 343 343 345 348
330 330 331 330 330 331 333 333 332 332 332 332 332 332 332 332 329 327 324 324 321 318 314 317 320 321 324 324 326 328 327 328 328 328 328 329 330 332 336 339 340 341 342
329 330 330 330 330 330 332 331 331 332 332 332 332 332 332 332 329 326 325 324 321 319 315 321 320 324 324 325 326 326 326 326 326 327 327 327 327 328 330 334 337 337 338
329 330 330 331 332 332 332 331 331 333 332 331 332 331 331 330 329 328 324 324 323 322 319 318 323 322 323 326 326 324 324 324 325 325 326 326 326 327 328 329 331 332 332
328 329 331 330 330 330 328 329 331 331 331 331 331 330 330 328 327 326 325 324 324 324 321 319 319 323 323 325 323 324 324 324 324 325 325 325 325 326 326 326 327 327 324
329 329 329 329 329 328 328 329 330 330 330 330 331 331 329 327 327 327 326 325 325 323 322 320 319 321 322 324 321 319 318 321 320 322 324 323 324 326 326 325 326 327 322
330 330 329 329 329 328 328 330 331 330 330 331 332 330 329 328 328 328 327 327 323 322 321 320 318 319 319 320 319 320 317 318 320 321 320 321 323 325 327 328 331 332 327
329 330 328 329 329 329 326 327 332 331 332 330 329 328 325 325 325 325 326 328 327 324 322 320 319 318 320 321 320 317 316 315 312 321 319 318 322 320 325 326 327 331 329
329 328 329 329 329 331 323 324 328 332 329 326 326 325 323 325 326 323 322 323 325 325 325 326 319 320 319 321 320 317 316 313 314 316 316 313 318 317 324 326 324 325 327
328 328 329 329 329 330 322 321 325 331 329 326 324 323 322 322 321 322 322 322 321 320 320 319 320 320 321 321 321 320 316 316 316 317 317 311 317 316 322 325 324 326 326
329 329 330 330 328 329 320 320 323 328 327 325 323 321 319 321 318 316 319 318 316 317 317 316 317 316 316 316 317 317 313 312 310 312 316 313 314 315 319 321 325 326 324
330 331 330 328 324 327 320 319 320 326 324 320 319 320 316 315 312 311 316 314 313 314 313 314 314 315 316 317 317 319 318 311 310 309 315 312 314 315 314 321 324 330 339

GFSMA_sfc_thetae_003.txt.gz
Theta_e
359 359 359 361 362 361 359 358 356 354 353 350 351 350 349 350 351 351 353 355 355 357 359 359 359 358 356 354 356 357 355 355 353 356 354 355 354 353 352 351 351 351 350
360 364 359 361 359 360 358 358 355 352 350 350 348 349 348 348 350 351 350 354 352 355 358 360 360 359 358 358 355 354 358 358 358 356 357 357 356 355 354 353 352 350 353
363 363 363 361 359 359 357 356 354 353 349 348 347 347 348 348 347 350 350 351 354 354 356 358 362 362 358 358 358 359 359 358 359 358 357 357 357 357 356 356 356 354 354
364 364 364 363 358 357 355 354 352 349 350 348 346 347 346 346 349 350 350 351 350 351 355 356 357 361 362 356 357 358 358 358 359 359 358 358 358 358 357 357 357 356 356
362 364 364 362 358 355 357 354 352 350 347 346 345 345 344 345 348 346 349 351 352 352 350 358 357 356 357 357 360 358 359 358 356 358 359 359 357 358 357 357 356 356 356
360 360 359 358 356 356 355 353 351 352 348 347 343 342 344 346 344 345 345 344 342 349 352 355 357 356 356 356 356 358 359 358 358 358 358 357 359 358 358 357 356 356 358
361 361 361 357 356 352 353 352 351 348 346 349 342 338 343 344 340 342 341 336 334 338 343 348 352 354 356 356 356 356 357 359 359 358 358 358 358 358 358 357 356 356 356
361 360 358 354 354 350 351 350 349 345 346 349 340 339 330 335 341 338 335 329 333 333 335 341 344 348 350 352 352 350 351 352 354 357 358 357 356 356 356 356 356 356 356
360 359 357 354 353 350 344 348 347 345 340 346 345 338 329 326 330 338 337 331 332 331 333 337 341 343 342 340 342 344 345 349 352 353 354 357 356 355 355 356 355 355 356
358 357 356 352 352 348 349 348 347 348 347 340 343 344 342 338 327 325 333 332 330 328 332 331 334 337 336 333 335 338 340 342 343 345 350 353 353 355 356 356 355 355 355
357 353 352 350 350 347 349 346 348 347 345 341 339 340 339 338 338 329 321 324 330 332 330 330 332 333 333 332 332 336 337 338 337 338 339 342 346 351 353 355 356 356 356
350 350 348 350 351 349 346 344 346 345 344 343 342 340 334 329 329 327 324 326 325 328 330 331 330 331 331 330 329 332 334 334 334 333 334 336 338 341 347 352 354 356 358
346 345 347 348 348 349 345 345 345 344 343 341 343 338 338 334 335 333 329 326 325 327 329 331 330 332 332 332 331 332 335 334 334 333 333 333 333 335 337 343 348 353 355
347 346 346 347 348 345 343 344 340 340 343 341 343 343 338 337 337 336 332 329 324 325 326 328 330 330 331 332 333 333 332 333 332 331 331 332 332 333 334 336 340 346 349
345 345 345 346 345 340 342 344 337 339 342 342 342 343 340 338 338 338 337 334 328 321 323 326 325 332 332 333 334 335 334 332 332 331 330 329 330 332 333 334 336 340 343
345 344 344 343 342 340 340 343 339 340 341 338 338 342 342 339 339 342 339 335 332 327 322 326 327 331 334 333 334 334 334 332 331 329 329 328 329 330 331 332 333 334 338
345 344 344 342 341 341 342 342 342 340 339 340 342 341 342 343 338 337 338 337 332 330 325 326 329 333 334 334 334 336 335 334 331 329 329 328 327 328 328 329 330 331 333
344 344 343 342 342 341 342 342 340 336 338 338 339 340 339 338 340 340 336 337 333 334 329 326 331 329 332 334 334 334 332 331 331 329 327 326 325 325 326 326 326 327 327
338 340 341 341 341 342 342 343 341 339 339 339 339 339 339 339 338 335 336 333 332 335 332 327 325 328 329 331 331 333 332 332 331 329 326 326 325 325 324 323 322 323 322
337 337 339 342 341 342 342 340 338 339 340 339 340 340 340 339 338 337 334 335 334 332 331 328 326 325 326 331 329 326 325 327 326 327 327 326 326 326 325 323 323 323 320
334 334 336 340 341 339 337 338 339 339 341 340 340 342 341 340 334 332 331 334 334 330 327 325 324 324 323 323 324 325 324 324 326 326 324 325 325 325 326 325 327 328 325
333 336 336 336 337 336 329 328 335 339 341 341 340 340 341 334 332 328 327 328 330 330 329 326 323 323 327 326 326 325 323 320 317 326 325 323 324 322 325 327 325 325 324
332 334 337 335 339 338 326 325 330 338 339 340 339 338 337 333 330 332 327 325 325 325 327 330 326 326 326 327 328 324 322 320 319 323 323 321 322 322 324 325 323 322 322
333 338 338 339 338 339 323 322 326 337 335 337 338 338 336 335 333 328 328 327 328 330 331 328 328 327 327 327 324 322 322 320 322 323 325 317 320 319 321 324 322 322 322
337 337 336 338 338 338 321 320 327 334 333 331 336 336 332 330 322 317 322 324 326 326 322 318 317 316 315 315 317 319 316 317 316 318 321 313 314 314 316 318 324 323 321
335 336 337 339 331 337 318 318 326 328 329 328 334 330 318 322 313 313 322 324 322 323 322 321 321 320 320 321 318 321 317 313 315 313 316 312 313 314 311 318 323 328 329

GFSMA_sfc_thetae_006.txt.gz
Theta_e
364 360 362 361 359 362 361 358 358 357 356 353 352 349 346 346 348 348 349 357 353 354 358 359 358 359 357 356 357 356 356 354 353 352 352 353 353 354 352 351 351 352 352
366 357 358 357 357 359 360 358 358 356 354 352 348 348 346 344 347 349 347 352 354 352 355 359 360 359 358 358 355 356 358 358 358 356 356 358 357 357 353 352 352 352 353
364 361 358 356 356 364 361 359 360 356 352 350 347 344 346 346 346 348 348 347 352 356 355 356 360 362 361 358 358 358 358 359 360 359 359 359 358 357 357 356 355 355 355
364 362 358 355 358 357 357 356 355 351 348 345 343 343 344 345 346 347 348 349 347 345 356 357 355 359 361 357 357 357 358 358 359 359 359 359 358 358 358 358 358 358 357
362 361 358 357 360 355 359 357 351 350 344 341 340 340 344 344 346 343 348 353 351 350 346 357 354 354 355 357 360 360 360 359 357 357 358 359 359 357 357 357 357 357 358
362 362 358 358 358 358 353 353 352 348 346 342 338 337 344 347 347 346 346 344 344 349 350 355 354 353 354 352 355 360 361 358 359 357 356 358 358 359 357 357 357 357 357
363 363 357 359 359 356 354 352 347 345 338 347 337 339 341 344 344 346 343 336 337 340 345 351 352 353 355 354 354 354 355 357 359 359 358 357 356 357 357 357 357 357 357
364 361 361 358 359 350 353 347 347 340 341 345 337 335 329 335 338 339 338 332 334 334 337 342 347 352 352 352 350 349 348 350 352 354 357 357 357 356 355 355 355 356 357
364 364 362 358 356 347 340 347 346 343 336 345 344 335 328 327 329 336 337 334 334 332 334 336 340 341 342 341 344 344 341 343 345 349 352 353 355 356 356 355 355 354 355
363 363 360 356 350 344 348 346 346 344 343 337 341 341 342 339 327 326 332 333 337 334 334 332 334 337 338 335 338 337 338 337 337 339 340 343 346 350 354 355 355 355 354
363 357 360 352 348 345 349 349 347 346 343 338 336 338 341 336 339 328 322 329 334 335 336 336 333 334 336 338 335 334 334 334 334 334 334 335 338 340 345 350 354 354 355
355 359 358 353 349 347 348 346 346 345 343 342 339 340 333 330 330 328 324 327 327 331 335 334 334 332 334 335 331 330 331 334 332 331 332 333 334 335 338 340 345 350 354
348 354 358 353 347 350 348 347 345 343 343 341 343 337 337 335 334 331 328 326 325 330 332 335 336 334 333 333 334 331 338 336 334 333 333 332 332 332 334 335 338 341 347
346 352 357 352 349 348 348 345 340 340 342 340 342 342 336 336 334 333 330 329 326 327 330 335 335 334 333 334 336 334 336 334 333 331 331 332 331 331 332 333 334 335 336
347 353 354 350 346 347 345 344 338 340 340 341 339 341 339 334 334 334 334 334 330 322 322 328 328 335 334 334 337 337 337 336 333 331 330 330 330 331 331 332 333 333 334
356 352 351 346 346 345 343 344 340 341 340 335 333 338 340 336 336 336 336 334 333 329 323 328 328 333 336 336 338 338 337 337 334 332 331 329 330 331 331 331 331 332 332
355 352 350 346 344 343 343 343 343 339 338 338 338 339 341 344 337 334 334 333 331 330 326 327 329 334 337 337 337 339 338 337 335 333 331 330 328 328 329 329 329 329 330
353 351 348 345 346 343 343 343 340 338 337 336 337 340 340 338 341 342 336 338 335 335 329 330 333 331 337 337 336 338 335 334 334 333 330 328 327 326 325 325 325 325 325
347 344 343 344 345 343 343 344 343 341 339 338 339 339 339 340 340 336 337 333 331 331 332 328 328 331 330 331 333 337 337 338 332 333 329 328 326 326 325 323 322 321 319
344 340 341 342 341 344 344 343 342 342 339 337 339 340 340 340 339 339 336 337 337 333 333 328 327 327 329 332 331 326 326 328 327 329 331 328 328 328 327 324 322 322 318
343 335 339 337 341 343 338 342 341 339 339 339 340 340 342 341 337 336 334 338 337 331 327 326 324 324 322 323 328 327 324 326 329 330 327 326 325 327 329 326 328 328 323
341 339 336 336 337 338 330 330 337 339 340 340 340 342 344 340 337 332 330 329 330 331 329 325 324 324 329 329 328 326 325 323 320 329 327 322 327 327 327 328 326 324 322
341 340 340 338 338 341 327 327 331 338 339 340 343 342 340 335 336 339 331 327 327 325 325 330 329 328 330 331 330 328 326 324 322 323 326 322 327 324 327 326 323 323 321
340 342 342 341 340 341 327 325 330 340 342 343 342 340 339 335 336 336 336 333 332 333 334 331 332 330 330 330 327 325 324 324 324 325 329 321 324 321 325 326 323 321 319
341 343 344 343 342 342 321 321 329 340 340 341 337 337 336 336 327 321 329 329 330 330 326 321 319 317 316 316 318 321 320 318 318 320 325 322 321 321 322 321 323 321 319
343 341 342 343 336 344 319 318 326 337 338 335 332 334 323 327 316 315 326 327 326 327 328 326 326 324 321 324 319 324 320 316 317 317 323 320 319 317 311 317 320 322 321

GFSMA_sfc_thetae_009.txt.gz
Theta_e
364 361 363 357 360 361 357 357 359 356 355 355 352 349 346 343 342 342 347 360 357 355 359 360 359 359 359 357 358 358 357 354 352 352 353 352 353 353 354 353 351 351 352
364 358 365 358 358 358 363 359 360 355 356 354 350 347 344 344 345 346 344 354 359 357 357 360 360 359 358 358 357 358 358 358 355 354 354 356 357 355 354 352 352 351 353
363 364 360 358 355 363 361 361 359 361 352 346 344 343 343 344 344 346 345 343 354 359 358 358 363 363 362 359 358 358 360 359 359 360 359 359 358 359 358 357 355 355 355
366 365 357 356 360 359 361 359 356 347 344 342 341 341 341 343 345 345 346 345 344 345 359 361 357 359 359 357 358 359 359 358 360 360 360 360 360 359 358 358 357 357 357
367 362 358 359 362 360 356 355 353 352 342 341 339 338 342 343 343 342 343 346 348 347 345 359 360 357 356 358 359 358 358 359 357 358 358 360 359 359 358 358 358 358 358
365 363 359 361 361 356 354 354 353 347 344 342 337 334 342 344 343 342 343 341 342 345 348 351 354 353 357 355 353 358 360 360 359 358 358 358 358 359 358 357 357 357 358
366 363 359 360 359 358 357 351 346 346 339 344 337 338 339 342 342 342 338 336 338 338 343 347 349 351 356 355 354 355 355 355 355 356 358 357 357 357 358 357 357 357 358
365 363 364 358 359 351 352 348 347 340 339 342 336 334 330 336 344 337 336 334 335 335 338 342 347 350 352 351 351 345 345 348 352 353 353 353 356 356 356 356 356 356 357
363 365 362 362 358 351 337 348 346 343 336 342 345 335 328 327 333 338 338 334 335 333 335 338 340 341 342 342 347 341 339 339 341 343 346 348 351 353 355 356 355 355 355
362 363 363 357 355 345 353 347 344 345 344 338 338 338 340 338 328 326 335 335 335 333 336 334 334 338 338 335 340 337 336 335 335 336 337 337 339 343 346 351 354 354 355
360 357 357 355 351 342 350 350 346 347 345 338 336 335 342 334 337 327 324 328 333 334 335 334 334 333 335 336 334 335 334 334 333 333 334 335 336 337 339 341 345 350 355
355 358 355 356 352 348 349 347 348 347 345 344 340 340 334 330 330 329 325 329 327 331 334 336 335 336 333 334 333 335 332 333 334 332 332 332 334 335 336 337 339 341 344
349 361 360 357 350 351 350 349 349 347 344 341 344 338 342 336 334 331 328 326 326 330 334 336 341 339 335 335 335 334 338 338 337 334 334 332 332 333 333 333 334 336 338
350 364 357 355 352 349 349 349 342 340 346 341 342 346 337 338 337 333 330 331 328 327 332 342 339 339 336 335 339 336 336 341 337 333 331 332 333 332 332 332 332 333 334
350 353 355 354 352 347 349 348 340 345 343 343 344 346 340 336 334 333 334 340 333 323 325 332 330 341 339 336 338 337 338 339 336 332 332 331 332 333 332 333 333 333 333
362 358 357 354 350 350 350 350 345 346 344 339 336 345 345 336 337 335 337 334 332 327 322 329 330 338 341 336 339 338 337 339 336 334 333 331 331 332 332 333 332 332 332
365 360 359 356 350 348 348 350 347 344 344 345 345 341 343 347 337 334 333 333 330 331 325 329 331 337 346 343 340 342 339 341 337 334 334 332 330 330 330 330 330 330 330
366 361 358 354 350 345 341 348 344 343 339 339 340 343 341 338 347 348 336 345 340 339 330 333 334 332 339 343 345 344 338 334 336 333 333 331 329 328 327 327 326 326 325
365 358 358 355 348 348 348 349 348 342 342 342 342 343 342 345 346 339 343 337 335 337 336 328 328 330 330 329 334 341 338 336 335 333 329 328 328 327 326 324 322 321 320
366 359 356 352 350 348 348 347 347 346 346 345 344 344 344 343 344 345 342 345 341 336 334 330 328 328 330 333 335 328 328 328 328 331 332 329 330 330 327 324 323 322 318
364 358 355 350 348 344 342 347 344 343 344 343 343 342 344 343 339 339 339 338 341 334 330 328 327 327 327 327 327 329 329 329 327 331 329 331 331 331 330 328 329 328 323
360 356 349 344 341 338 331 333 341 339 346 344 341 345 346 341 338 333 333 332 331 334 333 327 327 326 330 330 328 327 328 324 319 330 329 327 328 326 328 331 329 326 323
357 352 347 339 339 344 328 328 332 340 342 344 346 344 341 339 337 338 333 329 328 327 327 333 331 330 330 332 332 331 329 325 322 324 326 322 326 326 331 328 325 323 321
353 349 344 343 344 345 328 325 331 341 342 342 346 347 347 344 341 339 338 333 334 338 337 332 333 334 335 333 329 327 327 326 325 326 329 320 326 326 329 331 325 323 321
350 345 342 341 344 346 323 322 330 341 339 344 346 346 344 342 333 324 333 329 329 331 330 326 324 320 318 318 320 322 319 317 316 318 324 322 323 323 326 325 327 323 319
349 345 342 344 339 346 321 319 328 336 337 339 342 346 327 332 318 318 330 328 329 331 330 330 330 325 322 325 319 324 323 319 317 317 323 320 319 319 317 323 324 322 320

GFSMA_sfc_thetae_012.txt.gz
Theta_e
360 352 364 365 360 354 360 363 358 360 360 356 353 351 344 345 345 343 355 360 360 359 361 361 360 359 360 358 358 358 357 354 353 354 355 356 357 356 355 355 355 354 353
368 365 367 361 357 359 365 360 360 360 360 356 354 349 345 345 347 347 346 357 362 360 363 361 362 361 359 358 359 359 358 359 357 355 355 356 355 357 357 357 356 354 354
370 370 364 365 362 359 362 360 356 361 349 352 350 346 346 345 347 346 346 347 356 362 362 363 361 361 361 358 359 360 361 359 359 358 357 357 358 357 358 357 356 354 354
369 372 364 353 361 356 361 356 356 356 345 346 345 346 343 346 346 346 346 343 350 352 360 362 361 360 359 359 359 360 359 359 361 360 359 359 359 359 359 358 358 357 356
370 363 362 357 364 364 359 358 354 354 349 345 340 343 344 345 344 341 345 344 345 350 352 357 359 360 359 357 358 361 359 358 357 358 359 359 359 358 358 357 357 358 357
366 364 363 366 366 363 351 358 349 348 347 344 340 338 344 345 344 346 340 341 342 345 351 350 354 354 357 354 354 356 358 360 358 358 357 357 357 358 358 358 357 357 357
369 370 365 363 359 360 346 351 352 347 346 347 342 339 342 344 344 344 337 337 338 340 344 345 348 352 353 355 353 353 354 354 354 358 357 357 357 356 356 356 357 357 357
369 363 363 363 359 358 355 351 349 345 344 348 339 338 330 335 338 335 337 334 335 337 340 343 346 346 351 350 346 345 345 348 351 352 353 355 355 356 356 355 355 356 356
365 358 364 364 362 356 351 352 350 348 340 346 345 339 331 327 334 339 338 335 335 335 337 341 340 340 339 346 343 337 337 339 340 342 344 346 348 350 352 352 355 355 355
366 367 366 363 360 355 355 352 350 346 348 339 343 342 341 338 330 328 337 336 337 335 336 335 338 339 336 340 340 338 337 337 335 335 335 337 338 339 342 347 350 353 354
365 362 365 362 357 351 357 351 349 347 348 344 340 342 342 340 338 328 325 331 335 336 337 337 333 335 338 335 336 337 338 336 334 331 331 332 334 335 336 338 340 343 347
361 365 360 359 357 351 354 352 352 351 347 348 344 344 340 336 331 333 330 329 328 333 336 335 337 338 335 338 338 340 339 336 336 335 334 331 332 333 334 335 336 337 338
355 360 360 357 354 354 356 353 352 351 348 345 347 342 339 338 339 337 331 329 328 333 334 337 338 339 337 336 335 340 340 338 337 335 334 334 332 333 333 333 333 334 335
354 357 356 355 356 352 352 352 349 344 347 345 343 345 342 341 340 335 334 331 326 328 330 334 337 337 340 338 340 340 335 339 339 335 333 333 333 334 333 333 332 332 332
362 355 355 357 353 352 352 353 344 344 348 348 346 344 342 339 339 339 339 336 331 323 325 330 331 338 336 333 338 336 338 340 341 336 332 332 333 333 334 334 334 334 334
360 358 356 355 353 350 347 349 343 348 344 344 343 343 342 341 341 340 336 335 335 329 324 331 332 335 337 338 341 336 337 339 337 334 332 331 332 333 333 333 333 333 333
359 358 356 354 352 349 349 348 345 342 343 342 342 343 341 344 340 338 341 338 334 332 327 328 332 334 334 334 336 338 341 338 336 336 334 333 332 332 332 332 331 331 331
362 358 357 354 352 346 348 344 341 340 343 341 341 341 340 339 342 342 341 338 337 338 332 328 332 332 335 339 339 335 338 335 334 335 334 332 330 329 329 328 327 327 327
361 356 357 354 351 345 346 344 342 342 342 339 340 340 338 341 342 341 340 338 336 336 336 330 328 331 332 331 330 332 332 335 337 336 331 329 329 328 327 325 324 322 320
361 360 356 354 352 346 345 343 344 344 343 340 343 342 341 338 341 341 339 340 339 337 334 328 328 329 331 332 333 328 327 331 330 331 333 330 330 330 328 325 323 323 319
364 362 359 354 353 347 343 345 345 344 343 340 345 342 343 344 341 340 341 338 339 335 330 325 322 324 325 325 325 326 325 326 327 329 328 326 326 327 326 328 330 329 324
366 363 359 353 351 346 333 335 343 343 344 340 341 343 343 340 337 334 331 332 336 334 328 325 323 322 324 327 328 326 324 321 319 327 326 322 324 323 323 323 326 325 323
365 361 359 353 348 346 329 329 335 342 338 339 344 342 341 338 340 341 332 330 330 329 329 327 324 325 326 328 327 325 324 323 320 322 321 317 321 320 324 326 326 325 323
362 359 355 347 344 342 329 327 330 337 337 340 342 343 341 338 341 340 339 337 334 332 332 330 328 328 330 331 329 326 322 321 321 322 322 316 321 318 322 325 325 324 320
355 352 348 341 340 343 327 323 326 336 335 338 342 340 340 341 333 325 336 333 331 333 331 325 328 325 321 319 321 322 318 316 315 317 322 318 318 319 320 318 320 322 320
351 350 343 341 336 342 326 321 324 337 335 338 342 340 328 335 323 320 332 331 328 329 332 331 330 326 321 323 320 321 320 316 316 316 320 317 315 313 308 315 320 322 322

GFSMA_sfc_thetae_015.txt.gz
Theta_e
347 347 347 349 347 343 349 351 349 351 348 347 347 344 334 335 337 349 350 362 360 362 363 361 360 360 359 358 358 357 356 354 353 355 355 354 354 355 355 353 354 354 354
352 350 351 350 352 352 354 352 349 348 351 347 348 347 335 340 338 339 350 352 359 359 361 362 361 360 360 358 359 359 358 357 355 353 356 358 356 356 356 354 354 353 354
353 352 350 351 349 353 353 346 350 347 343 346 342 339 337 337 337 336 338 349 353 358 363 361 361 360 361 359 358 359 361 360 359 357 356 356 357 356 358 357 357 356 355
354 354 352 346 350 347 350 348 350 344 342 340 332 334 329 336 338 337 340 345 350 350 357 359 359 359 359 357 359 359 359 361 360 360 359 358 358 358 359 358 357 356 356
358 352 353 350 350 350 346 345 342 343 336 332 332 331 333 334 339 340 339 338 341 347 350 356 357 358 356 355 356 357 359 360 359 359 359 359 359 358 357 358 358 358 357
358 353 350 351 351 348 345 343 342 339 334 333 337 332 332 332 331 336 337 334 334 348 347 347 349 351 357 355 352 357 357 359 359 359 357 356 357 358 358 357 357 357 356
356 354 352 350 353 348 343 345 339 331 333 334 328 330 332 336 331 327 328 327 329 335 343 345 347 349 350 355 354 353 355 352 353 356 355 355 355 354 355 356 356 357 357
356 352 351 350 350 346 341 336 333 331 333 335 325 326 324 330 333 329 326 325 327 332 336 338 337 344 346 343 342 346 346 347 349 352 353 353 354 354 354 353 352 353 355
357 352 353 351 346 340 338 335 334 333 328 335 331 327 320 319 329 329 329 324 327 324 329 333 332 332 343 338 337 336 339 341 339 340 341 342 343 344 347 351 352 353 352
355 353 352 352 346 342 339 336 337 332 334 327 334 332 328 325 320 322 330 326 329 325 325 328 331 329 338 338 337 335 338 339 337 334 334 335 337 338 339 341 345 347 348
355 356 354 350 341 336 340 338 334 332 335 333 330 332 332 328 326 318 316 324 330 330 330 324 329 329 329 332 328 333 339 337 336 334 332 331 332 334 336 337 338 340 342
352 355 353 345 340 337 339 337 336 335 333 333 330 331 330 323 323 321 319 317 320 326 328 332 327 325 329 331 334 338 341 338 335 335 334 332 331 332 332 334 334 335 336
348 351 349 343 340 337 342 340 339 335 333 331 332 329 331 328 326 324 319 319 318 323 327 331 330 328 328 329 332 338 341 338 336 334 334 334 334 334 333 333 333 333 333
350 350 348 344 341 338 344 341 338 335 336 333 330 330 330 329 329 325 326 321 316 318 320 321 333 330 331 328 332 342 332 337 336 335 333 333 334 335 336 336 334 333 333
349 349 349 345 343 340 338 340 337 334 335 334 329 330 329 328 329 329 326 324 319 314 315 321 322 330 330 329 334 332 327 337 338 336 333 332 333 334 335 336 335 335 335
350 348 349 346 346 341 340 341 335 337 334 335 334 332 330 329 330 329 328 325 325 320 316 323 322 325 328 331 335 333 329 338 337 336 333 331 331 333 334 335 334 334 334
348 348 348 348 344 342 342 340 334 334 336 331 333 330 333 331 329 327 330 327 324 323 318 319 323 325 327 324 327 331 333 332 330 334 333 332 330 331 332 333 333 333 332
351 350 348 347 345 342 340 340 335 335 332 334 332 331 329 334 329 329 333 329 329 328 323 319 324 324 324 327 329 330 331 333 332 335 334 332 330 329 329 329 329 329 328
352 350 350 346 345 343 340 340 336 332 334 334 334 333 331 331 328 331 333 332 328 329 327 324 322 325 326 325 323 324 324 325 331 335 331 329 329 328 327 325 324 323 321
355 348 348 348 346 344 340 340 336 334 335 335 334 335 334 332 331 332 332 331 331 328 326 323 322 323 324 326 325 323 322 322 323 330 332 330 330 330 329 325 324 324 319
355 353 347 348 346 343 340 337 337 336 335 334 334 337 336 337 336 334 333 330 331 329 326 322 319 317 319 319 321 321 321 321 322 323 323 322 322 320 321 324 329 330 325
356 353 351 348 346 346 335 335 338 337 337 335 334 338 336 338 337 335 335 334 334 329 324 320 318 318 319 320 321 320 319 317 315 322 318 318 319 317 317 319 324 324 322
358 356 354 350 346 347 332 330 336 338 336 336 337 337 337 337 335 332 331 330 329 329 328 323 320 319 318 320 321 318 317 317 316 321 313 313 315 313 318 321 323 323 321
357 357 354 348 347 342 329 328 331 334 333 334 338 338 335 334 333 335 332 329 328 329 328 326 323 325 323 325 324 322 319 316 314 316 316 310 315 313 315 316 322 322 320
357 354 349 343 339 338 325 324 327 331 331 331 335 336 335 334 329 323 330 329 329 328 328 324 326 326 322 321 323 317 314 310 309 310 313 312 314 311 313 310 312 318 317
348 348 342 340 333 336 324 321 322 330 330 328 329 335 329 331 322 322 329 327 323 323 323 322 321 321 318 318 320 316 319 310 309 309 315 311 308 306 305 306 309 314 317

GFSMA_sfc_thetae_018.txt.gz
Theta_e
344 345 346 348 347 344 346 347 348 348 348 347 348 343 335 338 346 347 345 357 357 361 361 360 359 357 357 359 357 357 356 353 352 353 354 354 354 352 352 352 352 352 351
345 344 344 347 346 345 343 349 346 345 346 342 343 345 342 335 342 346 346 350 359 360 362 361 359 359 359 358 358 358 357 355 353 354 355 356 356 355 352 353 353 353 353
349 349 349 347 347 349 350 345 346 346 339 341 334 334 334 335 338 341 346 346 351 360 360 362 361 360 358 358 358 359 358 359 357 355 355 356 356 355 355 356 354 355 355
353 349 350 345 347 348 348 345 345 341 337 332 327 329 329 334 336 334 338 343 347 349 356 358 359 359 358 357 357 358 357 358 358 357 357 356 354 356 356 357 356 356 356
354 350 349 348 346 350 345 344 341 340 333 329 331 328 331 330 337 339 336 343 344 347 347 355 357 358 355 352 355 357 357 358 357 357 357 357 358 357 357 357 357 356 356
354 348 348 348 347 345 343 341 338 336 331 331 337 330 329 328 333 333 329 335 345 346 345 345 349 349 356 357 355 354 355 357 356 355 356 355 356 356 356 357 356 356 355
355 350 348 349 349 345 341 340 336 329 329 331 323 326 330 331 326 326 325 330 336 339 344 343 346 349 351 353 352 353 355 353 353 352 355 355 354 354 353 353 352 354 356
352 351 349 347 347 341 338 333 330 328 330 330 323 323 321 328 328 326 322 330 331 336 338 340 342 344 342 341 343 348 348 349 350 350 350 350 351 351 351 352 352 353 353
353 352 349 348 346 343 337 332 331 329 325 330 327 324 318 318 327 328 323 323 324 325 330 331 338 341 340 336 338 337 341 343 342 341 340 341 341 342 343 346 348 348 350
353 350 350 348 339 340 334 333 335 332 328 325 330 329 325 323 319 318 325 322 323 322 325 329 328 336 338 335 334 335 340 339 339 335 334 334 335 336 337 338 342 344 345
353 352 350 348 339 338 336 334 332 330 332 328 327 328 326 325 319 316 316 320 325 325 323 323 328 328 337 334 330 332 340 338 338 336 332 331 331 332 333 334 335 336 337
352 351 351 347 338 336 337 334 331 330 332 332 329 329 327 320 320 318 316 315 317 323 325 326 324 326 329 333 333 335 341 338 337 337 337 334 333 332 332 333 333 333 334
347 350 348 341 337 333 335 334 333 332 330 329 325 326 328 325 324 320 315 316 315 320 322 326 329 325 328 328 330 338 342 338 336 334 334 336 337 336 334 335 334 334 334
350 351 348 343 337 336 337 335 334 333 331 329 331 328 327 326 326 322 319 318 313 315 317 317 326 328 328 327 331 343 332 336 336 334 333 334 335 336 338 339 338 336 335
350 349 348 342 338 335 339 337 334 332 334 330 328 326 327 325 326 326 325 321 316 311 313 318 320 326 328 329 332 334 328 334 336 335 333 332 333 335 336 337 337 337 337
349 348 346 342 339 336 337 337 334 332 330 332 330 326 326 326 326 327 325 322 320 316 312 319 321 320 323 329 331 333 328 334 335 335 333 332 332 333 334 335 335 335 335
347 347 346 343 340 338 335 338 333 333 330 330 332 330 329 327 326 325 327 324 321 324 319 318 320 321 326 325 325 325 330 328 329 333 333 332 331 331 332 333 333 333 333
346 347 346 344 342 340 338 336 334 334 332 329 329 329 328 331 328 326 326 326 324 325 320 317 320 322 322 323 326 328 329 330 328 333 332 331 330 330 329 329 328 329 328
347 346 346 345 342 342 339 338 336 333 331 332 331 329 328 327 327 328 328 326 327 327 326 322 320 322 322 323 323 322 322 324 328 334 330 329 328 327 326 324 323 321 320
347 347 346 345 345 342 340 339 337 334 332 331 332 332 330 330 330 328 330 327 327 328 324 324 322 320 321 322 322 321 320 320 321 327 330 328 329 329 326 323 324 324 320
352 347 346 345 344 343 342 338 337 335 333 332 332 332 332 335 335 331 330 328 327 328 326 324 320 318 318 316 317 319 318 319 320 321 319 319 318 317 317 321 324 327 324
352 348 345 345 343 344 336 334 338 337 335 333 332 331 332 337 335 332 331 331 331 328 323 322 322 319 319 317 318 319 317 314 312 319 316 316 315 314 315 316 322 324 322
352 350 346 345 344 345 332 330 335 336 336 336 332 332 333 338 334 334 331 330 327 327 330 329 326 322 318 319 318 316 316 315 314 319 313 310 312 312 315 318 322 322 320
352 352 350 347 346 346 331 327 333 339 337 337 336 334 334 335 332 331 330 327 326 329 329 329 326 326 323 322 321 321 319 316 314 315 313 309 311 312 315 315 320 321 320
355 354 355 350 347 345 325 323 330 336 335 335 335 336 334 332 326 324 330 326 328 330 328 323 324 322 321 320 322 318 316 311 309 310 311 310 311 309 310 310 311 316 316
356 356 351 349 341 337 320 320 328 332 330 331 331 332 327 331 322 319 329 327 325 325 324 323 319 319 319 318 319 318 315 310 309 309 312 310 308 306 304 304 305 307 310

GFSMA_sfc_thetae_021.txt.gz
Theta_e
344 345 344 345 345 344 344 343 345 346 346 345 344 340 334 343 344 344 343 354 357 359 357 356 358 356 356 356 356 355 356 355 352 354 351 354 352 350 349 350 350 350 350
344 343 343 344 345 345 342 344 346 344 345 340 342 340 340 333 343 344 344 346 358 359 361 357 357 357 356 358 356 356 355 354 351 352 354 354 355 353 351 351 352 353 352
345 344 343 346 346 346 346 346 343 343 339 335 333 331 333 334 343 343 344 344 348 358 361 361 359 358 356 356 357 357 356 357 355 354 355 355 354 354 354 353 354 353 353
348 345 346 345 344 347 346 343 343 340 334 332 329 328 327 334 334 338 342 344 345 346 353 359 359 359 356 354 354 357 358 356 356 357 356 354 354 355 355 356 355 355 354
351 347 348 344 345 344 344 343 339 338 331 328 330 326 330 329 336 337 335 343 344 346 345 355 355 357 355 353 354 357 355 357 357 357 356 356 355 355 356 356 356 356 356
352 348 347 346 344 344 342 339 337 334 329 329 334 328 329 327 331 330 328 340 341 345 344 343 346 348 355 353 355 354 355 356 355 355 356 356 356 355 355 355 355 355 355
352 347 345 347 345 342 341 338 335 328 326 328 321 322 328 326 325 323 327 338 339 341 341 341 344 347 350 355 355 352 351 351 352 353 352 352 353 354 354 353 353 354 355
352 348 346 346 346 343 338 336 329 326 328 327 321 320 319 325 324 323 323 334 336 339 340 342 342 343 342 342 344 350 351 351 351 350 349 348 349 350 351 350 351 352 353
351 352 347 346 345 340 336 331 329 327 324 328 325 323 318 317 321 324 321 327 329 331 331 336 340 340 337 335 338 339 344 347 345 343 342 340 340 341 341 343 345 346 347
351 350 348 346 344 343 336 332 332 328 326 326 328 327 322 322 317 314 322 321 321 322 326 327 334 339 338 333 334 334 340 341 341 335 334 334 334 335 336 337 339 342 343
349 350 348 346 338 338 336 333 331 330 328 324 325 325 323 323 316 316 313 318 323 322 321 326 326 328 338 334 329 330 339 338 339 337 334 331 331 331 332 333 334 335 336
349 349 348 346 339 336 334 333 331 329 331 329 328 328 325 318 319 316 315 315 316 320 323 323 322 326 330 335 336 335 341 339 337 337 337 337 334 333 333 333 333 333 334
346 347 347 345 338 335 336 333 330 328 330 329 326 326 326 324 322 319 314 314 314 317 320 322 324 324 326 329 332 341 341 339 337 335 335 336 338 338 336 337 337 337 336
349 350 349 347 340 334 335 333 331 330 329 328 326 326 326 325 323 320 317 317 313 314 316 317 322 326 324 325 330 338 333 339 336 334 334 334 335 337 339 340 339 339 339
349 348 349 346 340 335 334 333 331 330 330 327 327 328 326 324 326 324 323 318 315 310 311 316 319 321 326 325 329 331 333 333 336 335 333 332 333 335 336 338 338 338 339
348 347 348 345 341 335 336 334 331 330 331 329 328 324 324 324 324 325 322 320 317 314 312 316 320 319 321 326 328 332 330 335 334 333 333 332 333 334 335 335 336 336 336
347 347 347 345 341 336 335 335 333 332 329 329 329 327 325 325 324 325 324 322 320 318 315 318 320 320 322 324 324 323 326 327 327 331 332 332 331 332 333 333 333 333 334
347 347 346 344 341 338 334 336 334 334 331 327 328 328 328 329 325 324 323 324 323 320 318 315 318 320 321 322 322 324 326 329 326 330 331 330 329 329 328 328 328 328 328
346 346 345 344 341 339 336 334 335 334 333 331 328 328 328 327 324 327 325 325 326 325 322 319 318 320 321 321 322 321 322 323 326 332 329 329 328 328 327 324 322 321 319
346 345 345 345 343 342 339 337 335 334 333 333 333 330 328 328 326 327 327 327 325 326 322 321 320 321 321 322 321 319 319 319 320 325 328 327 327 328 326 322 322 323 319
349 345 344 344 344 342 341 338 337 335 334 333 331 332 331 331 333 331 327 325 328 324 324 322 320 320 321 320 320 320 318 319 319 320 319 318 318 315 315 319 321 324 322
349 346 344 343 342 344 335 334 338 337 335 333 330 332 333 335 334 332 330 330 330 326 323 320 322 320 320 321 320 320 316 314 313 318 315 316 315 313 313 314 321 323 322
349 345 345 344 342 343 331 331 335 338 334 333 334 334 333 335 333 334 330 329 329 328 328 324 321 323 323 324 322 317 316 314 314 317 315 312 311 311 314 316 321 321 321
349 348 345 344 344 344 330 327 332 338 336 336 336 334 333 332 332 331 331 328 326 327 329 328 326 328 327 327 322 320 318 315 314 316 314 309 311 311 313 314 319 321 319
349 349 348 346 345 344 325 324 328 338 336 336 336 337 334 331 328 325 330 328 325 326 327 323 325 323 321 320 321 318 316 312 309 309 311 309 309 309 310 311 313 318 317
353 351 350 350 340 345 322 320 329 337 335 335 334 334 328 331 321 319 331 328 324 326 324 322 321 318 317 316 319 318 315 310 307 306 309 308 307 306 304 304 304 306 305

GFSMA_sfc_thetae_024.txt.gz
Theta_e
347 349 348 348 350 350 348 348 350 350 352 349 348 342 342 345 346 346 348 351 355 357 355 355 358 356 355 355 356 354 354 353 353 353 351 352 352 351 349 349 349 350 349
348 347 347 348 349 349 348 349 351 349 348 343 344 346 345 340 346 347 348 347 356 357 357 356 355 357 356 356 356 356 355 356 354 352 353 355 353 352 351 350 351 351 352
349 348 346 347 349 351 351 350 348 349 343 338 336 337 339 340 342 348 349 348 350 354 357 356 356 354 355 356 357 356 356 356 354 352 354 354 354 354 354 353 351 353 353
351 348 347 349 350 351 351 348 348 346 340 335 336 335 336 340 341 347 347 349 349 350 353 356 357 358 354 353 353 356 356 356 355 357 356 355 354 354 353 355 354 355 353
352 349 349 350 349 349 348 348 344 343 336 335 337 334 336 336 339 339 341 345 347 351 349 354 356 356 353 352 353 353 353 355 357 357 357 357 356 356 356 357 356 356 356
353 351 350 350 348 348 346 345 344 339 336 335 333 333 334 334 338 337 337 344 347 350 350 350 353 353 354 353 354 352 352 353 356 356 356 355 356 356 355 354 355 355 354
353 352 350 350 348 348 347 345 340 337 333 333 330 331 334 331 330 330 340 345 347 348 347 347 349 351 352 353 353 351 351 351 352 353 354 353 353 352 351 352 351 352 352
353 351 349 349 348 348 345 342 338 333 332 331 329 327 327 330 331 329 334 339 342 345 345 347 349 350 349 350 350 350 352 352 352 350 350 349 349 349 349 349 348 349 351
353 353 349 350 349 348 344 341 336 334 331 335 331 330 324 324 327 330 330 332 337 339 339 343 346 346 344 343 342 343 345 347 345 343 342 341 341 342 341 342 344 344 345
352 353 352 350 349 347 342 340 336 334 333 333 333 330 329 330 324 323 329 329 329 331 334 336 342 345 343 341 337 335 341 340 341 335 333 333 334 335 336 338 340 341 342
351 352 352 350 348 347 345 340 336 336 333 333 332 330 329 326 324 323 321 325 329 330 329 334 334 337 344 341 338 333 339 338 338 339 335 331 330 331 332 333 335 335 336
350 351 351 350 348 344 344 340 338 337 336 334 333 333 331 327 325 323 322 323 324 329 331 330 331 333 335 343 340 337 338 340 338 338 338 337 335 335 335 335 336 336 336
349 349 350 349 346 342 342 339 337 335 336 335 334 333 332 330 328 325 323 321 323 325 328 329 332 331 333 336 342 343 342 340 338 336 336 336 338 339 338 338 339 339 339
350 352 350 350 347 343 341 339 336 334 336 335 333 333 332 331 329 327 325 325 322 322 324 330 329 334 335 333 335 340 342 337 338 335 334 334 335 336 339 340 340 340 340
351 351 351 350 348 342 341 339 336 335 335 334 334 334 332 331 332 330 327 327 326 320 321 326 327 330 334 334 334 337 340 337 336 336 333 333 334 335 336 337 338 339 339
350 351 351 350 347 343 340 339 336 336 335 333 333 333 332 331 331 331 329 328 325 325 321 324 327 329 331 333 333 338 336 336 336 333 333 332 333 334 335 336 336 336 337
349 349 351 350 347 343 340 338 337 336 335 335 335 332 331 332 330 330 330 328 326 324 324 326 327 329 331 334 334 334 333 335 334 331 332 331 331 332 333 333 333 333 334
349 349 350 349 347 343 341 339 337 337 335 334 334 333 332 330 331 331 329 331 329 329 327 328 327 328 330 332 333 334 333 333 334 332 330 329 329 328 328 328 327 327 327
348 349 349 348 346 344 340 341 340 338 337 336 335 335 333 332 331 331 331 330 330 329 330 327 328 328 329 330 331 331 331 332 332 332 329 328 328 327 326 323 321 320 318
348 349 349 348 346 345 342 340 340 339 338 338 337 335 334 333 332 331 332 333 333 332 331 328 328 329 328 329 329 327 327 329 327 330 332 328 328 328 325 322 322 322 319
349 348 348 348 347 345 344 342 340 339 338 338 337 336 336 335 334 332 332 333 334 331 331 329 327 327 327 326 326 326 322 324 326 328 329 329 327 328 328 323 324 325 321
350 348 347 347 346 346 336 334 340 340 339 337 335 336 338 335 334 330 330 330 333 331 331 329 327 326 327 329 327 323 322 321 321 328 326 326 326 326 328 325 323 322 321
349 347 347 347 346 347 330 331 335 342 340 339 337 335 334 337 335 336 330 329 329 328 331 332 330 324 327 331 328 322 320 323 323 326 324 322 326 324 326 324 321 321 320
347 348 347 347 346 346 329 327 333 343 341 340 339 337 337 337 336 335 335 334 334 334 332 331 335 331 330 332 329 327 327 325 325 326 324 319 324 320 323 324 321 320 319
349 348 349 347 346 346 326 324 330 341 339 338 338 338 338 337 328 325 336 334 333 331 326 325 324 323 323 322 327 327 322 319 319 320 321 319 320 318 320 320 322 319 316
350 350 349 348 342 347 322 322 329 341 339 337 338 338 328 334 321 320 336 336 333 329 330 330 328 324 322 321 321 328 324 318 317 315 320 317 317 317 310 317 315 317 317

GFSMA_sfc_thetae_027.txt.gz
Theta_e
357 360 362 359 359 360 357 358 363 359 357 353 351 352 351 352 353 354 353 351 354 355 353 354 356 357 355 355 355 352 354 352 352 352 352 352 352 352 351 348 349 350 349
359 360 361 358 357 361 360 358 360 358 348 347 348 354 353 351 354 354 353 352 351 355 354 353 355 356 355 355 355 355 355 355 354 353 354 352 353 352 351 349 350 352 351
360 361 359 357 358 363 361 358 358 361 350 343 342 349 349 347 349 352 355 355 352 352 354 354 354 354 356 356 356 356 355 356 356 354 353 353 353 354 353 353 351 351 353
361 361 359 357 362 362 363 360 362 359 354 341 342 345 348 348 348 353 355 355 356 352 352 355 355 353 353 353 355 357 355 353 356 356 356 354 354 355 355 355 354 354 353
361 360 359 359 363 361 360 360 358 355 348 345 345 345 346 346 344 346 350 353 355 355 354 351 356 355 353 353 351 352 353 356 357 356 356 356 356 356 356 357 356 356 356
361 361 359 361 361 358 357 358 358 352 347 346 341 342 343 347 349 347 348 351 355 355 356 356 355 353 354 350 351 350 351 352 354 354 355 356 357 356 356 355 355 355 355
362 363 359 361 360 356 358 358 353 349 345 347 341 341 341 343 341 344 351 349 352 352 352 355 355 355 353 352 352 351 352 352 351 350 351 353 353 352 352 352 352 351 351
363 362 362 360 360 356 358 356 353 346 344 346 339 339 332 336 339 339 349 347 349 348 345 347 354 356 353 352 351 349 351 352 352 351 350 349 349 349 348 347 346 347 347
363 364 363 361 361 359 355 357 352 348 341 345 342 338 330 328 336 339 343 346 348 347 345 346 349 351 352 347 342 341 344 347 343 340 339 339 339 339 340 341 343 344 344
362 363 363 362 362 359 359 357 352 349 344 339 341 342 342 341 331 329 336 342 344 342 345 345 346 347 351 346 339 335 336 339 339 335 334 334 334 335 336 336 338 340 341
362 362 363 362 362 359 360 357 352 349 344 341 341 338 340 339 340 334 328 332 339 340 341 341 343 345 347 346 344 339 338 340 340 335 332 331 331 332 332 333 334 335 336
357 361 362 363 363 361 360 358 355 352 348 344 343 342 337 335 332 333 332 333 332 336 337 338 340 341 342 345 345 345 338 340 339 339 338 336 336 337 337 338 338 339 339
353 359 361 361 360 361 360 358 355 352 349 345 347 342 342 339 339 335 333 333 331 334 336 339 340 341 340 342 344 345 345 340 339 338 337 337 337 337 338 339 339 340 340
355 362 361 362 362 361 359 357 353 350 349 347 348 346 342 342 341 338 335 333 329 330 334 336 337 340 343 342 344 344 344 340 339 337 336 336 336 337 339 340 341 341 340
356 360 362 362 362 361 359 356 351 350 348 348 347 346 343 342 342 340 337 336 331 325 326 334 332 342 343 344 343 343 345 342 338 336 335 334 335 336 337 338 338 339 340
361 360 361 362 362 361 359 357 353 351 348 345 344 346 345 342 342 341 340 338 335 332 327 334 334 339 342 343 341 344 343 339 337 335 334 333 333 334 335 336 337 337 337
361 361 361 360 360 360 358 356 355 352 348 348 346 345 345 346 340 340 340 339 337 335 330 334 337 342 340 341 340 344 342 343 340 334 333 332 331 332 333 334 333 333 333
360 362 362 360 360 359 358 356 354 352 349 347 346 345 344 341 343 343 339 342 339 339 333 336 338 337 339 342 343 343 340 338 340 336 332 332 331 330 330 329 328 327 326
360 359 361 361 359 358 358 356 356 354 351 350 348 346 345 344 341 338 339 337 337 339 338 334 333 338 338 339 339 342 342 340 339 335 329 330 330 329 328 326 324 321 319
359 360 362 362 360 358 358 356 355 355 352 351 350 348 346 345 343 341 340 341 341 338 338 335 334 334 336 339 338 335 334 336 334 333 334 331 331 331 328 324 322 323 320
359 361 361 361 361 358 355 356 355 354 353 351 351 349 347 346 340 340 340 343 344 339 336 335 334 334 333 332 329 334 331 332 334 334 333 334 335 333 333 327 326 326 323
359 361 360 360 359 356 341 338 351 353 353 353 351 350 349 342 338 332 332 335 342 342 340 336 335 334 337 331 334 332 331 329 325 333 331 331 335 332 333 334 329 325 322
359 359 359 359 359 360 333 332 338 355 353 353 353 352 348 345 339 342 332 330 331 331 335 343 339 339 336 335 336 335 334 331 329 336 334 328 332 330 330 329 325 323 321
357 358 358 359 359 358 330 328 335 354 355 355 354 353 351 349 345 343 345 341 340 339 338 338 342 343 339 341 338 338 338 336 335 334 336 324 326 325 327 326 323 322 320
358 358 359 359 358 359 326 326 333 351 354 354 354 353 351 349 336 328 343 342 339 341 330 326 328 326 325 326 331 336 332 329 325 326 329 323 323 322 322 322 322 321 316
357 357 358 359 350 359 325 323 331 352 352 350 353 352 330 342 323 321 343 344 341 342 342 338 336 328 328 329 323 338 332 324 321 319 326 319 319 318 313 316 318 317 316

GFSMA_sfc_thetae_030.txt.gz
Theta_e
363 363 363 362 362 363 358 359 356 355 358 354 354 349 346 347 348 349 350 354 354 354 353 355 357 355 356 355 355 354 352 348 351 351 352 352 351 352 351 348 348 349 350
365 364 361 361 362 363 362 361 358 356 356 351 351 351 344 346 347 349 348 352 354 355 353 354 355 357 356 355 355 354 353 354 353 353 352 352 353 353 351 350 349 350 351
364 366 366 358 362 365 362 362 360 359 349 349 349 345 346 347 346 346 351 350 351 354 354 353 355 356 357 355 356 356 356 356 355 356 353 355 353 354 353 353 352 351 351
365 366 364 359 363 365 362 359 356 353 349 348 346 348 346 346 348 348 348 353 352 349 352 352 352 354 354 355 356 356 356 356 356 355 355 354 353 355 355 354 354 354 353
363 365 362 361 367 363 360 360 356 356 348 347 344 346 345 344 347 342 345 351 351 350 349 352 352 352 351 352 352 352 354 355 356 356 355 355 356 356 354 355 355 355 354
363 365 361 363 360 361 359 358 356 356 352 348 340 339 345 345 346 345 343 344 350 350 350 354 353 351 352 351 351 350 350 351 353 353 353 354 355 356 356 354 354 355 355
366 368 362 363 363 360 361 359 356 354 348 351 338 339 341 343 343 345 345 342 344 346 346 348 350 351 351 353 352 350 352 352 351 351 352 352 351 351 351 352 351 352 349
368 367 368 365 365 360 363 361 359 352 350 343 339 339 331 335 339 343 344 342 342 341 341 345 352 353 352 353 350 349 352 352 352 351 349 347 348 348 347 347 346 346 345
367 369 368 362 366 363 358 361 359 354 345 343 347 340 331 330 333 339 344 342 344 341 341 344 345 349 351 343 342 342 344 347 340 338 338 337 338 339 340 340 340 340 340
366 367 368 366 368 362 363 367 359 356 353 339 342 343 347 345 332 330 338 341 342 341 343 343 343 344 346 343 339 339 339 340 337 336 335 336 336 336 336 336 336 337 337
366 364 368 368 368 364 364 365 361 359 353 342 339 340 342 339 342 334 331 334 340 340 342 342 343 343 345 345 343 339 339 337 335 334 332 333 334 335 335 335 334 335 335
361 365 366 368 369 367 366 364 364 361 358 350 343 344 338 335 335 335 332 336 335 339 341 341 342 342 343 344 348 342 342 341 340 337 335 334 335 336 337 337 337 338 338
353 365 366 367 364 369 367 367 366 361 360 353 351 342 342 341 341 337 334 335 332 337 338 339 341 342 341 343 345 346 345 340 340 339 339 338 337 337 338 339 340 340 340
357 362 364 365 366 366 367 367 363 360 359 356 353 351 342 343 343 340 337 335 331 332 335 339 340 340 341 343 346 349 344 342 341 339 339 338 337 338 339 341 341 341 341
358 361 362 365 365 366 367 367 361 361 357 356 352 352 346 341 344 342 341 338 333 328 329 337 333 343 343 343 346 346 347 345 342 339 337 336 337 337 338 338 339 340 340
367 363 363 363 364 366 367 367 362 362 359 354 350 350 351 342 344 343 341 339 337 333 329 338 336 341 343 342 343 346 345 343 340 338 336 335 335 335 336 336 337 337 337
370 367 368 364 363 364 367 366 366 362 360 357 355 350 351 353 341 340 342 340 339 338 332 335 339 344 347 346 343 343 344 343 340 337 336 334 333 334 335 335 335 334 333
370 371 370 367 365 363 366 365 363 360 360 357 357 354 350 347 350 348 341 350 344 344 335 339 342 340 345 347 347 347 342 340 340 337 336 334 333 333 332 332 331 330 329
370 364 368 370 367 365 366 365 364 363 361 360 358 356 353 349 348 344 344 342 340 340 341 335 335 340 340 343 344 346 345 346 341 339 332 332 331 331 330 328 326 324 321
370 369 369 371 369 366 364 363 362 362 363 360 360 359 356 352 349 348 345 345 343 339 341 337 335 335 338 343 340 335 337 341 338 338 338 333 334 333 331 327 325 324 320
370 370 370 371 370 364 360 366 365 362 363 362 361 360 359 354 344 345 346 347 351 342 335 336 336 335 335 335 337 337 335 335 339 340 338 337 336 336 336 328 331 331 325
369 370 368 369 368 362 344 340 357 363 365 365 362 360 360 348 345 335 335 336 345 348 346 335 335 336 344 340 339 336 334 332 329 340 337 335 337 335 335 335 331 326 324
369 369 368 368 368 369 336 334 341 361 365 364 364 362 358 356 349 352 335 332 333 333 337 349 343 344 344 348 347 341 340 336 334 337 339 333 334 332 334 331 326 324 323
367 367 368 369 369 368 335 330 337 361 365 365 365 364 365 363 357 353 352 344 343 344 344 342 345 346 351 348 347 343 343 341 340 338 342 329 331 326 329 329 326 323 321
366 366 365 368 369 369 330 326 336 359 359 366 365 364 364 363 344 331 352 350 349 347 333 327 329 329 331 328 335 340 335 336 332 330 336 329 325 324 325 325 326 323 317
364 361 363 367 355 369 331 323 335 356 357 356 365 367 336 354 328 324 349 350 347 348 348 341 337 334 331 333 326 340 337 331 328 323 331 325 321 321 318 322 321 320 320

GFSMA_sfc_thetae_033.txt.gz
Theta_e
361 358 359 358 358 358 359 359 356 357 355 353 352 352 344 342 344 347 348 354 354 354 356 357 357 356 356 356 355 354 351 349 352 352 352 352 351 351 350 348 348 348 350
361 359 359 358 360 359 356 357 357 354 352 352 349 349 344 345 346 349 348 352 357 355 354 355 357 358 356 356 356 354 354 353 352 351 352 352 352 352 350 349 348 349 351
364 367 359 356 361 364 361 360 358 357 350 347 347 342 344 346 344 346 349 348 352 358 355 355 356 357 358 356 357 356 355 355 355 355 354 353 353 353 353 352 353 351 351
366 367 359 358 360 362 357 359 353 350 349 344 343 342 345 344 346 344 347 351 351 347 356 356 355 356 355 354 356 356 356 357 356 356 355 355 353 353 355 355 353 353 354
363 365 355 355 366 359 356 353 352 353 343 342 342 342 343 342 349 342 344 345 349 349 348 357 357 355 354 353 353 353 355 355 356 356 355 355 355 355 356 355 355 355 355
363 365 362 362 361 360 357 354 357 349 348 343 339 338 342 344 344 344 342 347 345 345 349 354 351 351 356 354 352 350 350 351 351 352 352 353 353 355 355 356 355 355 355
365 367 362 365 361 362 359 358 355 353 348 345 338 338 340 342 342 341 342 342 343 343 345 346 352 350 349 356 352 351 352 351 351 352 353 352 351 351 350 351 351 352 353
366 366 369 363 364 357 361 361 357 350 344 341 341 336 331 334 337 340 340 339 342 340 340 343 346 354 351 349 350 351 353 354 354 351 348 347 348 348 347 345 345 347 345
365 371 367 364 366 364 365 362 358 355 343 340 350 342 333 330 332 338 341 341 343 339 340 343 345 347 349 341 343 344 347 347 343 339 338 339 340 340 339 339 339 339 340
365 366 367 364 368 362 364 362 359 358 355 341 340 343 350 347 335 332 339 340 342 340 342 341 343 344 346 342 342 344 344 344 344 341 339 338 338 337 336 335 335 335 335
367 363 370 368 369 364 371 364 364 362 353 347 340 339 343 338 343 337 332 339 339 340 343 342 343 344 345 344 341 339 344 344 343 342 338 337 337 337 336 336 336 336 336
362 370 367 373 373 370 366 365 367 364 360 355 345 344 339 337 336 336 334 339 338 342 340 342 342 342 344 344 344 343 344 342 342 341 338 337 337 337 337 337 338 339 340
352 365 372 372 365 373 368 372 371 366 362 357 357 344 343 341 342 338 335 335 334 337 338 340 341 342 341 343 345 344 345 342 341 340 341 341 339 338 338 339 340 341 342
354 368 371 370 370 370 369 373 365 362 365 359 357 356 345 344 343 342 338 335 332 333 336 340 341 341 343 343 345 350 344 341 340 340 339 339 339 340 341 342 341 341 341
356 368 370 370 370 370 372 374 362 367 366 361 360 358 349 342 344 343 341 339 335 329 332 341 335 349 342 343 346 345 346 342 342 341 339 338 338 339 339 340 340 340 341
371 371 367 368 369 371 372 373 366 369 367 358 352 360 358 344 345 344 341 340 338 334 330 337 339 343 346 341 345 345 345 345 344 341 339 337 337 337 337 337 337 338 338
375 370 372 370 369 369 371 372 370 369 366 365 362 361 358 361 342 341 342 341 339 338 332 335 339 350 350 348 346 348 345 348 341 337 338 337 336 335 335 336 336 335 334
373 374 374 372 370 369 370 371 368 361 366 362 360 361 356 349 358 357 343 356 346 349 337 350 346 343 348 354 353 355 345 340 343 338 339 337 335 334 333 333 333 331 330
374 372 373 373 371 369 370 372 371 368 367 366 365 363 360 358 357 347 348 344 342 344 344 338 337 340 342 345 348 352 352 351 344 338 335 334 332 332 331 330 327 326 323
373 372 373 373 373 371 370 370 370 369 368 367 367 366 364 360 356 357 353 352 350 344 343 339 337 336 338 348 343 338 339 343 341 339 340 335 338 334 331 328 327 327 321
373 374 373 372 374 372 366 369 368 368 368 368 368 367 367 361 349 351 350 352 352 345 336 336 337 337 335 338 341 340 339 338 342 339 340 340 343 339 337 330 334 331 326
373 373 372 371 370 368 347 341 360 367 368 368 367 368 367 353 349 339 338 339 350 353 349 341 339 339 351 346 342 338 338 334 331 345 340 337 344 341 338 337 332 333 328
373 372 371 372 371 372 339 335 341 367 367 367 369 368 365 359 354 357 337 335 335 335 341 354 349 348 352 354 355 346 346 343 337 340 342 334 338 334 335 329 329 328 324
372 371 371 373 372 371 339 331 336 363 366 367 368 368 368 364 363 360 358 350 349 349 348 345 351 353 355 356 350 350 349 347 345 340 347 330 335 331 330 331 330 325 322
371 370 372 372 372 371 335 329 334 359 361 363 366 369 368 368 349 336 359 357 352 350 336 332 332 332 335 332 339 345 338 338 334 334 342 333 331 326 326 326 329 324 323
370 368 369 371 360 371 340 327 333 359 359 360 364 368 340 360 336 328 357 357 352 350 349 343 338 334 335 334 329 346 341 333 333 329 340 329 327 323 318 324 325 324 324

GFSMA_sfc_thetae_036.txt.gz
Theta_e
356 355 358 352 360 356 353 355 358 353 359 352 352 350 344 341 346 344 349 359 358 360 359 358 356 356 355 355 353 352 348 351 352 352 352 351 351 351 350 348 347 347 349
360 361 365 357 358 356 353 358 364 359 348 353 353 352 344 348 345 345 348 354 359 359 360 359 358 357 356 356 356 353 354 349 350 351 351 352 353 352 352 351 349 349 351
368 355 364 362 363 367 366 364 352 356 350 347 350 351 347 342 348 344 346 347 354 360 360 359 360 360 358 356 356 356 355 356 355 355 356 354 355 354 354 354 353 354 353
374 373 362 357 354 358 364 352 359 351 352 350 346 344 345 347 347 348 347 348 350 350 357 360 360 359 356 356 356 356 356 357 357 358 356 357 356 356 356 357 355 355 355
369 371 362 354 364 365 360 359 357 350 350 348 340 347 348 338 342 341 347 348 350 347 348 358 359 359 356 355 355 355 356 358 358 357 358 357 357 356 357 356 356 356 356
368 369 363 365 367 364 357 358 360 355 352 348 337 341 340 346 342 347 344 345 350 349 347 349 354 353 358 358 356 353 352 353 353 352 354 355 355 355 355 355 355 355 354
369 372 366 354 364 363 363 362 359 352 348 348 346 343 344 343 342 340 342 341 345 345 346 351 351 349 353 357 356 356 352 352 354 354 353 354 352 352 353 352 351 351 353
372 370 368 365 368 354 364 362 360 353 350 347 345 338 334 338 337 338 344 340 343 342 341 350 348 352 349 349 351 356 357 356 353 351 349 349 349 348 347 347 347 347 347
367 369 368 366 366 364 359 361 361 361 347 346 354 346 332 327 337 341 341 340 342 340 341 346 348 352 349 341 348 350 351 349 346 340 339 342 344 343 342 342 342 342 342
366 366 366 369 368 365 363 364 365 363 357 342 345 348 351 348 335 328 341 341 343 339 344 342 344 346 349 342 344 344 345 344 345 343 340 339 342 340 338 339 340 341 342
367 367 366 370 370 368 365 363 366 364 362 355 345 344 346 347 346 340 332 337 341 343 344 344 343 343 347 339 335 339 344 343 343 345 345 343 341 339 338 337 337 338 342
363 369 367 367 369 368 367 365 368 367 363 361 354 349 344 340 340 339 337 336 337 342 344 343 344 345 346 343 340 342 344 343 342 342 341 343 344 343 339 338 338 340 342
359 363 368 367 365 367 368 368 366 368 364 361 357 352 351 349 348 345 339 337 336 340 342 344 346 345 345 349 344 341 345 342 341 340 340 340 342 343 343 342 341 341 341
356 365 364 366 366 365 366 370 368 365 364 361 361 356 351 351 349 346 342 341 334 336 340 338 343 346 347 346 341 345 339 340 338 337 337 338 339 340 341 342 343 343 342
360 368 365 365 364 367 368 369 362 364 366 362 359 359 354 351 351 349 348 344 340 332 335 342 338 344 347 345 345 342 343 339 339 338 337 337 337 338 339 340 340 341 340
362 373 365 364 365 365 368 367 364 366 363 361 358 355 354 348 347 350 347 346 344 339 332 341 342 343 343 346 347 347 346 343 340 340 338 337 337 338 338 338 338 338 338
372 364 368 365 365 365 365 366 363 363 364 361 357 356 353 353 351 349 347 347 345 343 336 339 347 350 347 344 342 346 345 345 341 338 337 338 337 336 336 336 336 336 335
366 371 368 365 365 364 365 364 363 359 362 360 357 354 354 351 352 353 353 346 344 347 342 340 343 346 347 347 348 348 344 340 343 340 337 335 335 334 333 333 334 333 331
368 365 369 367 364 364 363 364 363 362 358 362 361 357 355 353 350 346 348 347 346 347 348 340 340 345 347 349 346 347 348 346 346 339 333 333 333 332 331 330 328 327 324
365 367 366 366 367 365 364 363 364 364 362 361 363 361 359 355 350 351 347 345 347 345 342 342 340 339 344 345 344 340 340 343 341 341 337 334 333 332 331 327 327 326 322
365 366 366 366 366 366 364 363 363 364 363 361 361 363 362 359 350 348 348 349 344 343 342 337 335 338 338 340 338 340 336 336 340 342 338 335 335 334 332 330 332 332 327
367 367 366 365 365 365 349 343 357 362 364 362 360 362 363 353 350 341 340 341 346 342 338 335 335 335 338 341 345 339 337 335 331 342 337 337 341 339 338 339 336 334 330
367 366 366 366 364 365 341 338 342 362 361 362 361 361 361 361 352 354 338 337 337 338 340 342 341 343 346 346 346 342 341 340 336 340 338 332 339 334 339 329 328 329 329
367 366 366 367 366 365 340 333 338 358 360 361 362 362 361 361 359 357 352 345 344 344 342 344 348 346 350 350 349 347 344 343 343 342 341 329 336 333 332 328 326 326 324
366 367 367 367 366 366 336 331 334 355 357 359 361 363 362 361 349 335 355 349 345 345 336 331 334 337 335 336 345 344 341 337 333 334 339 334 333 330 327 328 324 323 320
367 367 367 368 357 366 341 328 332 357 355 355 358 361 340 355 338 327 353 353 347 345 346 343 338 331 332 333 333 344 341 334 332 331 338 332 330 326 318 324 325 319 318

GFSMA_sfc_thetae_039.txt.gz
Theta_e
350 351 353 347 349 350 350 352 349 349 346 346 342 341 342 342 345 349 350 361 360 361 360 357 356 354 353 352 351 350 352 352 353 352 353 352 352 352 349 348 347 348 350
353 350 353 352 352 349 347 347 350 348 344 344 340 344 341 341 342 346 348 351 360 361 359 359 357 357 356 356 355 354 351 349 351 352 352 355 355 353 352 351 350 348 350
351 350 348 351 351 351 348 351 342 349 344 344 338 340 336 341 342 345 347 348 354 361 361 361 361 360 357 356 356 355 355 356 354 354 355 355 355 355 354 354 353 352 354
356 351 350 351 350 352 353 350 350 344 343 343 338 339 338 338 340 343 344 346 349 351 359 361 361 359 357 356 357 356 357 358 358 358 357 356 354 356 356 356 355 355 354
357 354 350 351 350 353 349 347 348 344 342 342 338 339 338 337 341 344 341 344 346 347 348 358 359 358 356 355 356 354 356 358 358 358 357 356 356 356 355 355 354 354 354
356 355 351 350 353 349 348 345 342 341 340 336 336 339 334 335 337 341 343 346 344 344 346 348 350 351 356 358 358 357 355 355 358 356 355 356 355 355 355 353 354 353 353
356 355 354 352 352 348 349 348 343 343 338 332 330 332 331 331 335 338 340 343 344 342 343 344 346 347 351 357 356 357 355 355 355 354 353 354 353 353 353 351 351 350 350
357 356 354 351 353 349 350 348 345 342 341 333 334 331 323 326 332 335 336 341 339 340 342 345 344 345 347 347 348 356 357 357 354 352 350 349 349 347 347 346 347 346 346
358 356 355 354 353 348 348 349 346 345 331 335 339 335 324 321 325 333 330 331 334 332 339 345 344 343 344 342 350 353 354 353 349 342 340 341 344 343 342 342 341 341 341
356 358 356 354 353 353 349 349 351 346 336 327 332 338 338 336 321 320 332 330 332 331 335 341 344 343 342 337 346 347 347 344 345 343 340 339 340 340 338 339 340 341 341
353 360 356 356 353 354 351 350 352 346 344 339 329 331 333 334 333 326 322 328 332 331 335 334 339 343 337 336 334 339 345 344 344 346 345 342 340 339 338 337 338 343 345
355 357 358 357 355 355 353 352 353 350 346 347 339 335 328 327 328 327 328 329 326 331 333 334 334 336 338 334 338 342 345 344 343 343 343 344 345 343 340 339 339 340 341
353 355 357 355 356 356 357 354 354 354 350 347 344 337 338 332 336 331 330 327 326 330 331 333 335 336 339 332 330 341 345 341 340 339 339 340 342 343 344 343 342 341 341
353 354 358 357 356 356 355 357 355 355 353 348 349 343 337 339 336 331 328 329 323 324 330 327 334 336 335 340 337 343 337 338 338 336 336 337 338 339 340 341 342 342 341
351 356 357 359 357 356 355 356 358 354 354 351 347 348 342 339 340 335 332 331 327 321 324 330 329 335 336 339 340 335 332 338 337 335 334 335 335 337 337 338 339 339 340
348 354 356 358 357 357 357 357 356 357 353 354 351 347 345 341 338 337 335 333 331 326 321 331 330 334 338 339 341 333 332 337 337 336 334 333 334 336 337 337 337 337 337
353 352 357 357 356 357 359 357 354 354 354 352 350 347 345 342 337 337 336 334 331 329 323 326 332 336 335 335 337 338 340 338 334 334 334 334 334 335 336 336 336 336 335
353 357 359 357 358 357 356 358 355 355 352 352 351 346 346 347 340 339 342 332 332 334 328 324 332 335 334 333 332 334 338 340 337 337 335 334 333 333 332 332 333 333 332
359 354 359 358 357 358 357 357 358 356 353 355 354 349 346 345 341 340 339 338 336 334 336 330 330 336 337 337 336 338 336 334 337 340 333 333 332 331 330 328 327 326 324
357 361 355 359 359 359 358 358 357 357 356 353 355 354 351 348 345 342 339 337 336 334 331 331 328 328 331 338 335 333 333 337 335 339 336 334 332 332 331 327 326 325 321
359 358 359 357 360 358 359 357 358 357 356 356 353 357 355 352 346 343 343 339 336 335 332 329 328 330 329 332 335 335 332 333 335 335 333 328 327 330 331 329 330 331 326
356 357 357 357 358 360 346 342 354 357 357 356 355 353 357 351 348 339 338 339 341 335 333 334 330 328 331 332 333 335 334 327 326 336 333 329 330 329 330 328 331 330 326
360 357 356 358 357 359 338 337 342 358 356 357 357 356 353 357 349 353 338 337 337 336 335 334 333 332 331 334 335 334 332 328 327 333 330 326 330 330 332 332 330 327 324
359 359 359 358 359 359 338 333 338 356 357 356 358 358 356 355 355 354 353 345 344 342 340 338 335 335 337 340 340 339 335 334 334 334 334 326 330 328 328 323 326 326 324
358 359 361 360 359 360 333 331 333 353 356 356 357 358 358 357 346 334 353 349 345 344 336 330 333 334 332 334 341 340 334 332 329 331 335 329 328 327 323 321 322 324 320
359 360 359 362 352 361 336 327 332 354 354 354 355 356 339 350 335 328 350 352 346 345 344 342 336 330 333 336 335 341 336 330 328 327 333 331 327 324 315 317 318 319 316

GFSMA_sfc_thetae_042.txt.gz
Theta_e
345 347 349 349 348 348 346 346 346 347 346 341 339 344 345 342 347 351 351 360 361 359 357 355 352 350 351 352 353 353 353 352 352 352 352 351 351 350 348 347 347 346 348
347 348 347 346 346 346 346 345 347 346 341 340 337 343 340 341 344 348 349 354 361 362 360 356 355 354 354 353 352 351 349 351 352 352 350 352 352 351 351 350 350 348 349
349 348 349 348 347 347 345 344 342 343 338 339 337 338 339 339 343 346 349 347 355 362 361 359 358 357 356 356 355 353 353 351 350 351 352 352 352 352 352 353 353 353 352
350 349 349 349 349 351 349 347 345 339 340 340 336 334 337 339 340 342 345 347 349 352 360 360 358 359 356 356 356 356 355 355 356 355 355 354 353 353 354 354 352 352 353
354 349 347 350 349 348 348 343 346 341 339 342 337 333 335 337 339 342 341 343 345 348 349 357 355 358 356 356 356 355 355 356 356 355 355 354 354 354 354 353 353 353 352
355 352 348 346 349 347 345 344 339 340 340 337 335 335 331 334 339 339 341 344 343 343 344 348 348 351 355 357 355 356 354 354 354 354 356 355 355 354 354 353 351 350 350
353 352 351 352 350 348 347 342 341 339 334 331 329 328 327 332 334 338 341 341 341 341 343 344 346 346 349 356 356 356 352 351 352 352 352 352 352 352 351 350 350 349 348
353 352 350 348 349 348 346 345 342 338 334 330 332 325 319 323 329 333 338 340 339 340 340 342 343 343 346 345 346 355 356 356 353 351 350 349 348 346 345 346 345 344 342
354 353 352 350 349 347 346 345 344 339 327 333 334 329 320 317 321 329 330 336 337 336 338 341 342 343 344 342 349 352 354 353 352 346 342 340 341 340 339 340 341 340 340
354 354 352 351 351 348 345 346 346 343 327 327 330 337 334 330 318 318 327 327 332 332 333 341 341 341 342 340 346 350 353 349 346 343 340 338 338 338 337 337 340 341 341
352 354 353 351 350 350 347 347 348 344 336 328 325 330 330 331 328 321 319 323 329 328 334 340 342 340 340 335 339 343 349 345 344 346 345 342 339 338 338 337 337 341 343
349 353 354 352 352 351 349 347 349 344 345 336 335 331 326 325 325 325 323 323 323 326 330 332 338 340 338 332 339 342 346 344 343 344 344 345 345 343 341 340 339 340 341
345 349 354 351 351 351 350 349 349 348 343 344 339 333 331 327 330 327 326 324 324 327 328 330 332 337 339 332 335 342 345 342 341 340 340 342 343 345 346 343 341 341 341
348 350 354 354 354 353 353 350 349 351 347 345 344 338 335 337 334 329 325 326 320 322 325 328 331 332 336 333 335 344 335 339 338 336 336 337 339 341 341 342 342 342 340
352 351 355 354 354 353 353 352 350 349 351 345 343 345 338 335 336 335 328 329 324 320 320 326 326 332 334 336 334 336 330 337 337 335 333 333 335 336 338 338 338 338 339
349 352 352 356 354 353 352 351 353 350 351 349 347 342 342 340 336 335 334 328 327 323 319 325 330 330 333 336 339 335 330 336 337 335 333 332 333 334 335 336 337 337 337
343 348 352 353 355 353 352 350 351 354 350 350 349 346 343 341 339 334 332 331 327 325 321 321 328 329 331 332 334 332 331 329 330 334 333 332 331 332 334 334 334 335 335
349 344 352 352 354 354 353 352 351 354 354 350 350 347 347 346 340 336 333 333 329 328 323 320 324 332 331 332 332 334 333 335 333 334 333 331 330 330 330 331 331 331 330
349 350 353 352 353 354 354 355 353 352 352 353 352 350 349 346 344 340 334 335 334 330 329 324 323 330 331 331 330 331 331 333 336 338 332 331 330 330 329 328 326 324 323
347 350 354 355 355 355 354 354 355 354 352 352 353 352 350 347 346 342 336 335 334 333 329 329 326 329 331 333 331 329 330 333 331 337 338 334 333 333 331 326 326 324 320
355 350 353 355 356 356 357 355 354 353 354 353 352 354 353 350 345 343 343 339 333 333 330 327 326 325 325 330 331 330 331 333 335 333 332 330 329 329 331 329 331 330 324
351 355 353 355 354 357 344 341 352 354 354 352 351 352 353 349 345 338 337 338 339 335 333 332 332 329 330 327 332 333 332 326 326 333 332 333 328 327 329 329 330 328 325
352 349 352 355 354 356 337 336 341 355 354 354 353 353 353 354 347 352 337 334 335 334 336 335 331 332 330 331 331 330 332 329 330 331 332 331 330 329 331 331 327 326 324
355 354 351 353 354 355 335 332 337 353 355 354 354 354 354 353 352 352 353 347 343 343 339 339 338 336 335 335 333 334 334 334 331 331 331 328 328 328 329 330 327 327 323
354 355 356 355 352 354 332 329 333 350 353 355 356 355 356 355 344 332 351 350 349 347 340 330 332 331 326 326 332 332 331 330 328 330 332 329 328 329 326 325 324 325 321
355 356 356 358 350 356 332 326 331 353 352 353 356 356 338 349 333 327 345 350 349 350 349 348 339 333 328 329 329 338 336 331 331 328 333 330 327 327 321 319 321 322 321

GFSMA_sfc_thetae_045.txt.gz
Theta_e
343 345 346 346 346 346 344 345 343 344 342 338 341 346 344 343 346 349 351 358 358 358 353 351 351 352 352 353 353 353 353 351 351 351 350 351 350 349 347 348 349 348 349
345 345 345 344 344 345 344 343 345 344 340 338 337 344 340 343 346 349 350 353 360 359 357 354 352 350 351 350 350 349 350 351 352 351 350 351 351 351 351 351 351 350 351
347 347 345 345 344 345 344 341 339 341 336 336 336 338 339 340 344 347 348 348 354 358 357 356 355 354 355 354 353 352 351 348 348 349 350 350 351 351 352 352 351 352 352
348 347 347 346 346 346 346 346 343 337 337 335 333 335 336 338 340 344 345 346 349 353 358 358 357 356 356 355 355 355 354 354 353 355 354 353 353 352 352 353 352 352 351
351 347 348 348 347 346 345 348 343 339 339 337 333 332 334 336 337 342 342 344 345 347 350 355 357 357 356 354 353 353 354 356 355 354 354 354 353 353 353 352 352 351 351
352 346 346 346 346 346 344 342 341 337 336 335 335 332 332 335 337 338 338 342 342 344 345 347 347 349 354 355 357 354 353 353 354 353 353 353 353 351 351 350 349 349 349
352 349 346 346 348 343 344 340 339 333 330 329 328 326 326 329 333 336 338 339 340 340 341 344 345 345 346 355 355 355 352 351 351 351 351 352 351 351 350 349 348 347 347
351 350 348 347 347 345 344 343 339 336 330 329 326 320 318 322 328 331 337 340 338 339 340 342 342 342 343 344 344 353 354 353 353 351 350 349 347 345 343 343 342 340 339
352 351 349 347 347 345 344 343 341 336 325 330 331 325 318 316 321 327 330 336 337 336 337 339 340 341 342 341 346 349 355 354 352 349 344 341 340 339 338 339 340 339 340
351 352 350 347 347 345 342 344 344 340 326 327 328 336 330 324 318 320 324 327 331 334 334 337 339 340 342 340 345 348 352 351 352 343 340 339 338 338 337 337 338 339 340
350 352 350 348 348 347 345 345 343 341 327 326 324 329 328 329 323 318 316 322 328 329 329 334 339 339 339 339 338 342 350 349 345 346 345 342 340 339 339 338 338 339 339
348 350 351 348 347 348 347 345 345 343 338 331 327 328 326 326 325 322 320 320 322 325 328 333 336 339 338 336 340 344 348 347 343 344 344 345 345 342 341 341 342 341 341
342 347 349 348 347 348 349 346 345 345 342 337 333 332 327 325 326 324 323 322 322 324 327 328 333 337 340 335 334 344 346 344 341 340 341 342 344 346 347 346 343 342 341
344 347 350 350 349 350 349 347 346 347 343 343 340 333 334 331 330 328 326 324 319 320 323 326 329 332 336 335 336 342 335 340 339 337 336 338 340 341 343 344 344 344 341
345 345 348 352 351 350 350 348 346 346 348 343 342 341 335 333 335 331 325 326 322 317 319 325 326 330 333 335 337 335 335 335 338 336 334 334 335 337 339 340 339 339 339
345 346 347 349 350 351 350 349 347 346 347 347 343 340 340 338 334 333 332 327 324 321 318 323 326 327 331 334 337 336 335 337 337 336 334 332 333 335 336 336 337 337 337
344 347 347 350 350 350 350 349 350 350 347 347 347 344 341 339 338 334 331 330 326 323 319 321 325 327 328 329 333 337 334 331 330 334 334 332 331 332 333 334 334 334 335
341 345 347 348 351 351 350 349 348 351 350 347 348 347 346 345 338 335 332 330 329 326 323 320 321 327 327 329 331 333 334 333 329 332 333 331 330 330 329 329 329 330 331
344 343 346 348 350 352 351 350 350 349 350 351 350 349 349 345 343 340 335 332 330 329 325 322 321 325 329 329 328 330 330 329 331 335 331 330 330 330 328 326 326 325 324
345 346 346 348 350 351 352 352 352 350 350 351 352 351 351 348 347 346 340 337 333 330 328 326 325 324 328 330 328 326 326 328 330 334 337 334 333 332 330 326 326 326 321
349 348 348 350 351 351 352 352 352 351 350 349 350 351 352 351 346 346 347 343 335 333 331 329 328 324 325 327 327 327 328 330 329 331 331 331 332 331 331 331 333 331 324
352 349 347 348 350 353 342 340 349 351 351 350 349 350 351 348 346 339 338 340 342 339 336 333 333 330 329 329 330 331 329 323 323 331 332 331 331 331 331 330 331 329 325
348 350 350 349 349 351 336 336 340 352 351 350 350 350 350 352 346 351 339 336 336 334 339 343 335 336 333 333 331 329 331 330 329 329 333 330 330 331 334 331 327 326 324
348 348 348 351 351 352 335 332 337 351 353 352 352 352 351 351 351 349 350 348 343 344 341 339 344 345 342 339 333 333 332 332 332 328 332 328 329 331 334 331 327 326 323
351 350 350 348 347 350 330 330 333 348 351 352 353 353 353 352 342 332 348 348 349 350 339 331 332 333 331 328 333 332 328 327 327 330 331 332 329 328 326 328 331 328 323
352 354 353 354 345 349 331 326 331 350 350 351 353 354 337 347 333 327 344 348 347 349 351 351 345 335 331 335 325 334 338 330 329 326 332 330 329 326 323 324 327 327 326

GFSMA_sfc_thetae_048.txt.gz
Theta_e
347 350 349 348 350 350 348 349 350 349 346 343 348 349 349 347 349 351 354 355 358 355 350 352 353 352 352 352 351 351 351 351 350 350 350 351 350 349 349 350 351 350 350
347 348 347 349 348 350 348 349 351 347 344 342 345 349 347 347 350 352 354 358 358 358 352 350 350 350 350 351 350 349 351 351 351 352 351 351 351 352 351 352 352 352 352
347 350 350 349 348 350 349 348 344 345 342 341 344 346 345 348 349 351 354 355 357 356 356 355 354 352 351 351 351 351 350 348 348 348 350 350 351 351 351 352 352 351 352
347 351 351 351 349 350 350 350 349 343 342 341 341 342 343 345 348 350 351 352 355 357 357 355 354 355 355 355 356 354 353 353 353 353 353 352 352 352 352 352 351 351 351
351 351 351 352 352 352 351 351 348 345 343 341 338 339 340 341 343 346 348 349 351 353 354 355 357 356 355 354 354 353 353 354 353 353 354 353 352 351 351 351 350 350 349
353 350 351 351 351 352 350 347 346 341 343 339 336 335 338 341 342 344 343 346 348 350 351 352 354 353 355 355 357 355 354 353 353 352 352 351 350 350 350 349 349 350 349
354 349 350 349 352 350 350 347 344 339 336 337 335 333 333 335 340 343 343 343 344 347 347 349 350 351 351 353 356 355 353 351 351 351 351 351 351 350 349 347 347 345 341
355 352 350 350 352 350 347 347 346 342 335 336 332 330 327 332 334 337 342 343 343 345 345 346 348 348 349 351 351 351 352 351 352 351 349 348 347 345 342 342 342 340 339
354 354 352 351 351 349 347 348 346 343 333 337 338 332 326 325 328 333 337 341 343 343 344 345 345 346 347 350 349 351 354 354 352 349 345 342 340 338 337 338 340 339 339
352 354 353 351 351 349 349 350 348 344 336 336 336 340 335 332 328 330 333 335 339 341 342 343 344 345 347 348 346 348 350 351 352 345 339 338 337 337 336 336 338 340 340
351 354 353 352 351 351 350 350 349 346 336 335 335 337 336 334 329 328 328 331 335 338 340 341 343 345 346 347 346 344 348 350 349 346 345 341 339 338 338 338 338 338 339
349 352 354 352 352 353 351 349 350 347 342 337 335 337 336 336 333 329 327 328 330 335 336 337 340 343 346 346 345 345 346 348 346 343 344 345 345 342 341 341 341 341 342
346 349 352 351 351 352 353 352 350 350 347 342 338 337 336 335 335 333 332 330 329 332 335 336 338 342 344 346 345 347 347 344 344 340 340 342 344 346 347 347 345 344 343
346 350 351 353 352 353 353 352 350 350 350 348 346 340 340 336 336 336 335 333 330 329 332 338 338 338 343 346 346 344 344 341 340 337 337 338 340 341 343 345 346 346 344
346 349 351 352 353 353 353 352 350 350 352 349 349 348 342 340 339 337 334 335 333 328 329 336 335 339 340 343 346 346 345 340 338 337 335 334 336 338 339 340 340 340 340
346 348 348 351 353 353 353 353 352 351 351 352 349 347 347 345 341 340 338 335 332 333 329 332 336 338 339 338 342 345 343 340 337 336 334 333 334 335 336 337 337 337 337
345 347 348 349 350 352 353 353 353 352 350 351 352 349 347 347 346 342 339 338 334 331 330 334 331 338 339 339 341 343 343 342 341 334 334 333 332 332 334 334 334 334 335
345 348 349 349 351 351 353 352 352 354 351 350 351 351 351 349 347 346 342 340 337 335 333 333 335 335 337 340 341 340 340 339 340 336 332 332 331 330 330 330 330 330 330
344 346 348 349 350 352 353 352 353 352 354 354 353 352 352 352 351 348 346 342 339 337 334 331 334 333 336 338 338 338 339 341 340 337 331 330 330 330 328 326 325 324 323
347 346 347 349 350 352 353 354 353 352 352 353 355 354 354 353 352 352 349 348 347 341 337 334 334 333 334 339 337 336 335 336 337 338 337 334 333 332 330 326 326 324 320
346 348 347 348 350 351 352 353 354 353 352 352 353 354 355 353 347 349 352 351 349 345 344 340 338 338 334 335 334 338 334 338 339 339 338 338 339 338 339 331 334 331 324
350 349 348 349 348 349 340 338 349 353 353 352 351 353 354 349 347 339 338 340 348 347 345 342 341 340 341 340 339 336 335 334 332 337 336 336 339 338 339 340 335 331 326
351 350 349 349 349 351 335 335 339 353 353 353 353 353 353 353 348 354 341 336 337 335 340 350 345 344 343 346 344 339 336 337 336 341 338 334 340 336 340 337 330 328 325
347 350 351 350 349 349 333 331 336 351 353 354 354 354 354 354 354 353 353 353 351 350 346 344 348 351 353 354 351 345 342 340 340 341 341 332 339 336 339 340 328 327 324
348 348 349 351 351 351 329 328 333 350 351 353 355 356 355 354 342 331 352 352 352 353 341 332 333 333 331 329 336 346 337 330 331 336 339 334 338 336 340 338 338 326 323
351 351 350 351 344 351 331 325 331 350 349 351 354 355 337 347 332 326 349 352 350 353 355 356 354 340 334 339 329 337 342 338 335 333 340 331 333 332 328 335 336 332 327

GFSMA_sfc_thetae_051.txt.gz
Theta_e
358 358 358 357 359 361 359 359 359 355 356 355 354 355 355 356 354 352 353 355 354 351 351 354 354 353 353 352 351 351 351 350 350 350 351 351 350 350 351 352 352 351 351
358 359 360 359 359 360 359 361 359 353 353 352 355 355 355 355 354 353 353 354 353 354 350 348 349 349 350 351 351 350 351 351 351 352 350 349 350 351 351 351 352 351 351
358 361 359 358 357 359 360 359 356 353 350 351 356 355 355 355 352 353 355 357 356 354 354 351 350 350 350 350 350 350 349 348 347 348 349 352 352 352 352 352 352 351 350
359 362 359 358 359 359 360 357 353 349 349 349 351 352 354 354 352 353 355 357 359 356 355 354 353 355 354 355 354 354 353 353 353 353 353 352 351 351 351 351 352 351 350
358 362 363 361 361 360 358 358 356 352 348 347 348 350 351 349 350 350 353 355 356 355 357 356 356 355 354 353 353 352 353 353 353 352 352 353 352 351 350 350 349 350 350
359 361 364 362 360 361 358 356 357 348 353 350 343 346 349 351 351 353 352 351 354 355 356 357 357 355 353 354 355 355 354 353 353 352 352 351 350 349 350 350 350 349 347
361 362 361 362 360 365 363 356 352 350 344 347 343 343 339 342 349 351 354 353 351 353 354 355 355 354 353 351 353 353 352 351 351 352 350 350 351 350 349 347 345 341 339
363 362 361 359 362 361 359 358 356 345 345 346 343 341 336 339 345 347 351 351 353 354 354 352 354 355 354 354 352 350 350 350 352 350 349 348 346 345 341 339 340 339 338
363 365 363 360 363 367 356 359 356 352 341 347 347 342 333 331 339 345 346 349 352 351 353 353 351 353 355 355 351 349 351 354 351 349 345 343 339 337 336 336 336 337 337
362 364 365 363 362 362 362 359 358 355 349 344 346 349 345 343 335 333 343 345 349 349 350 351 350 351 353 352 349 348 349 351 351 347 339 337 337 337 336 336 336 336 336
362 361 364 363 361 360 363 361 361 359 350 346 344 347 349 344 343 338 334 339 344 346 349 349 348 349 353 353 351 349 348 350 350 348 344 341 339 338 338 338 338 339 340
357 361 362 363 363 362 362 361 362 361 355 348 346 348 345 344 340 338 336 340 338 344 346 348 348 348 350 352 354 351 347 347 348 346 345 346 345 342 342 342 342 342 343
354 358 362 362 361 364 363 363 363 360 358 353 351 343 346 346 347 345 340 339 337 344 344 345 347 349 348 351 352 351 350 345 345 343 341 343 345 347 347 347 345 345 344
352 360 361 362 363 363 363 364 361 360 360 357 357 353 347 346 345 344 341 339 336 340 344 346 348 348 348 350 353 350 350 343 341 340 338 338 340 342 344 346 348 348 347
351 357 360 361 362 363 363 364 359 361 362 361 360 360 354 351 349 346 344 343 339 333 334 342 343 352 350 350 352 353 354 346 340 338 336 335 336 338 340 341 342 342 342
355 354 359 360 361 362 363 364 360 362 362 360 358 360 360 356 353 351 348 346 344 340 335 343 343 347 350 347 350 351 352 346 341 337 336 334 334 336 337 338 338 338 339
356 357 359 359 360 360 362 362 362 361 361 362 361 360 361 362 355 353 351 349 346 344 339 341 345 348 351 352 351 351 351 352 349 337 335 334 333 333 334 335 335 336 336
356 357 359 359 359 359 360 360 359 358 360 360 361 361 359 358 360 360 354 355 351 351 344 347 348 346 351 355 354 353 350 346 348 341 335 333 332 331 331 331 331 331 331
357 355 356 358 359 359 359 360 360 360 360 360 362 362 361 361 360 358 359 356 355 353 350 344 344 347 347 347 349 353 351 353 349 343 334 331 331 330 329 327 326 325 324
357 357 357 358 359 359 359 360 359 360 360 360 362 363 362 362 361 362 360 360 359 357 356 351 349 348 349 354 348 344 343 347 346 346 342 338 337 333 330 327 326 325 321
359 359 358 357 358 357 355 358 359 359 360 360 361 362 363 360 350 353 359 364 362 356 353 350 348 347 347 347 348 348 346 347 351 350 347 347 347 345 342 331 334 330 325
359 360 358 357 357 354 340 338 353 358 361 360 359 361 363 353 352 340 339 341 353 361 356 353 351 350 358 355 354 352 350 347 346 356 350 345 347 345 346 346 338 331 326
358 359 357 357 358 360 334 334 340 357 359 360 361 361 359 357 354 361 345 337 337 335 340 359 359 359 360 363 363 357 358 354 351 353 353 347 350 347 348 348 332 330 327
359 357 357 360 359 359 333 330 334 355 360 363 363 363 363 363 362 360 361 360 361 363 358 353 356 360 364 366 366 363 362 356 353 353 355 343 350 350 353 352 334 329 327
356 357 358 359 359 360 330 328 335 355 356 361 362 363 364 363 347 333 359 359 362 362 347 335 337 336 333 330 338 353 347 345 341 345 353 348 349 347 350 351 350 329 326
357 354 355 359 350 360 333 325 332 353 355 353 361 364 338 351 333 327 356 358 358 358 360 362 364 347 336 348 331 340 346 341 345 344 357 349 348 348 340 347 349 349 344

GFSMA_sfc_thetae_054.txt.gz
Theta_e
358 356 359 361 359 359 356 357 356 356 358 355 355 355 353 353 351 350 352 355 353 351 354 355 354 354 353 352 351 351 351 351 352 352 352 352 352 351 351 351 352 352 352
360 358 361 360 359 358 357 357 357 353 351 351 355 355 354 353 353 355 352 353 355 351 349 349 349 350 350 351 351 350 351 351 351 350 349 348 349 351 350 350 350 351 350
364 364 359 364 359 362 362 359 356 355 347 348 354 355 354 353 353 354 356 354 354 356 353 350 349 349 349 350 349 349 350 348 348 348 350 353 352 351 351 351 351 351 352
365 364 362 357 360 357 353 352 350 347 346 347 349 351 352 351 353 354 355 354 354 354 354 354 353 354 353 352 352 352 353 353 353 354 352 352 352 351 351 351 350 350 349
363 360 357 358 364 354 353 349 348 347 345 343 346 349 351 349 352 349 352 356 354 354 352 356 355 354 353 353 353 352 352 352 353 353 352 352 352 351 350 349 350 350 350
363 360 360 360 360 353 351 351 352 354 348 347 341 345 348 350 353 351 349 349 350 354 353 356 355 354 355 353 354 355 353 353 352 352 351 350 350 350 350 350 349 348 343
364 363 359 359 357 356 358 360 354 354 347 350 342 343 347 350 349 352 353 351 349 352 353 354 353 352 353 354 353 352 351 351 351 351 350 350 350 349 348 347 343 338 338
366 364 365 360 358 353 358 358 357 348 347 348 342 340 335 337 343 346 350 351 351 353 352 350 352 355 352 351 351 350 349 349 352 350 348 347 346 344 340 338 338 338 338
365 367 366 365 361 359 352 356 359 354 343 348 352 341 332 332 338 344 347 348 352 349 353 352 352 352 354 353 350 350 349 353 351 349 345 342 340 337 335 336 336 336 336
365 366 367 366 363 361 361 356 358 356 353 344 347 346 351 347 334 335 342 345 348 347 350 350 349 350 352 351 350 348 350 352 351 348 342 339 338 337 337 337 337 337 338
366 364 367 367 366 359 361 362 362 360 352 348 343 345 349 343 347 337 335 339 344 346 347 348 348 349 352 351 351 352 349 351 352 351 345 342 340 339 339 339 340 340 340
361 366 365 367 367 362 361 361 362 362 359 355 348 349 343 341 341 340 337 341 339 345 347 347 348 348 349 351 355 352 349 348 349 349 347 347 347 343 342 343 343 343 343
353 361 366 367 363 367 365 370 365 364 364 356 356 345 347 346 348 346 342 339 340 346 345 347 347 349 347 349 351 352 351 346 345 344 343 344 346 347 348 348 347 346 346
353 360 364 365 366 365 365 366 362 360 364 359 360 357 346 346 347 346 343 341 337 341 344 349 349 349 350 351 354 352 351 344 342 340 340 339 341 343 345 347 348 349 350
353 357 360 363 364 365 366 366 360 363 363 363 361 361 357 351 350 348 347 345 340 335 337 346 342 355 352 351 354 354 355 346 342 340 337 337 337 338 340 342 343 344 345
360 358 359 360 360 363 365 367 362 364 364 360 359 362 362 354 353 352 349 348 346 342 337 341 344 349 352 351 351 355 355 349 342 339 337 335 335 336 337 338 339 340 341
361 362 360 359 358 362 364 365 364 362 364 364 363 361 364 366 357 352 352 350 348 347 341 342 344 351 358 358 356 357 355 356 352 339 338 336 334 334 334 335 335 336 337
362 362 362 360 359 360 364 364 362 359 360 361 363 363 362 359 365 364 355 360 355 357 346 353 352 346 357 362 359 359 355 353 351 343 337 335 334 333 332 331 331 331 332
362 361 361 361 360 360 362 364 363 362 360 361 362 363 363 363 362 359 359 356 355 356 357 352 350 351 351 354 357 363 362 360 354 347 337 334 333 332 330 329 327 326 325
362 362 362 362 361 360 359 361 362 362 361 361 363 363 364 365 365 365 364 364 364 360 359 354 350 349 349 356 353 350 351 353 352 353 348 341 340 336 332 328 327 327 323
363 363 363 363 362 359 355 360 360 360 361 361 362 364 365 362 351 356 363 370 372 362 354 350 348 348 348 348 352 352 352 354 358 359 356 357 357 355 351 332 337 332 327
366 365 362 362 361 357 340 338 351 357 360 361 361 363 365 356 354 342 340 341 351 365 367 356 352 351 365 361 357 355 354 353 352 362 360 357 360 357 358 357 343 334 328
365 366 362 362 364 363 334 333 338 356 356 360 365 362 360 357 356 364 345 339 340 337 339 359 361 362 364 368 371 369 364 362 361 365 365 357 361 358 362 360 338 331 327
365 364 363 366 366 365 333 330 335 357 360 363 364 364 366 365 363 359 361 361 362 364 361 357 360 362 363 366 369 367 367 363 363 363 366 351 359 357 360 361 341 333 327
363 363 363 365 365 367 330 329 336 356 356 362 363 366 367 367 349 335 361 362 364 362 346 333 337 337 335 333 341 358 355 354 354 357 363 357 359 358 361 360 361 337 327
364 361 362 365 353 366 334 326 335 356 357 354 364 368 340 353 335 328 361 360 360 358 358 361 362 354 337 347 332 352 358 351 352 350 363 358 357 355 346 355 354 355 353

GFSMA_sfc_thetae_057.txt.gz
Theta_e
355 358 359 354 353 354 351 352 357 357 352 352 354 354 348 349 347 350 350 354 353 355 357 357 354 354 353 352 351 351 351 351 352 352 352 350 350 350 351 351 351 351 351
359 360 358 356 361 360 359 358 360 354 354 350 353 354 351 350 353 353 350 354 354 351 351 351 351 350 350 351 349 350 348 349 349 348 347 349 351 352 352 352 352 352 351
362 363 356 357 360 359 360 356 352 349 345 350 352 355 349 354 351 354 355 353 355 355 353 352 351 350 350 350 350 350 350 349 348 348 351 353 352 351 352 351 352 352 351
364 364 359 357 355 359 354 349 351 352 345 351 349 351 351 350 351 352 353 356 355 355 355 356 355 354 353 353 353 353 354 352 353 353 353 353 353 352 352 351 350 350 350
362 361 358 358 362 356 353 354 357 351 343 345 346 348 352 347 353 345 349 353 352 353 356 358 357 355 354 354 354 354 352 353 353 353 352 352 352 351 349 349 350 351 348
361 362 361 359 360 357 350 357 352 355 348 346 340 344 349 347 347 347 345 346 347 349 354 356 355 353 357 354 354 355 354 353 352 352 351 350 349 349 350 350 348 344 338
362 364 361 359 360 359 350 356 348 351 343 345 340 341 342 344 346 345 345 346 346 347 347 349 352 355 354 358 353 353 352 351 351 351 349 349 349 349 348 346 341 338 337
364 362 361 359 361 358 359 357 357 347 346 347 344 342 336 338 341 344 344 344 346 348 347 347 349 350 349 353 357 352 350 349 352 351 348 347 347 345 342 339 338 338 338
363 365 363 365 362 363 354 358 357 363 347 344 352 347 334 332 338 341 344 345 348 348 348 349 348 349 351 351 349 351 352 352 352 349 346 344 343 338 336 337 338 338 339
363 363 365 363 366 362 366 360 358 360 359 345 343 343 354 346 339 338 342 343 346 346 349 348 349 349 351 351 350 353 352 355 353 350 345 341 339 339 338 338 339 339 339
365 361 366 364 364 359 363 361 361 363 354 353 343 342 349 341 350 343 336 338 343 345 346 349 347 348 353 351 351 351 351 351 352 354 350 346 342 340 340 340 341 341 341
360 365 364 369 366 364 363 362 364 362 365 358 353 349 343 342 341 338 335 341 338 342 344 346 347 347 348 351 354 351 349 349 349 350 350 349 348 346 343 343 343 343 344
351 367 371 368 364 367 365 364 366 364 362 357 361 346 346 345 345 343 340 338 339 343 344 346 347 348 347 349 351 354 350 346 345 345 345 346 347 348 348 348 348 347 346
352 371 366 365 366 366 365 368 361 360 367 359 361 363 348 346 346 345 343 342 339 341 345 349 348 349 350 351 355 351 351 343 342 340 340 341 342 344 345 347 348 349 350
354 357 364 364 364 364 367 370 359 366 365 364 364 363 356 349 349 347 347 345 341 336 339 350 341 356 350 350 353 356 359 348 342 339 337 338 338 339 341 342 344 344 346
367 361 362 361 363 366 366 372 365 366 368 361 357 368 365 354 354 351 349 348 346 342 337 343 344 353 354 350 353 355 354 349 343 340 338 335 336 337 337 338 339 340 341
370 368 367 364 363 363 366 372 370 366 364 367 366 363 367 371 357 353 351 349 347 346 340 343 345 355 367 366 362 362 358 361 354 340 338 337 335 335 336 335 335 336 337
368 370 368 367 363 362 367 369 363 362 363 362 364 367 361 358 369 369 358 368 357 361 347 355 353 351 361 365 366 367 357 356 357 348 337 336 334 333 333 333 332 331 331
370 364 368 369 366 363 367 368 369 366 364 364 364 366 365 367 369 361 366 357 353 357 357 352 352 355 356 356 360 366 366 365 359 350 341 336 334 333 332 330 329 327 325
370 369 370 370 368 365 365 364 366 367 367 364 366 367 366 367 369 371 366 370 366 362 357 353 353 353 355 363 357 353 354 358 358 357 352 346 344 337 334 329 328 328 323
369 371 371 370 370 364 358 364 366 366 368 365 366 367 367 364 352 359 362 368 368 363 356 355 352 351 350 351 355 355 354 358 364 361 359 362 362 364 361 334 337 333 328
370 371 369 370 368 359 343 339 356 362 366 366 366 368 369 356 355 342 341 342 351 365 367 357 353 351 360 360 359 357 358 355 354 363 366 366 369 366 367 367 347 334 328
370 370 370 369 369 370 336 334 339 360 363 365 367 368 364 357 358 368 347 341 342 338 341 360 359 360 361 365 368 366 360 361 362 366 364 360 364 362 367 363 343 337 328
369 370 370 371 371 369 336 329 335 360 360 364 367 368 369 368 368 365 368 366 366 367 365 358 360 363 368 370 370 367 366 365 367 366 367 356 364 362 368 368 343 337 332
369 369 370 371 371 371 333 329 335 358 358 363 365 366 368 370 351 336 364 364 366 367 348 332 336 338 336 333 341 353 354 357 356 357 365 362 362 360 359 358 360 339 332
369 366 368 372 360 373 335 326 335 357 358 356 365 367 340 353 337 329 363 364 362 365 365 364 365 356 339 350 331 352 362 355 356 355 365 358 357 354 348 357 358 361 358

GFSMA_sfc_thetae_060.txt.gz
Theta_e
353 352 354 352 352 356 351 351 352 355 349 351 354 351 348 350 345 347 352 360 361 360 358 355 355 354 354 351 351 351 350 351 351 351 349 348 349 352 352 351 352 352 352
356 356 354 354 348 353 359 358 352 354 345 351 347 352 348 352 349 348 348 352 357 358 359 354 353 351 351 350 349 351 348 348 348 348 348 351 353 352 352 352 352 353 352
361 365 355 363 362 347 363 354 357 353 351 350 351 350 355 353 351 353 348 350 353 357 356 355 353 352 351 350 349 349 350 350 349 350 352 354 353 353 352 352 352 351 351
367 355 353 348 356 364 346 346 354 347 349 346 349 345 348 352 353 354 355 352 353 351 356 357 356 355 352 353 353 354 354 354 353 353 353 353 352 353 352 351 350 350 350
369 352 348 352 366 353 358 350 356 354 340 349 343 346 349 350 346 349 354 356 356 351 352 358 359 359 355 354 354 355 354 354 356 355 353 352 352 351 350 349 350 349 344
367 365 362 367 368 350 355 358 348 353 350 343 340 342 342 350 349 351 347 351 353 355 354 352 354 353 358 357 357 356 355 354 354 352 351 350 349 349 349 349 347 342 339
368 371 367 364 360 346 354 359 356 349 346 348 344 346 346 346 345 350 348 347 347 351 353 355 353 353 351 359 357 357 356 352 354 351 350 348 349 349 349 347 344 341 338
368 368 367 366 356 354 359 359 347 347 354 351 346 342 336 339 345 337 348 346 347 346 347 349 352 353 354 351 353 356 354 354 351 351 349 348 347 347 346 344 342 341 341
366 370 369 369 367 363 361 360 353 358 351 347 352 345 337 329 339 345 344 347 348 343 349 350 350 350 350 353 356 354 353 351 354 351 349 347 347 345 342 342 342 342 343
367 368 369 370 370 356 364 363 362 359 345 349 351 349 349 345 336 333 346 347 347 346 348 352 348 349 352 352 354 353 351 350 355 354 350 347 347 345 343 343 344 344 344
369 365 367 369 365 366 367 366 363 363 361 349 352 348 350 349 350 340 334 341 346 349 351 350 350 349 352 351 350 350 349 350 353 354 353 350 348 342 341 342 344 345 345
365 369 367 369 371 366 363 366 367 366 364 363 354 355 346 343 343 343 339 340 341 344 348 350 348 348 352 352 356 354 349 348 349 350 351 351 350 348 344 344 344 344 344
357 364 369 367 366 371 369 367 368 367 367 364 363 358 349 342 342 350 343 345 340 346 345 348 351 351 350 353 353 351 350 346 345 344 345 347 347 348 349 349 349 349 348
356 364 367 365 367 368 367 367 366 365 365 364 364 364 358 355 351 350 348 346 340 345 350 347 352 353 353 353 358 352 348 343 341 340 340 341 343 344 345 346 347 348 349
362 363 365 368 366 368 367 366 362 363 363 366 363 366 363 357 353 351 352 351 347 338 339 350 348 355 352 355 357 351 351 346 340 339 337 337 338 340 341 341 343 343 344
364 365 366 365 366 369 369 368 364 365 363 361 362 362 363 358 357 358 354 355 353 346 340 347 351 355 354 349 357 357 356 351 343 339 337 335 335 337 338 338 338 339 340
372 367 370 366 365 365 368 367 365 365 363 363 366 365 362 363 362 361 360 355 352 353 345 347 354 354 359 359 357 358 360 357 355 340 338 336 335 335 336 336 336 336 336
364 369 367 370 365 365 365 365 363 358 362 362 364 363 364 363 366 365 361 360 360 362 354 348 352 350 351 355 360 361 361 356 353 350 339 335 334 334 333 333 333 333 332
366 363 367 364 365 363 363 364 365 362 362 364 364 363 362 364 363 364 364 359 356 357 355 352 349 357 358 358 355 359 361 360 359 352 343 338 335 333 332 330 329 328 326
360 363 364 365 365 363 361 361 365 364 363 361 364 362 364 364 363 365 362 362 362 360 358 356 352 351 353 357 360 354 352 356 352 359 354 346 344 339 334 330 329 328 323
362 363 363 365 365 364 360 360 361 363 363 362 362 364 364 362 353 357 362 363 363 361 358 356 353 354 351 351 351 353 353 356 356 359 357 361 363 363 361 342 338 335 328
361 363 363 363 364 363 346 341 354 359 363 362 361 362 366 353 351 343 340 342 352 360 356 357 356 353 352 354 356 353 353 351 347 360 363 358 363 362 363 363 350 337 331
362 362 362 364 363 365 338 335 342 358 358 361 362 362 361 359 353 362 346 339 339 338 341 354 352 353 352 354 356 357 356 355 354 358 359 356 362 360 363 363 338 336 333
361 362 362 363 364 364 339 331 336 354 357 360 360 362 362 361 360 362 362 361 359 359 356 351 351 355 357 360 362 361 360 359 356 359 363 353 359 358 363 359 341 339 332
361 361 363 363 363 364 335 332 333 350 353 355 357 361 364 362 348 338 355 356 358 361 348 338 340 340 339 336 343 355 351 346 348 355 362 356 357 356 354 352 356 339 330
361 362 362 364 355 364 336 329 333 354 352 353 357 359 338 349 336 328 354 358 355 356 359 360 361 351 333 342 329 339 349 351 355 352 362 353 353 350 344 353 347 349 349

GFSMA_sfc_thetae_063.txt.gz
Theta_e
344 347 350 347 347 350 349 345 347 347 344 345 347 345 343 344 347 350 350 360 361 359 357 357 355 356 354 352 350 350 350 351 351 351 348 348 351 353 353 352 352 353 352
346 348 348 349 347 346 348 344 347 350 346 345 343 346 342 342 344 347 349 354 361 361 358 354 355 353 352 350 352 352 348 347 346 347 348 351 353 352 351 352 352 351 351
345 350 350 348 347 350 353 345 349 345 343 344 344 344 346 343 343 345 345 346 352 360 358 355 355 354 351 351 350 349 349 351 351 351 353 354 352 352 352 351 351 350 350
350 349 344 348 348 350 344 340 346 342 345 342 343 345 345 346 346 345 346 347 347 347 356 357 357 356 353 353 354 354 354 356 354 354 354 353 352 352 351 349 349 349 347
352 346 342 346 352 344 343 345 342 344 337 338 340 339 340 345 347 347 347 348 347 347 347 356 357 357 354 355 354 354 354 356 356 356 356 354 352 351 349 349 349 347 339
353 350 348 342 349 345 344 348 338 341 340 339 341 340 339 341 342 343 346 351 349 347 347 348 352 353 359 357 358 358 356 357 356 355 354 352 350 349 349 349 347 341 338
357 351 352 351 349 341 342 349 343 342 338 340 336 338 337 339 341 341 341 343 346 348 348 345 348 347 350 358 358 358 356 354 354 353 351 351 349 350 350 349 346 341 340
356 354 349 351 350 345 344 343 343 336 343 338 335 334 329 329 336 334 339 339 338 347 348 349 348 347 344 347 351 357 357 356 352 352 351 350 349 349 349 347 343 342 342
356 357 353 352 347 350 348 345 345 347 339 340 336 336 330 325 332 336 332 336 335 340 339 341 348 345 346 345 350 354 355 351 354 352 351 350 350 350 347 345 343 343 343
356 357 356 354 351 347 349 347 350 346 339 335 340 338 338 334 329 324 334 337 336 339 339 340 341 340 342 346 354 351 352 349 351 355 353 351 350 348 345 345 344 344 344
356 356 355 356 353 349 350 350 347 350 348 345 340 336 336 333 338 330 325 332 336 337 339 341 340 341 341 343 342 347 350 349 348 354 355 354 352 346 343 343 345 345 344
355 359 356 355 353 353 351 351 353 349 347 349 347 344 333 331 332 332 330 330 330 334 339 340 338 342 343 342 349 351 352 347 347 349 350 351 352 351 346 345 344 344 344
352 354 355 356 355 352 354 354 351 353 350 349 348 345 344 342 334 340 334 332 330 333 333 338 341 338 344 344 345 351 352 345 344 343 344 346 348 350 350 350 350 350 350
352 353 356 355 354 357 354 354 352 353 350 353 348 349 347 346 344 335 334 332 328 332 337 333 341 341 340 343 348 351 344 342 340 339 339 341 342 344 345 347 347 348 349
352 354 359 355 355 356 355 354 351 353 352 352 350 350 350 347 345 343 337 336 333 326 328 338 339 343 342 344 346 347 342 343 340 339 336 336 337 339 341 342 342 343 344
351 354 358 356 357 356 354 354 349 353 351 349 349 350 348 347 345 350 342 340 339 333 328 336 337 341 347 347 349 347 344 347 344 339 337 335 335 337 338 339 339 339 340
353 357 357 357 357 356 356 355 351 353 351 350 350 351 350 350 346 349 353 349 340 339 333 335 342 344 343 344 346 348 348 347 347 341 338 336 335 335 336 336 336 337 337
350 356 358 357 355 354 356 355 352 351 352 351 351 351 352 355 350 349 351 348 348 348 343 335 340 340 341 345 345 346 351 356 351 348 341 338 335 333 333 332 332 332 332
347 356 355 356 355 355 354 355 355 353 351 353 353 353 350 352 351 354 351 349 347 347 347 343 341 346 349 349 348 347 349 353 356 351 341 339 337 335 332 330 328 326 324
356 351 357 355 356 354 353 354 355 355 353 353 356 354 355 353 352 352 353 351 351 350 348 346 345 344 345 349 348 347 344 345 348 356 351 347 344 344 340 332 329 329 323
350 355 353 357 356 356 355 352 354 356 355 353 352 354 355 354 351 352 356 354 353 351 350 348 346 346 345 344 343 347 345 346 347 349 349 351 357 358 359 349 347 339 330
353 350 352 354 356 358 345 342 350 354 356 355 354 353 355 351 349 343 341 344 353 353 350 348 346 345 344 344 346 345 345 343 341 351 353 354 356 358 360 359 343 336 331
348 353 353 354 354 357 339 337 342 352 351 355 355 354 354 357 349 354 343 338 338 336 340 349 345 346 345 349 347 346 347 348 348 353 350 349 356 353 357 359 341 334 330
347 348 352 355 355 357 338 333 338 349 351 352 356 355 354 354 351 350 351 352 350 348 345 344 344 349 351 353 351 352 351 351 354 354 349 348 354 351 355 354 339 333 326
352 351 354 355 355 357 334 332 332 343 348 350 352 353 355 355 344 336 348 350 352 354 347 335 336 336 335 334 340 346 348 347 345 344 353 351 349 349 348 345 343 333 326
352 355 353 356 350 356 335 329 331 348 343 346 349 350 337 349 337 332 347 349 345 346 347 348 348 339 333 339 332 340 349 343 342 349 353 348 346 344 339 343 340 336 334

GFSMA_sfc_thetae_066.txt.gz
Theta_e
342 347 347 345 346 348 345 340 343 345 345 343 345 345 347 347 348 351 350 357 359 359 356 355 355 354 353 352 350 349 349 351 349 349 347 349 352 351 351 352 351 352 351
344 347 345 345 345 345 346 344 345 346 345 344 341 342 342 346 348 348 349 352 360 360 357 355 354 354 352 350 353 352 348 347 347 347 347 351 353 352 352 352 351 351 350
346 348 343 344 344 344 346 342 345 346 342 342 344 340 339 340 345 347 348 349 355 359 357 354 354 353 352 351 350 348 348 350 352 353 353 353 353 352 352 351 350 350 349
347 347 345 345 347 347 344 340 344 340 340 341 341 342 341 341 340 343 344 345 346 350 357 358 357 354 352 351 352 354 355 354 354 352 353 353 352 352 351 350 349 349 344
351 343 343 344 348 344 340 339 341 341 338 338 338 339 340 343 341 343 343 343 343 344 344 354 357 357 353 353 355 355 354 354 355 355 354 353 352 350 349 348 348 346 338
347 346 341 344 344 341 342 344 335 339 338 337 339 338 337 340 343 341 344 346 344 346 344 345 349 351 357 356 357 356 356 357 356 355 353 351 350 349 349 348 346 342 336
352 349 348 347 345 340 342 342 339 341 336 337 334 334 335 338 338 339 342 344 346 347 345 345 346 348 349 358 359 358 356 355 354 354 353 351 349 349 349 349 347 341 339
353 350 348 347 345 339 344 339 336 336 339 335 331 330 324 325 332 336 338 340 340 346 346 346 344 345 343 345 348 357 358 356 353 353 352 352 349 349 349 348 346 343 343
354 351 350 349 345 343 343 341 340 340 335 337 333 334 324 321 327 331 332 334 336 340 344 345 346 345 344 342 346 352 356 353 354 352 352 353 351 349 348 348 346 343 343
353 354 352 349 347 345 345 344 349 341 335 332 336 335 334 330 322 322 329 334 333 338 338 338 343 345 344 344 347 350 352 352 351 353 354 354 353 349 347 347 346 344 344
352 353 353 351 346 345 346 346 344 346 344 341 337 336 332 331 332 326 323 329 333 334 336 336 337 338 338 343 343 348 352 350 349 350 353 356 355 351 347 346 347 346 345
351 352 352 351 349 347 347 348 347 346 345 345 343 341 334 330 328 330 326 327 328 330 335 337 337 338 339 338 347 351 351 349 348 347 347 351 354 355 351 348 348 346 346
349 352 350 351 349 349 349 349 349 349 345 346 345 341 341 338 332 335 330 329 327 331 331 336 338 337 341 339 341 351 352 348 346 342 342 345 348 350 352 352 351 351 351
351 352 352 352 352 350 351 350 347 349 348 348 347 346 344 340 340 334 330 328 325 328 332 334 337 337 337 340 344 349 347 344 343 340 339 339 341 344 346 348 348 349 349
350 351 352 351 351 353 349 350 349 348 349 347 348 345 346 345 341 340 337 332 328 323 325 331 335 340 341 338 342 343 345 344 342 340 337 336 337 339 340 342 343 343 344
348 350 354 352 351 352 351 349 347 348 349 347 347 346 344 345 342 344 346 337 335 329 326 332 333 337 345 343 346 346 344 344 342 339 337 335 336 337 338 338 339 339 340
348 349 354 352 352 351 349 350 346 346 348 347 345 345 346 346 344 343 346 347 342 336 330 333 336 342 341 340 342 342 346 345 346 341 339 338 336 335 336 337 337 336 337
348 351 353 354 352 353 352 351 348 349 349 347 346 346 348 352 347 345 345 346 344 342 338 335 335 338 340 345 346 346 350 354 351 349 341 337 336 335 334 333 331 331 330
345 352 353 354 354 353 353 353 352 349 348 349 349 347 348 348 348 347 347 347 346 346 343 339 341 342 346 346 345 345 346 348 352 349 342 339 337 336 334 333 330 327 323
343 349 353 353 353 353 353 353 353 350 349 349 350 350 350 349 347 348 348 348 348 346 345 342 341 341 343 346 345 345 343 343 347 350 349 344 342 344 341 338 338 336 328
345 345 349 353 353 353 353 351 352 351 350 349 350 351 352 351 347 346 350 349 348 346 346 345 343 343 344 345 343 344 342 343 344 346 347 349 354 354 356 349 350 337 327
345 346 349 351 351 354 342 340 348 351 351 350 348 349 350 348 347 341 340 343 349 349 348 346 346 346 345 342 342 341 340 338 338 348 348 351 353 352 356 355 336 328 325
339 345 346 350 351 353 336 336 341 350 352 352 351 351 351 355 347 351 340 336 336 338 343 351 347 346 343 346 344 341 342 340 342 350 349 350 349 351 354 354 329 325 323
341 340 347 346 350 352 336 333 337 349 348 350 353 354 352 352 351 349 349 349 349 347 341 340 343 347 348 349 347 349 346 344 348 353 352 342 351 350 352 346 328 325 322
347 342 345 350 348 349 331 330 333 348 349 348 349 351 353 353 341 332 349 347 348 349 343 331 333 332 331 330 336 343 344 342 342 344 346 348 347 346 345 342 336 324 320
349 349 346 346 345 352 333 327 331 351 349 348 348 350 335 347 333 328 346 349 346 348 346 345 345 335 330 338 331 340 347 343 342 341 349 350 344 342 339 340 330 326 324

GFSMA_sfc_thetae_072.txt.gz
Theta_e
346 347 348 349 348 350 348 345 348 347 347 347 347 347 347 348 349 352 354 354 355 353 352 352 351 352 351 351 350 348 348 349 349 348 348 350 353 353 353 353 352 350 348
345 347 348 348 349 347 349 347 347 346 348 346 346 347 347 348 350 351 353 354 355 356 355 354 353 353 352 350 350 353 351 348 348 350 352 353 353 352 352 351 350 348 344
346 348 347 347 347 347 349 348 346 348 347 345 345 346 347 348 349 351 352 353 354 356 356 355 353 353 352 351 350 351 350 351 354 354 353 352 353 352 352 350 348 347 339
348 348 347 347 347 348 348 348 344 346 344 343 342 342 343 345 348 349 349 350 351 354 355 358 357 354 352 351 352 353 354 355 354 353 353 353 353 352 349 348 347 346 337
350 348 346 348 350 350 347 345 345 344 343 343 343 343 342 342 343 343 346 347 348 350 349 350 354 357 354 354 354 354 355 357 357 356 354 354 352 349 347 347 347 345 338
349 348 347 349 350 347 344 344 344 342 343 343 341 343 343 344 345 343 343 344 345 346 346 347 347 348 353 354 354 356 356 355 357 357 357 355 352 349 347 348 348 345 340
350 345 346 347 347 346 346 346 343 344 341 341 340 339 340 341 342 345 346 345 346 348 348 349 348 348 348 351 353 355 356 356 356 356 357 356 353 351 349 349 348 346 342
349 347 346 350 346 345 345 345 344 342 340 340 337 334 331 333 334 338 342 344 345 347 349 350 350 350 350 350 350 352 355 356 356 354 355 356 356 353 351 350 349 347 346
352 350 351 350 345 346 343 343 343 343 338 339 340 338 331 328 330 336 338 338 341 342 345 348 350 351 351 350 349 350 352 353 355 356 355 356 356 355 353 351 350 349 348
353 354 350 350 348 346 346 345 347 345 342 339 340 338 339 336 332 330 335 337 340 339 341 343 345 348 351 350 351 352 351 351 352 355 356 357 355 356 357 354 352 350 349
353 352 352 351 349 347 349 350 349 347 346 341 341 342 338 336 335 332 331 334 339 341 342 342 344 345 347 348 348 349 349 350 351 354 355 356 356 356 356 357 356 353 353
352 353 354 353 351 349 349 349 350 350 350 349 345 344 341 338 336 336 332 333 333 340 340 342 343 344 345 345 346 349 350 350 349 350 351 352 354 355 354 356 358 357 356
349 351 352 353 349 350 350 351 350 350 349 349 351 346 344 343 338 338 335 335 335 339 341 344 344 345 344 346 346 347 349 346 345 343 344 345 348 350 352 354 355 356 357
350 353 353 352 353 351 350 352 350 351 351 349 350 351 348 345 345 341 338 337 336 334 337 343 347 347 349 349 347 348 349 343 341 340 339 340 342 343 345 347 348 349 351
351 354 354 353 353 352 351 351 350 351 352 351 351 351 349 350 346 344 345 338 338 334 335 341 343 348 350 353 352 353 353 346 342 341 339 338 339 340 342 342 343 343 344
350 353 353 353 353 352 353 352 351 351 351 351 351 351 351 349 348 346 348 343 340 337 336 338 343 344 350 351 354 357 355 346 344 341 340 338 338 340 341 341 340 340 340
349 350 353 353 352 351 352 349 350 351 350 351 351 350 350 350 348 347 347 350 346 341 340 345 341 349 351 354 358 358 358 359 358 344 341 339 337 337 338 338 337 336 335
349 350 351 353 353 353 352 352 351 352 349 349 350 350 349 349 350 351 348 349 349 348 345 344 347 348 352 356 356 358 357 358 358 348 340 337 336 336 334 333 330 328 327
346 348 350 350 352 353 352 353 352 352 351 350 350 350 350 350 350 351 351 350 349 351 349 346 348 351 351 353 355 358 358 360 355 348 342 340 339 337 333 327 325 322 319
345 346 348 350 352 353 353 353 352 352 352 352 352 352 353 351 351 352 351 352 352 351 352 349 348 348 350 354 353 351 353 357 352 355 351 345 341 342 331 327 326 324 319
345 346 346 350 352 353 353 353 353 352 352 351 353 352 353 352 346 348 353 354 353 350 349 349 349 349 351 352 352 354 350 350 354 354 355 358 359 361 350 332 330 326 322
344 344 344 347 350 351 341 339 349 352 353 352 351 352 354 348 347 339 337 339 349 353 352 351 351 349 352 351 354 351 349 348 346 356 354 355 360 358 351 338 326 323 321
343 343 343 344 346 349 335 335 340 353 353 352 353 353 352 352 348 354 341 336 336 335 340 355 352 353 352 356 355 353 351 347 348 353 354 351 359 355 342 332 324 322 320
340 341 342 343 343 345 332 331 336 351 353 353 353 352 352 353 352 353 353 353 353 354 350 347 349 354 357 358 357 356 353 351 352 354 356 349 357 354 338 334 323 321 319
341 340 341 341 342 343 327 328 333 348 349 351 353 353 353 352 340 331 352 351 353 353 343 331 334 334 332 330 338 350 347 346 347 350 356 353 354 356 347 340 332 322 317
345 344 343 343 336 341 327 324 329 346 345 346 350 352 334 347 331 326 349 352 349 351 354 355 352 340 332 340 327 344 350 347 349 348 356 352 357 353 351 349 338 334 330

GFSMA_sfc_thetae_075.txt.gz
Theta_e
355 356 356 356 357 358 356 354 356 355 356 355 355 355 355 352 351 353 355 354 354 353 353 352 352 352 352 352 351 351 350 350 349 349 351 352 354 353 352 351 350 349 342
356 354 355 356 359 359 357 357 356 355 356 354 354 354 353 351 353 354 354 355 354 356 355 355 353 353 353 351 350 351 352 351 351 353 355 353 353 353 352 351 349 348 339
357 360 358 357 358 359 360 360 358 359 354 353 353 354 355 354 352 353 354 355 356 355 356 356 354 354 353 352 352 352 352 353 355 354 354 353 353 353 352 350 348 347 338
357 359 358 357 358 359 359 359 357 355 352 351 352 352 355 353 352 353 354 353 353 353 355 357 358 356 354 353 353 354 354 355 355 355 354 354 353 352 350 349 348 347 339
358 359 359 357 361 360 358 355 355 356 350 351 351 354 353 353 353 350 352 352 353 353 353 355 352 354 356 354 354 355 356 357 357 356 356 355 354 351 349 348 349 347 343
358 360 358 359 360 358 357 353 357 354 353 352 348 350 354 354 355 354 353 352 353 353 354 356 355 355 351 353 355 355 356 357 358 358 357 357 355 352 349 348 348 347 345
358 358 357 358 359 357 357 356 354 354 352 354 351 349 349 351 351 351 353 353 353 354 355 356 358 356 356 353 353 354 355 356 356 358 357 357 357 354 351 349 349 348 347
361 357 356 357 358 355 359 357 355 351 351 352 347 347 338 342 346 348 350 351 352 353 353 355 357 359 359 357 357 353 354 356 357 357 359 357 357 357 355 352 350 350 349
361 361 358 360 358 358 354 355 354 354 347 351 349 345 339 334 340 348 349 350 351 351 352 353 354 357 359 358 358 357 355 352 353 356 358 360 357 356 357 355 351 349 349
362 361 362 361 360 357 356 353 355 355 353 347 349 350 351 347 337 336 347 348 351 349 352 352 351 353 356 355 359 356 353 351 353 355 357 359 360 358 357 357 355 353 350
362 362 362 362 360 357 359 360 358 357 354 349 348 351 351 348 348 342 338 343 350 352 354 352 352 353 354 356 354 354 352 350 350 353 354 355 357 358 360 359 358 357 356
360 363 363 363 361 359 358 359 361 359 360 358 355 355 352 346 344 344 343 346 344 350 351 353 354 354 355 355 356 352 352 350 349 349 349 350 350 353 354 357 357 359 360
356 361 363 365 365 362 360 361 361 360 359 358 360 356 356 355 353 351 346 343 343 349 350 355 355 357 355 358 357 350 353 347 345 342 343 344 347 349 350 351 353 354 355
356 362 363 363 363 362 360 361 358 357 360 358 358 361 358 357 356 355 351 345 340 345 348 350 358 354 357 360 358 353 360 348 344 341 340 342 343 344 346 348 348 348 349
356 361 362 363 362 363 362 362 357 361 364 361 360 360 357 358 357 356 356 354 346 337 339 348 347 357 358 360 360 364 364 350 344 342 341 339 340 342 343 344 344 344 344
361 360 362 362 363 363 363 362 359 360 360 359 357 360 360 356 357 356 354 355 353 349 340 351 351 356 361 361 360 365 364 352 349 344 342 338 338 340 341 342 341 340 340
361 361 362 361 362 362 363 363 362 361 360 360 361 360 360 363 355 355 355 355 354 352 345 346 355 359 363 365 364 367 363 363 360 346 341 338 336 337 338 337 335 335 334
361 361 362 362 362 362 362 362 360 359 359 357 358 360 358 357 360 361 357 359 356 358 352 352 357 356 361 364 366 366 362 359 364 349 341 338 337 336 333 330 329 327 326
358 358 360 361 361 362 362 362 362 361 361 360 358 358 358 360 359 357 359 357 357 358 358 355 353 357 359 360 361 364 364 366 360 350 343 342 340 336 329 326 324 321 319
356 357 358 359 361 362 363 362 362 362 362 361 361 360 360 360 360 362 360 361 360 358 358 356 353 353 356 361 360 354 353 357 358 361 355 349 344 335 329 326 325 323 319
354 356 356 357 359 358 357 360 361 361 361 360 361 361 361 358 349 352 357 361 362 357 355 353 352 352 351 351 352 354 352 355 360 362 360 356 358 364 351 332 331 325 321
354 354 353 355 355 353 340 339 353 359 361 360 360 361 362 352 350 340 339 340 351 359 357 352 349 349 357 356 354 353 352 351 347 359 359 354 359 362 366 359 325 323 320
354 354 353 353 355 358 335 334 340 356 359 360 361 361 359 357 354 362 342 336 337 335 340 359 356 355 357 359 360 359 358 355 353 355 360 352 358 360 368 339 324 322 319
353 353 352 354 355 354 334 330 335 355 360 361 361 362 362 362 361 360 361 359 360 361 358 353 356 359 361 363 365 363 361 361 359 358 364 351 357 359 367 354 324 322 319
350 350 351 353 354 355 329 328 334 352 353 359 362 362 363 362 347 334 358 358 359 359 344 335 335 334 334 332 341 358 354 351 348 349 357 355 356 359 364 361 343 322 319
352 352 351 352 343 354 332 324 331 348 351 350 357 361 337 352 334 327 354 357 356 356 356 356 358 347 337 349 328 352 356 351 349 347 356 354 353 357 353 365 358 343 338

GFSMA_sfc_thetae_081.txt.gz
Theta_e
357 358 357 354 357 357 353 355 359 357 355 352 351 349 344 346 347 348 347 356 355 352 352 352 351 352 353 351 351 352 353 353 353 355 355 354 353 353 352 352 350 347 338
360 357 359 360 358 363 358 362 355 365 356 352 354 351 349 350 353 354 354 353 359 356 354 354 353 351 351 352 352 353 353 354 355 355 355 354 354 353 352 351 350 347 342
363 371 357 355 359 359 361 358 359 362 353 350 353 351 350 352 351 352 353 355 355 357 356 354 353 352 352 352 353 353 354 355 355 355 355 356 355 353 352 350 350 349 345
360 364 357 356 356 364 357 359 363 360 351 351 349 352 348 350 351 351 350 353 351 354 357 357 356 356 355 354 354 355 355 356 356 356 355 355 355 354 353 350 349 349 347
361 363 359 357 361 357 353 352 354 353 351 350 348 347 348 347 352 348 351 352 350 351 352 359 358 357 356 355 356 356 355 356 357 357 357 356 356 355 355 353 350 349 349
363 363 357 358 359 356 353 353 362 354 348 350 342 343 347 347 349 348 349 350 351 353 352 355 357 356 358 357 355 356 356 357 358 360 361 361 360 359 358 357 353 351 350
363 363 359 359 358 355 355 357 355 354 351 348 349 343 342 345 347 346 349 349 349 351 350 353 356 354 356 361 360 358 358 358 358 360 362 361 361 360 358 357 356 353 351
364 361 364 361 362 354 360 358 357 354 342 352 345 344 339 339 341 343 345 345 347 349 348 351 351 356 357 355 361 362 362 360 359 360 361 361 361 360 360 357 356 355 353
361 363 362 364 362 362 354 359 357 350 349 346 358 345 339 335 340 344 346 344 347 346 348 349 350 355 358 356 359 362 362 358 358 357 358 359 359 359 359 359 358 357 355
361 361 362 363 364 358 360 358 353 362 360 348 348 349 354 352 343 338 340 342 344 345 348 348 349 351 355 357 358 359 356 354 354 355 356 357 359 359 360 360 359 358 356
362 359 363 363 363 360 366 362 360 362 355 350 348 346 349 345 348 343 333 336 341 344 347 350 349 351 354 358 356 355 357 353 352 352 354 355 357 358 360 362 362 361 360
358 362 361 363 364 363 363 361 362 361 361 363 356 350 346 340 343 345 339 343 340 346 348 350 351 353 354 357 359 359 356 353 351 350 350 351 354 355 358 360 361 361 360
355 364 364 364 360 364 362 364 365 362 360 355 361 353 353 349 346 349 348 341 342 344 348 350 351 354 353 357 360 359 364 354 349 346 346 348 349 350 352 355 356 356 355
357 367 363 362 362 362 362 364 359 358 365 357 358 365 355 349 348 349 354 345 343 340 346 352 353 354 355 357 358 359 359 353 350 346 345 345 345 346 348 350 349 348 348
356 362 361 361 362 362 363 366 358 363 362 361 360 361 357 352 348 349 349 348 346 342 344 351 346 360 358 358 359 363 365 354 350 350 345 343 342 344 346 347 344 343 341
361 354 361 364 363 362 363 366 365 364 361 357 353 366 364 353 353 350 350 349 349 345 341 347 348 356 361 361 362 365 364 354 353 353 344 344 344 344 345 342 340 338 336
362 362 364 365 363 364 363 369 367 363 361 360 362 361 362 369 355 350 349 349 348 348 344 347 351 358 369 370 368 370 365 368 358 350 344 344 343 342 340 339 335 333 330
362 364 366 364 363 361 365 365 361 358 358 359 359 362 358 355 367 367 355 368 358 363 351 358 357 352 364 372 373 375 363 359 361 350 344 342 342 340 335 333 330 328 325
365 359 363 365 363 360 365 366 365 363 361 361 361 360 359 361 366 358 363 355 353 355 357 352 351 352 354 356 361 370 371 367 357 348 343 342 341 338 331 328 325 322 320
365 363 364 366 364 362 361 362 364 365 364 362 363 364 362 362 365 366 362 367 362 358 355 350 348 350 353 363 357 354 352 352 351 351 352 350 348 338 330 326 324 323 319
366 366 366 364 365 360 358 364 364 364 364 365 364 365 366 361 351 355 356 364 368 360 351 348 347 348 348 350 355 352 350 350 356 351 349 351 350 352 340 328 332 327 323
368 369 366 365 363 355 341 339 354 364 367 369 364 366 368 356 354 342 340 341 351 364 366 352 347 346 362 355 349 348 349 346 344 356 353 350 353 351 354 351 339 327 322
363 367 366 366 366 366 338 333 340 357 362 366 369 368 363 355 357 366 345 340 341 337 339 360 362 361 361 366 368 368 361 359 353 355 357 349 354 351 354 342 327 324 322
361 362 365 367 368 365 337 331 334 359 360 363 365 369 369 367 367 364 366 364 363 364 362 355 358 362 366 369 369 365 369 369 364 363 366 349 352 351 354 355 326 324 321
358 358 359 364 364 367 334 329 335 356 354 358 362 364 364 367 351 338 363 364 366 365 345 340 342 341 340 336 343 355 350 348 345 346 352 346 348 350 351 353 336 323 320
358 363 358 362 351 364 339 328 332 355 356 354 361 363 340 351 337 330 362 363 361 363 366 360 358 349 341 351 333 353 355 347 346 345 352 346 346 348 346 352 351 335 330

GFSMA_sfc_thetae_084.txt.gz
Theta_e
361 354 346 355 349 356 350 351 353 349 354 354 351 347 344 349 346 345 350 358 359 358 354 352 351 352 352 350 351 352 353 353 354 355 354 353 353 353 352 351 349 346 339
363 350 353 353 356 363 353 344 357 361 350 353 351 351 349 351 354 348 348 354 359 358 357 356 354 351 350 350 351 352 352 353 354 355 355 355 354 353 352 350 348 347 344
359 353 348 354 356 367 366 352 360 355 355 351 354 349 352 352 352 354 352 351 356 361 359 358 354 353 353 352 353 353 354 357 355 356 357 357 356 356 354 353 349 348 347
367 364 353 353 360 354 358 348 360 357 353 354 350 351 353 350 353 353 353 354 353 352 358 360 359 357 356 356 355 355 356 358 359 359 359 358 358 358 357 356 352 351 350
367 369 361 356 364 352 360 354 355 355 352 348 342 352 352 352 350 349 352 354 349 354 354 359 360 360 358 357 357 358 359 360 360 360 361 361 360 359 358 358 357 353 351
367 361 366 365 348 363 358 346 360 352 355 341 342 345 350 348 352 352 351 351 352 353 354 357 356 356 360 362 361 361 360 361 361 362 362 362 361 361 360 358 357 356 353
369 370 366 363 351 360 347 365 361 358 355 357 357 350 348 346 347 350 351 347 351 352 352 354 358 355 354 361 362 361 362 362 363 363 362 362 361 361 360 359 357 357 356
369 366 359 361 353 355 364 362 346 357 353 357 350 350 338 343 345 344 348 347 347 350 350 353 354 354 356 356 357 361 363 363 363 364 363 361 360 360 359 359 358 357 357
367 359 366 364 363 363 356 362 364 357 351 355 357 346 341 336 347 346 346 345 346 350 348 348 353 356 357 357 363 363 363 359 360 360 359 360 359 359 359 359 358 357 357
365 366 369 364 358 354 351 359 360 354 360 352 356 354 354 343 343 339 345 342 348 345 347 353 350 354 355 358 363 361 360 355 354 356 356 359 360 360 361 361 360 359 358
369 363 369 369 364 359 355 358 365 366 360 353 351 352 353 354 349 345 337 339 346 348 348 351 350 351 355 357 360 354 355 353 353 354 355 357 357 358 360 363 363 361 360
364 367 367 368 366 352 351 367 367 366 363 366 362 357 352 342 344 345 343 344 342 347 351 350 351 354 355 361 359 360 356 352 351 351 351 352 354 355 358 359 361 360 359
351 362 367 368 366 368 362 366 369 367 367 362 363 358 359 350 344 354 349 348 340 347 352 352 352 354 354 357 360 359 365 355 351 348 348 349 350 351 353 355 355 355 354
354 363 365 367 369 365 364 366 367 364 364 362 361 361 360 357 356 355 348 350 341 345 350 354 357 356 359 361 360 358 361 356 352 347 348 347 346 347 349 350 348 348 346
353 362 354 364 366 367 365 366 362 364 365 365 363 362 362 357 355 355 353 352 348 342 343 351 349 361 361 361 362 361 365 355 350 351 347 346 343 345 347 345 344 342 340
355 351 353 353 366 365 365 365 361 362 362 364 359 362 362 357 357 353 348 355 355 350 343 349 350 362 364 361 363 364 366 355 353 354 347 347 344 345 345 344 341 338 336
358 352 339 348 363 366 364 365 362 360 359 360 362 361 359 364 359 358 356 356 352 354 348 350 357 360 359 362 362 367 368 366 361 350 351 346 343 344 342 341 337 335 332
368 369 362 363 365 363 363 362 362 360 359 359 360 358 358 358 363 363 359 357 358 359 354 349 354 353 354 356 369 366 368 362 360 353 346 345 343 341 337 336 333 330 327
366 364 364 366 365 365 365 364 362 362 362 358 361 360 360 362 362 358 363 359 356 357 356 354 350 357 354 354 356 362 366 366 366 350 345 342 343 338 334 330 328 325 321
365 365 365 366 364 364 364 363 365 364 365 362 364 363 363 363 362 361 360 360 359 358 355 354 350 349 350 353 358 356 354 353 352 355 352 348 346 339 332 327 326 324 319
365 366 365 364 366 364 360 362 363 363 361 360 363 363 364 362 354 357 359 359 358 357 355 352 349 349 350 354 351 353 349 354 352 354 351 352 350 343 335 328 332 330 324
367 366 364 364 362 358 343 339 354 359 363 362 359 363 365 357 352 342 340 342 348 358 357 357 353 348 349 353 356 355 353 347 343 358 353 350 351 348 351 340 335 330 325
362 363 364 364 363 364 342 335 337 358 362 363 362 362 362 356 351 361 343 339 340 337 340 350 349 352 354 356 359 358 357 355 353 354 355 348 355 353 356 348 335 328 323
359 359 360 362 362 363 339 336 336 350 355 358 359 363 362 359 360 362 363 361 356 357 354 347 348 349 351 354 357 356 356 355 359 361 361 350 356 354 356 343 328 326 322
345 353 358 359 360 362 337 329 335 353 354 354 355 359 359 358 348 337 354 357 359 362 348 340 341 340 338 336 341 353 350 347 342 343 350 345 344 347 351 344 329 325 321
344 348 351 358 350 358 340 330 332 356 355 355 357 357 339 346 335 330 350 358 353 353 355 358 355 343 337 343 333 346 352 348 346 343 347 345 345 345 342 354 341 327 323

GFSMA_sfc_thetae_087.txt.gz
Theta_e
347 345 345 350 348 345 345 339 343 347 344 347 337 336 341 342 345 349 348 358 361 360 353 352 353 354 352 351 351 351 352 353 354 355 354 354 353 352 351 349 348 345 339
348 348 347 348 345 349 346 339 343 348 343 343 342 338 341 342 342 345 347 351 360 360 357 355 354 352 351 352 352 353 353 353 355 355 355 355 355 354 352 349 347 347 345
345 346 340 343 346 351 347 348 347 351 345 346 342 341 342 342 342 343 345 349 354 359 358 358 359 357 353 353 353 354 356 358 356 356 359 358 357 357 355 353 350 348 348
349 346 344 346 349 344 349 344 345 342 341 343 339 340 343 342 341 345 347 347 350 351 358 361 360 359 356 356 356 357 359 360 359 360 360 360 360 359 358 358 355 352 350
353 352 348 346 352 346 347 347 344 345 342 340 341 344 343 340 342 347 344 348 347 348 348 356 360 360 358 359 359 361 362 361 360 360 361 361 361 361 360 359 358 356 354
354 350 354 348 348 347 347 342 343 342 344 338 338 339 340 342 343 342 342 344 346 348 348 348 353 354 360 362 364 363 363 362 361 361 361 361 361 361 361 360 359 358 357
356 353 352 346 348 347 343 350 347 346 346 346 342 338 339 334 335 342 343 343 342 347 348 349 349 349 350 359 360 362 363 363 364 363 362 361 360 360 359 358 358 359 358
353 355 351 350 348 346 349 346 340 344 342 341 337 334 328 333 338 336 339 341 340 343 345 346 348 349 347 348 351 360 362 363 365 364 363 360 358 358 358 357 357 358 358
356 353 353 352 345 346 343 345 349 341 338 343 342 335 331 327 335 336 333 335 333 339 341 342 346 345 346 350 357 359 361 359 360 361 360 360 359 358 359 359 359 358 357
357 356 354 353 353 345 342 345 352 346 339 338 339 343 341 335 331 328 334 332 335 338 338 339 343 345 347 347 359 359 360 357 355 356 359 360 359 359 361 361 360 359 358
358 355 354 352 350 349 347 348 349 348 347 347 346 343 341 341 343 333 329 327 334 336 337 339 343 343 345 350 347 348 356 352 351 354 356 357 357 358 360 362 363 361 360
351 351 356 353 353 346 341 342 350 349 350 348 351 345 342 334 332 337 333 333 329 336 337 342 337 344 346 350 355 357 357 353 350 351 352 353 353 354 358 360 359 358 356
345 347 353 353 352 349 346 346 351 349 352 346 347 347 347 346 343 341 336 336 333 337 340 341 341 342 347 351 349 356 359 355 350 348 347 348 350 350 353 355 354 353 349
346 349 353 353 355 352 353 353 352 351 349 349 346 344 346 347 347 343 342 336 332 337 340 340 345 343 349 351 354 357 356 353 350 347 346 345 346 346 349 350 348 346 342
352 353 350 353 353 354 352 353 351 351 351 349 347 348 347 348 345 345 348 337 335 328 331 338 343 349 350 353 356 353 356 355 351 351 352 346 344 344 347 346 344 341 340
349 349 350 348 352 354 354 352 349 351 350 350 352 347 348 349 347 348 347 345 342 336 331 341 342 352 354 354 355 350 358 354 351 352 348 348 344 344 346 344 341 338 336
348 347 345 341 347 352 353 352 350 350 352 349 348 350 346 350 347 348 350 347 345 343 338 343 348 349 345 344 347 351 358 357 356 350 346 345 343 342 342 341 339 335 333
349 345 338 337 343 350 354 352 351 351 350 348 348 349 347 352 348 350 348 346 345 343 341 335 340 342 343 348 350 352 360 361 356 355 343 343 342 339 338 336 334 331 328
352 352 349 348 351 352 352 353 352 351 352 349 350 349 349 348 348 347 345 350 348 348 348 344 343 346 347 344 343 345 349 355 356 353 342 341 340 337 334 332 329 326 322
355 353 354 352 355 354 355 355 354 351 351 354 352 353 351 347 348 349 347 346 348 346 345 343 342 341 341 345 347 348 340 343 346 349 347 344 341 339 335 330 328 325 319
356 356 355 355 357 355 356 354 355 354 352 351 352 354 355 355 352 351 351 348 347 346 345 345 343 342 343 343 341 345 344 345 343 341 345 346 343 340 338 332 333 331 322
351 354 355 355 354 357 346 342 350 351 355 351 349 352 355 354 350 342 341 343 350 348 345 345 345 344 342 342 347 347 346 342 339 348 347 348 347 348 345 337 334 330 325
351 350 351 352 354 354 338 336 337 345 350 352 353 352 352 355 349 352 344 338 337 336 339 342 339 340 341 344 345 345 343 344 343 348 348 349 350 348 355 345 333 329 325
341 346 349 351 352 354 337 331 335 340 343 346 350 353 354 353 351 350 353 353 349 348 345 341 343 345 344 345 344 346 345 346 348 352 353 346 348 348 350 345 331 329 325
340 341 343 347 347 350 337 330 331 342 344 346 348 349 351 351 345 336 347 347 348 354 346 335 337 336 335 334 338 345 344 341 341 342 340 338 341 335 337 343 333 327 323
339 344 344 345 342 349 338 326 330 344 347 349 349 349 335 342 332 329 343 346 345 348 349 349 346 338 335 341 332 339 345 340 340 341 343 339 338 336 336 341 333 324 321

GFSMA_sfc_thetae_093.txt.gz
Theta_e
343 344 344 344 341 339 342 339 340 342 343 339 344 347 342 342 344 345 345 355 357 353 352 351 352 352 352 353 353 353 353 353 353 354 354 354 353 354 353 352 351 349 343
343 340 342 343 343 343 343 340 338 343 343 335 338 339 339 342 343 344 346 347 357 357 356 353 353 353 353 353 353 353 353 354 354 355 355 355 355 354 355 355 352 351 350
342 341 342 342 343 347 345 342 343 343 339 339 336 337 338 340 340 342 343 343 347 357 357 356 356 357 356 355 355 355 358 359 357 358 360 359 358 358 356 355 355 353 351
344 340 338 340 345 345 345 340 340 340 338 338 336 336 337 338 338 339 339 342 343 346 350 358 359 359 357 357 357 359 361 362 362 362 361 361 361 360 360 360 358 357 354
346 343 340 343 343 343 341 342 341 338 338 336 336 339 338 338 337 341 339 341 341 345 345 349 356 360 358 359 361 364 365 364 363 362 361 362 362 362 361 359 358 359 357
349 348 345 343 344 343 342 343 340 339 337 334 336 338 335 338 338 338 341 344 343 343 343 343 342 346 356 359 362 364 364 365 364 364 363 363 361 360 359 359 358 358 358
351 348 348 343 342 338 340 344 341 339 340 340 334 334 331 333 336 338 339 339 341 344 344 344 343 344 346 354 358 361 362 364 365 365 364 361 359 359 358 358 356 355 358
351 350 345 341 343 343 343 344 342 336 336 338 334 327 325 326 333 334 336 338 337 338 342 345 344 345 345 346 349 358 360 361 362 365 364 361 359 358 358 358 358 357 358
351 351 348 345 342 342 340 341 344 340 334 337 338 332 325 322 327 330 329 334 336 335 336 339 342 343 345 345 349 351 356 356 361 364 363 361 359 358 359 360 359 357 357
351 349 349 347 344 340 339 340 348 340 337 338 338 341 335 330 329 324 328 331 331 331 332 336 339 340 341 342 348 353 353 354 357 360 360 361 359 359 361 362 359 357 357
352 350 349 347 345 341 338 341 345 343 344 342 340 338 336 332 333 328 325 325 328 330 333 334 335 336 337 340 341 348 352 351 352 354 356 358 359 358 361 363 359 357 356
347 349 350 346 345 344 342 341 346 344 344 343 343 340 337 335 335 333 329 329 328 330 333 335 337 337 340 339 349 355 354 353 352 351 351 353 355 355 357 359 356 353 348
344 346 349 347 345 345 342 339 344 343 344 342 341 340 343 341 341 337 332 329 330 334 337 339 340 341 345 345 347 354 353 349 348 346 346 347 349 352 352 355 352 349 344
344 346 348 349 347 347 345 341 345 345 344 344 342 341 339 341 341 339 337 331 328 328 331 335 342 342 346 348 350 354 350 346 345 344 343 344 344 347 348 351 350 348 343
345 344 347 348 346 346 346 346 345 344 346 344 342 341 341 343 341 342 340 338 331 326 326 334 339 347 346 347 349 348 347 345 344 343 341 341 341 343 345 347 346 344 341
345 343 347 347 349 350 348 345 345 345 343 344 344 344 341 343 344 343 343 341 338 331 328 334 340 344 346 345 348 347 345 346 346 343 341 338 338 341 342 343 343 342 339
344 346 346 346 347 347 348 346 345 345 344 344 343 343 342 342 341 340 344 341 340 338 333 337 341 344 342 342 344 344 347 348 350 343 340 337 336 338 339 340 340 339 338
343 344 345 345 345 345 347 347 347 348 345 344 343 342 342 347 341 341 344 339 341 340 338 334 338 340 341 343 342 342 346 350 346 345 339 336 335 336 335 334 334 334 332
344 344 343 341 340 339 342 347 349 345 346 345 346 344 342 343 342 341 340 340 341 343 341 339 338 340 341 340 342 342 345 344 348 346 340 338 338 336 334 330 329 328 324
347 344 343 341 338 338 340 344 348 346 346 346 347 347 346 346 344 342 341 341 341 340 339 337 336 337 338 341 341 339 341 342 343 346 342 340 339 339 337 332 330 330 324
349 347 345 346 346 347 349 348 348 349 347 346 346 347 349 348 345 343 347 345 343 340 339 337 336 336 337 337 336 339 339 339 339 339 338 342 341 344 346 339 340 337 330
342 344 345 346 344 351 343 338 345 347 348 348 347 347 348 346 345 339 337 339 344 344 341 338 338 337 337 338 338 338 337 333 331 338 340 341 343 344 346 346 340 335 331
338 339 342 344 346 345 334 332 336 344 344 344 346 347 348 351 345 348 342 335 336 334 338 344 340 340 338 338 338 336 334 334 333 339 340 341 342 342 344 343 335 333 329
334 336 338 339 339 343 328 328 333 338 341 341 342 344 346 347 348 347 347 346 346 346 343 340 341 345 344 345 340 342 339 336 337 340 343 338 339 339 340 340 333 330 326
329 331 336 338 338 340 321 322 333 340 341 342 343 344 344 344 334 325 340 343 344 346 341 331 331 331 330 328 334 339 337 335 341 342 342 340 341 335 336 337 337 327 323
327 329 332 337 332 333 320 323 330 336 332 334 338 341 325 327 319 316 331 332 334 339 341 340 341 340 330 335 329 336 344 340 341 337 342 339 335 335 332 335 337 338 333

GFSMA_sfc_thetae_096.txt.gz
Theta_e
347 349 347 347 346 347 346 344 345 346 348 342 346 350 348 347 348 348 347 352 355 356 352 352 352 353 353 355 355 355 354 354 354 354 355 355 355 355 355 355 353 352 350
347 346 346 347 347 348 349 345 344 348 346 340 344 346 346 346 346 347 348 349 356 356 357 355 354 354 354 355 355 355 355 356 356 356 358 359 358 357 356 355 355 353 352
346 346 346 346 348 352 350 347 347 346 344 343 344 343 344 345 345 345 346 347 348 353 357 356 356 357 358 357 357 357 360 361 361 360 362 361 360 359 359 359 357 356 355
347 347 344 346 347 349 348 348 346 346 344 344 343 344 344 344 344 344 344 344 346 346 348 352 356 359 359 359 359 363 364 364 364 363 363 362 363 362 360 360 359 358 356
348 348 345 348 351 348 348 347 346 344 344 342 341 344 344 344 344 343 345 345 345 348 348 349 352 354 356 359 361 364 366 364 364 364 363 364 363 361 359 358 358 358 358
351 351 348 349 349 348 347 350 348 347 346 345 343 343 344 343 345 344 345 346 348 349 348 349 350 349 352 356 358 360 362 365 365 365 364 362 360 360 359 359 355 356 358
353 352 351 350 348 346 348 347 345 347 344 343 343 341 339 340 340 344 344 345 346 347 349 350 350 351 351 353 356 357 359 363 365 365 364 361 360 358 358 358 356 356 359
354 353 349 347 348 349 350 349 345 343 343 344 341 334 334 336 341 342 341 343 345 345 345 347 349 352 352 352 354 358 359 359 362 366 364 361 359 358 359 359 358 358 358
353 351 348 348 348 348 346 348 350 346 342 344 343 340 334 332 333 338 340 340 343 344 345 344 345 349 351 350 351 353 354 354 359 363 364 361 359 358 361 360 357 357 357
354 354 353 349 348 347 348 348 351 345 347 344 345 344 341 339 336 335 339 339 339 340 342 342 343 346 348 347 350 352 350 353 355 359 361 361 360 359 362 361 357 356 355
353 351 353 351 351 347 348 348 352 351 352 350 345 344 344 340 340 336 335 338 343 338 340 342 343 344 347 349 348 351 353 352 352 355 357 358 358 357 360 360 358 355 353
352 354 353 351 351 350 347 349 352 352 350 349 348 347 344 343 342 340 337 337 338 342 344 347 345 347 349 352 353 354 355 352 351 350 351 353 354 355 355 358 355 352 347
349 350 353 350 349 350 349 347 351 352 352 350 349 347 346 346 346 343 339 337 337 342 345 350 353 351 354 358 356 354 355 349 346 344 345 347 349 351 353 355 353 350 345
349 351 352 353 351 350 348 346 349 350 351 350 349 348 347 348 347 346 345 342 340 340 339 345 352 355 356 357 355 353 354 345 343 342 341 342 343 346 349 351 352 349 345
349 350 351 353 351 351 352 352 351 351 352 351 349 349 348 349 348 348 347 345 342 336 340 344 348 356 362 359 356 357 355 346 344 343 340 337 339 342 345 346 348 346 343
350 349 348 349 351 352 353 350 351 351 350 349 350 350 349 349 351 350 349 348 345 341 338 342 348 353 356 353 354 356 356 348 346 341 338 337 337 340 342 342 344 344 342
349 347 348 349 350 351 353 352 350 350 350 350 350 350 350 350 348 348 349 349 347 344 342 347 347 353 354 354 355 356 355 359 355 342 339 336 337 337 339 339 339 340 340
349 346 348 349 350 349 351 352 350 352 347 349 349 349 347 349 350 349 349 350 348 349 345 344 347 348 351 354 353 353 354 355 355 347 339 336 338 336 335 334 332 333 333
351 348 347 347 344 346 348 350 351 351 350 350 348 349 348 349 350 349 349 347 347 348 348 346 346 348 349 349 352 354 354 356 353 346 339 337 338 337 334 332 330 327 325
351 348 347 347 346 346 344 344 349 352 352 351 351 351 350 350 348 350 349 350 348 347 347 346 345 344 346 351 349 347 348 351 350 351 346 340 340 340 337 332 331 331 325
347 350 349 348 347 345 345 347 349 351 352 352 353 353 353 351 345 346 353 354 351 349 348 346 345 345 346 347 347 349 346 348 351 349 348 353 352 354 354 344 345 339 331
341 343 345 347 348 349 336 336 347 352 353 353 353 355 355 348 348 338 337 337 346 352 351 347 349 347 349 347 349 347 347 346 344 351 349 350 353 353 354 355 341 334 329
337 339 341 341 341 344 328 329 335 347 351 351 351 352 351 353 348 353 343 337 336 333 339 354 350 351 350 352 351 349 349 345 346 351 348 348 354 352 354 351 335 331 327
332 334 337 339 341 338 323 324 331 343 346 345 346 347 347 348 339 339 347 350 352 353 351 346 347 351 354 354 352 352 351 348 347 349 350 344 353 351 354 353 336 330 328
326 328 333 339 331 326 318 323 333 341 339 340 343 340 341 335 324 322 338 340 343 346 341 333 329 330 328 327 333 345 346 345 344 348 352 349 350 348 350 350 352 331 325
327 330 334 333 326 325 312 315 323 328 327 330 334 336 327 325 321 321 327 328 331 339 341 340 342 343 338 344 330 341 347 344 345 345 352 347 349 347 345 352 350 353 353

GFSMA_sfc_thetae_099.txt.gz
Theta_e
355 356 356 355 357 357 354 354 357 356 354 349 355 358 357 356 353 351 350 349 354 355 355 353 353 354 354 354 355 355 355 355 355 356 357 357 357 357 356 355 355 354 351
358 355 356 355 357 359 359 358 357 356 352 352 353 354 356 356 354 352 351 353 352 356 356 357 356 356 357 358 358 357 358 358 359 359 361 361 362 361 358 358 356 355 353
357 358 356 356 359 362 360 360 359 356 352 352 352 354 354 355 354 353 354 354 354 350 353 355 357 357 358 359 360 361 364 364 362 364 364 361 362 362 362 361 359 358 355
359 358 355 356 357 360 358 357 354 354 353 353 354 354 354 354 354 354 355 354 355 354 353 350 353 355 356 359 362 365 365 364 364 364 365 363 362 361 360 359 359 360 358
356 358 355 357 361 357 357 357 353 355 354 354 352 353 355 354 355 352 354 356 356 356 356 360 353 354 356 358 360 362 364 364 365 365 365 364 362 361 360 359 357 358 357
359 363 358 359 360 358 356 358 357 358 355 353 348 350 355 356 357 357 355 354 358 357 357 359 358 357 356 356 358 359 360 364 366 365 365 362 361 360 360 360 358 359 358
362 364 359 360 359 358 359 358 357 355 352 355 351 350 350 351 351 354 356 356 354 354 354 355 357 356 356 357 357 359 360 362 366 365 364 361 360 359 360 360 359 360 360
362 363 362 358 359 358 360 360 359 354 353 354 349 348 340 343 349 349 352 352 352 354 354 354 355 357 358 357 359 358 358 357 361 365 365 361 360 359 361 359 357 359 358
360 362 360 360 361 360 356 360 359 356 350 354 356 348 342 337 346 350 349 350 353 353 354 354 352 356 358 357 357 358 356 353 358 364 364 362 361 360 361 359 357 357 357
360 360 362 360 361 359 359 359 361 359 357 351 355 353 354 352 343 339 350 349 352 347 350 350 351 353 358 358 360 356 352 355 356 360 362 361 360 357 361 358 356 355 355
363 360 362 362 361 358 359 359 363 362 358 353 350 354 356 354 354 347 339 344 350 351 355 354 352 354 358 362 360 357 355 354 354 355 356 357 357 358 360 359 356 352 349
360 362 362 362 361 361 358 358 364 361 360 357 354 353 348 347 348 348 346 347 347 351 356 359 358 357 363 361 360 357 357 353 350 349 350 352 353 355 357 360 357 352 348
362 360 364 363 360 361 360 359 362 362 361 359 360 353 354 352 354 354 351 347 345 350 354 359 358 362 358 360 362 356 357 349 346 344 345 346 348 350 356 358 357 353 349
356 361 361 364 362 361 359 359 357 359 362 360 358 360 356 357 356 356 351 349 344 349 352 354 362 360 360 362 360 355 360 347 344 343 342 341 343 347 351 353 355 353 351
358 359 360 361 362 362 362 360 354 359 361 362 361 361 358 358 359 359 358 354 349 339 341 351 351 362 361 360 359 361 363 347 346 343 339 339 340 344 347 348 349 349 347
359 359 359 359 360 361 362 362 359 361 360 359 357 360 361 358 358 359 357 357 354 347 340 351 351 358 361 356 355 361 362 350 348 342 339 337 339 341 344 345 345 345 345
359 359 359 357 357 357 361 363 362 359 359 359 360 359 359 362 356 355 356 357 354 353 345 347 354 357 361 361 360 363 360 362 357 345 341 339 337 338 339 339 339 340 341
360 359 359 359 360 359 360 361 360 359 358 357 357 359 358 356 360 360 355 358 356 357 351 351 356 355 359 363 363 364 358 357 361 349 340 337 336 337 336 335 334 333 332
361 360 359 359 359 357 356 358 359 359 359 359 359 357 357 358 360 358 360 364 355 355 357 353 352 356 358 359 360 362 363 364 359 348 341 340 338 338 336 333 331 329 326
359 360 359 359 359 356 355 355 355 358 360 358 359 360 359 359 359 360 357 361 358 359 358 353 351 352 355 360 359 355 354 355 355 357 350 344 340 343 339 334 333 333 327
357 359 359 359 358 356 353 355 355 355 355 359 361 360 361 357 348 348 360 364 363 358 359 349 349 350 351 351 352 354 352 353 357 357 356 356 355 358 357 347 348 341 333
352 353 353 353 352 354 328 331 345 358 360 360 360 362 362 353 351 337 336 337 345 359 360 351 349 350 357 357 356 354 352 350 346 357 357 354 357 357 359 358 340 335 329
347 348 349 350 345 336 324 326 334 357 359 360 359 359 358 357 349 354 347 339 338 333 337 357 355 356 356 359 360 358 357 355 352 355 357 351 357 356 360 357 340 333 329
341 344 347 338 333 326 320 323 332 354 354 352 347 346 343 334 330 332 349 355 357 359 360 357 359 359 360 361 361 360 358 357 357 357 364 351 355 355 359 360 341 334 331
339 345 336 334 327 322 314 318 333 336 338 337 337 331 331 329 324 324 333 337 343 350 341 333 331 328 327 326 333 350 352 351 349 351 358 355 354 354 357 357 359 337 330
337 332 323 320 314 316 310 311 323 332 332 332 333 333 319 321 314 315 330 331 331 333 334 335 338 339 340 346 331 351 353 349 349 347 357 353 353 353 349 355 357 359 361

GFSMA_sfc_thetae_102.txt.gz
Theta_e
356 356 358 358 359 358 355 357 358 355 355 353 354 354 352 353 351 348 345 351 353 354 354 353 354 354 355 356 357 357 358 359 359 359 360 360 360 360 360 358 356 355 353
360 356 357 356 358 358 358 359 359 354 352 351 353 353 353 352 354 353 350 352 353 355 355 356 356 356 356 358 360 360 361 363 364 363 364 363 363 362 362 361 358 356 354
362 363 357 357 358 362 365 362 359 357 350 351 354 353 353 353 351 353 353 353 353 352 353 354 355 356 357 359 362 363 367 367 367 366 364 364 364 363 361 360 360 360 358
362 362 357 356 360 361 361 355 355 350 352 352 352 353 353 353 354 354 354 356 356 355 354 355 353 356 357 359 362 364 366 366 366 367 366 366 364 362 361 361 360 358 358
360 362 359 359 363 359 357 356 353 354 352 352 349 351 351 352 353 349 353 357 355 358 358 356 356 357 358 359 361 361 362 365 366 367 366 365 363 361 361 361 360 359 357
360 362 358 362 361 357 356 356 360 356 352 351 346 346 349 351 353 353 352 352 354 356 356 361 362 359 360 359 361 359 362 365 365 367 365 362 362 361 362 361 360 361 359
361 363 361 361 361 358 360 362 359 356 349 354 347 345 345 349 349 351 352 353 351 354 357 358 360 358 358 362 362 361 360 360 364 367 366 362 361 360 362 359 360 360 359
360 361 365 361 363 357 363 362 361 352 352 356 345 346 339 341 345 347 351 350 352 354 355 357 359 360 361 359 361 361 359 356 361 366 366 363 360 359 362 358 358 358 357
361 361 362 363 363 360 355 363 360 361 347 355 359 348 338 338 341 345 347 348 352 353 356 357 357 359 361 362 362 360 357 356 360 363 365 363 360 357 361 357 356 356 355
360 360 362 362 365 362 363 362 360 361 360 350 354 355 360 358 341 336 343 346 348 347 353 354 356 356 363 360 362 355 357 357 358 358 360 362 361 359 361 357 353 351 352
361 360 362 365 365 359 362 363 364 361 359 353 351 356 357 356 357 344 339 343 344 352 357 358 356 356 361 362 359 358 359 356 354 354 356 357 359 361 361 360 356 349 347
356 358 359 361 364 364 363 359 363 358 364 360 355 354 349 347 347 346 345 347 345 351 357 361 362 359 362 360 362 359 360 354 350 350 351 351 353 358 361 363 360 354 348
354 357 361 361 359 362 363 362 365 362 361 361 362 354 354 351 353 352 348 346 345 350 354 359 361 363 358 361 360 357 358 350 348 346 346 346 349 352 358 361 361 358 353
355 363 360 360 362 361 362 364 359 356 360 356 357 361 354 357 354 352 350 347 342 345 350 353 362 360 359 359 357 357 356 348 347 343 342 342 345 350 352 356 358 358 356
361 363 362 360 362 361 363 364 357 360 362 361 359 359 356 354 355 355 354 350 346 338 340 352 349 357 357 355 356 358 358 349 349 346 343 341 342 346 349 350 350 351 351
364 363 363 362 360 361 360 362 359 360 362 357 355 360 360 354 355 354 352 351 350 346 340 345 348 355 360 359 357 359 358 353 356 349 344 341 341 343 344 346 346 346 346
363 363 365 364 363 361 362 363 362 360 359 358 359 359 360 364 354 352 351 351 350 349 343 344 348 353 362 362 362 364 359 356 353 346 343 342 341 341 342 342 341 341 342
363 361 363 365 362 358 362 362 359 356 358 355 355 357 357 354 360 361 354 358 356 357 350 351 357 352 358 362 363 365 359 356 357 349 344 342 340 339 338 337 335 336 334
359 359 362 361 358 360 361 361 360 359 359 357 356 356 355 357 357 355 358 355 351 353 356 351 349 351 353 356 358 364 361 362 354 348 342 341 342 339 338 335 332 330 327
357 358 359 361 360 359 360 362 360 359 359 357 359 357 358 357 358 359 356 360 357 357 355 351 349 348 349 358 356 350 347 351 351 352 351 346 346 345 341 336 334 334 331
359 362 360 361 362 360 355 361 362 360 360 359 360 359 359 356 348 349 359 363 360 357 350 349 347 347 346 353 352 351 348 349 355 354 351 355 353 354 355 344 348 343 335
361 362 360 360 361 357 327 330 345 360 362 360 358 360 360 354 352 340 339 338 347 360 357 354 350 349 358 358 353 350 351 349 347 356 358 354 356 354 356 357 342 337 333
356 356 356 356 348 345 322 327 334 359 362 358 358 359 358 352 350 354 347 341 339 336 338 359 356 356 357 363 363 359 362 356 354 357 359 352 356 353 356 355 341 336 334
350 352 349 346 340 329 318 324 336 358 352 350 351 348 346 342 335 335 350 354 357 359 361 357 360 360 362 360 357 360 359 359 359 359 365 349 354 353 356 358 342 343 338
347 347 343 338 332 324 312 315 339 348 345 343 338 338 340 335 317 319 341 343 345 348 338 335 333 328 326 326 334 351 350 356 350 353 359 354 356 355 356 355 357 339 335
335 331 331 326 319 318 308 310 326 341 339 338 338 335 317 319 313 313 335 335 334 333 333 337 341 340 336 343 329 352 354 349 351 348 359 355 362 357 350 356 357 359 360

GFSMA_sfc_thetae_105.txt.gz
Theta_e
355 356 360 356 357 361 351 353 352 351 353 351 350 350 348 348 346 340 341 353 353 352 353 353 354 355 356 358 360 361 361 362 364 363 363 364 364 363 360 359 358 356 353
361 354 358 353 355 357 353 355 356 350 349 348 350 351 349 348 351 348 346 351 354 354 354 355 355 356 357 359 361 363 366 368 368 366 366 365 365 363 361 360 359 356 356
362 360 353 354 356 357 361 357 354 353 347 347 351 351 349 350 350 352 351 351 353 356 357 356 355 355 356 359 362 365 368 368 367 367 367 367 365 363 361 362 360 357 358
361 363 355 353 355 357 355 352 351 347 348 348 349 349 348 349 352 353 353 355 355 353 356 359 357 358 359 361 363 365 366 366 366 367 367 366 364 362 363 363 361 359 357
361 366 360 357 365 356 353 358 346 356 346 348 347 348 349 348 352 350 354 354 354 355 354 359 363 362 360 361 361 362 364 366 366 367 367 365 363 362 363 361 362 360 358
360 362 359 359 364 357 353 353 362 352 350 348 344 345 348 348 350 351 351 350 353 355 353 360 361 359 364 365 363 361 363 365 366 368 368 364 362 362 362 360 361 361 359
361 363 360 359 361 362 361 359 356 355 347 350 348 343 344 348 349 348 349 349 350 351 353 357 358 358 359 367 363 363 362 362 366 368 369 365 363 361 362 359 359 359 359
361 360 367 361 358 357 360 362 362 353 346 348 346 344 336 341 345 345 347 347 349 350 352 356 357 361 362 359 362 360 358 360 363 366 369 367 362 359 362 357 357 356 357
360 362 362 364 361 363 357 363 358 360 345 348 359 353 340 340 339 343 346 346 350 350 352 353 354 358 362 362 363 361 360 359 361 362 364 366 364 361 360 356 354 354 355
360 361 362 362 364 364 366 361 360 365 364 345 348 349 359 356 347 337 341 345 346 347 351 351 351 356 359 358 364 360 360 358 357 358 360 360 362 363 361 359 353 349 350
360 359 362 363 363 359 363 364 361 365 358 356 351 347 354 349 351 343 340 341 343 346 352 352 352 353 360 361 359 357 361 356 354 355 356 356 357 361 362 362 357 351 347
357 360 360 362 363 364 361 359 363 362 364 365 357 354 346 345 347 349 342 345 345 349 351 355 355 354 357 357 360 361 360 355 351 350 350 352 354 357 360 362 362 359 351
352 359 362 362 359 363 363 363 364 364 360 359 367 355 349 347 348 348 346 345 342 346 352 353 356 356 355 355 359 357 358 351 348 346 346 347 350 354 356 360 362 362 360
355 363 361 360 360 363 362 364 359 355 365 357 359 367 356 351 350 349 347 344 340 348 347 354 352 364 360 359 357 357 353 349 348 346 344 345 347 349 353 355 357 359 360
360 363 360 361 361 361 362 364 358 361 363 361 362 361 357 352 349 350 350 348 344 337 338 357 348 362 357 357 357 358 361 353 351 352 348 344 346 348 349 350 350 350 351
360 363 361 361 361 362 363 364 362 363 361 358 352 362 361 354 357 351 349 348 347 344 339 344 345 353 361 358 358 362 359 352 349 355 351 345 346 348 349 348 346 346 346
359 360 362 361 360 361 362 362 366 362 360 360 360 359 358 364 355 353 353 350 347 346 342 346 348 354 368 366 360 364 358 363 354 349 347 346 346 346 344 345 344 342 342
362 361 362 361 359 360 361 361 361 357 357 356 356 358 357 353 361 367 355 369 358 359 347 357 354 352 362 363 362 370 356 353 356 351 347 346 346 344 341 339 337 338 336
360 360 360 359 360 360 359 361 362 359 358 356 356 357 357 357 359 357 359 356 352 356 355 350 347 348 351 355 360 366 367 366 353 351 344 341 345 341 338 336 334 332 330
360 359 361 362 361 360 360 359 359 360 360 358 359 359 360 357 359 360 358 362 360 357 354 351 348 349 352 357 362 349 349 350 350 351 351 346 347 344 339 336 335 334 330
358 359 359 363 359 357 353 357 359 359 360 359 358 359 359 356 350 349 355 363 362 357 351 349 347 346 347 351 350 350 349 350 356 357 353 354 354 353 354 341 350 346 338
359 359 358 359 358 357 328 330 342 359 360 360 359 358 358 359 352 343 342 342 348 359 357 352 350 348 359 355 354 353 354 350 347 358 360 356 358 352 353 355 344 342 336
358 358 357 357 355 350 321 325 335 355 359 360 360 360 359 353 353 356 345 341 340 337 340 357 357 358 357 362 360 361 360 357 352 356 359 353 360 357 359 353 338 338 340
354 355 353 349 344 333 316 318 328 357 360 358 357 356 355 351 328 328 342 352 354 357 361 355 359 354 355 351 350 354 357 358 358 359 362 348 358 355 359 360 340 339 341
347 344 343 341 335 328 311 314 329 355 350 349 345 337 343 334 317 318 342 343 345 346 335 333 335 329 326 325 331 344 346 354 353 350 357 354 353 354 358 357 356 339 334
336 336 331 330 319 324 308 309 319 348 347 341 336 329 317 320 314 314 336 334 333 332 333 340 345 342 333 341 328 346 350 344 343 342 354 346 350 361 345 354 359 362 356

GFSMA_sfc_thetae_108.txt.gz
Theta_e
355 353 336 350 359 355 355 357 358 354 355 354 352 350 346 349 338 339 344 355 356 352 352 352 355 356 357 359 362 364 366 368 368 368 366 365 364 363 361 359 358 357 356
360 356 355 356 349 361 361 352 355 353 354 349 352 351 349 349 352 343 345 350 358 357 355 355 357 357 359 361 364 367 368 368 367 367 367 367 364 364 363 362 359 357 357
370 356 354 359 361 362 362 363 361 353 353 351 353 355 350 351 352 353 348 348 352 360 360 361 361 361 361 360 364 367 368 367 366 367 367 366 364 364 363 363 361 356 360
367 363 361 352 362 366 364 360 360 354 346 354 352 353 353 351 354 355 355 353 352 350 360 363 362 362 363 362 366 367 366 366 366 366 367 366 364 364 363 362 361 358 359
368 356 360 364 368 358 350 353 352 355 351 347 349 352 353 351 354 351 355 357 355 354 354 359 362 362 364 364 366 364 365 365 364 366 367 365 363 364 362 361 361 359 358
367 368 362 366 358 356 352 357 360 355 360 345 344 348 352 353 354 353 353 351 354 356 357 360 358 359 363 368 365 363 364 364 365 367 368 366 362 362 362 360 361 359 360
369 367 366 361 351 349 365 364 363 360 358 358 358 350 348 351 352 352 351 349 351 353 356 358 363 362 357 365 366 363 362 365 367 367 367 367 363 361 362 359 359 359 359
369 365 368 358 356 362 366 367 367 361 355 354 350 347 342 345 346 346 351 348 348 350 353 356 360 359 362 360 361 360 361 362 364 366 366 366 366 363 363 357 357 356 358
365 355 369 358 366 364 362 369 367 362 355 353 361 356 343 340 343 346 347 350 347 353 353 353 357 360 360 357 362 362 360 358 361 364 364 363 363 364 364 360 356 355 356
363 366 369 369 366 352 354 367 364 365 361 355 356 353 359 342 331 336 345 345 348 350 351 352 350 358 360 359 362 360 359 357 358 359 360 361 361 363 364 364 358 354 354
368 361 368 368 369 366 365 367 363 365 363 361 354 356 349 357 344 343 331 334 346 349 353 354 350 353 348 346 357 359 358 355 354 353 354 357 359 361 362 365 363 357 353
362 367 363 368 370 368 359 364 368 365 364 366 361 359 347 339 337 339 334 335 335 346 345 346 344 343 349 349 349 363 359 353 350 350 350 351 354 357 359 361 364 362 357
352 364 370 369 367 368 365 367 368 365 364 361 366 359 359 341 338 339 339 333 333 343 344 345 340 339 349 354 357 358 357 350 348 346 346 348 350 352 355 357 361 363 363
349 363 367 366 367 368 367 368 366 362 364 363 365 363 360 355 351 353 352 345 338 342 335 333 344 341 351 357 359 360 355 349 349 346 345 346 348 349 350 352 354 356 358
352 355 363 366 365 365 368 366 364 360 357 351 361 365 361 358 355 355 348 354 347 339 339 343 345 345 358 357 359 360 360 353 351 355 352 348 348 349 348 348 348 348 349
352 344 350 365 367 361 362 367 361 358 362 362 360 359 364 360 358 355 351 353 352 347 341 349 349 358 362 356 359 358 360 351 349 348 349 352 351 351 349 347 346 345 344
355 346 358 369 367 362 361 366 364 363 360 363 364 359 359 362 360 357 356 354 351 353 346 349 351 353 356 361 361 362 362 357 356 348 351 348 350 350 347 345 344 343 342
367 365 366 365 366 365 367 364 360 360 354 358 361 362 360 356 359 364 359 358 355 358 354 345 356 349 352 357 364 361 362 353 356 349 345 348 348 344 342 339 338 338 337
365 363 365 363 362 361 359 364 364 363 359 357 361 361 359 360 359 357 360 359 356 356 356 353 351 352 352 355 351 355 356 359 359 351 347 342 341 339 338 336 334 333 331
363 364 362 360 362 362 360 362 363 361 361 358 359 359 352 356 360 359 356 358 355 356 353 352 349 350 351 355 350 351 349 355 353 358 354 350 346 344 339 335 334 335 331
360 361 363 362 362 350 338 340 358 361 359 358 363 359 362 355 349 349 356 359 360 357 355 350 348 348 349 351 350 353 352 354 354 357 357 357 356 357 356 346 347 343 340
362 364 360 360 359 337 326 329 337 358 360 360 358 359 357 356 350 344 343 343 347 353 353 352 350 348 350 352 354 353 352 349 345 359 354 353 355 352 356 356 346 345 341
358 359 359 356 344 331 319 322 330 347 356 361 362 362 358 340 332 339 344 342 341 337 339 350 350 351 351 354 351 348 348 348 347 352 354 349 355 354 357 356 343 339 341
346 346 344 344 340 321 314 317 324 344 358 359 352 353 343 331 321 324 337 350 351 354 352 347 349 346 344 346 345 344 345 349 353 354 355 346 352 349 353 356 342 338 334
342 338 337 331 331 317 311 313 324 358 349 337 334 327 333 327 319 318 341 338 341 337 329 330 332 328 326 325 328 337 343 343 342 343 349 344 347 346 351 352 355 341 333
335 331 326 322 321 317 308 310 322 347 344 335 329 323 318 318 315 315 331 331 328 328 326 330 334 338 338 339 328 342 347 339 338 335 343 341 344 346 341 353 350 351 354

GFSMA_sfc_thetae_111.txt.gz
Theta_e
344 340 337 345 338 348 346 344 346 346 345 344 342 339 338 332 334 340 344 355 356 356 354 354 356 357 358 359 361 364 365 367 367 365 365 366 363 362 361 359 358 357 354
346 343 335 346 343 347 347 343 344 346 346 341 344 340 340 335 334 337 341 347 358 358 358 357 358 360 359 361 363 366 368 366 366 367 366 364 364 362 362 362 360 358 356
351 345 347 345 347 350 349 350 348 349 341 346 341 344 340 342 337 338 340 342 350 360 360 362 362 363 363 361 363 367 365 364 365 365 365 364 362 363 362 361 360 357 357
354 350 351 347 348 348 347 350 348 346 342 341 341 339 341 343 343 342 343 343 345 347 356 363 363 363 364 364 366 366 364 363 363 365 365 364 362 363 360 361 359 358 358
357 347 348 352 352 351 347 344 345 342 340 339 343 342 340 341 343 347 345 346 344 347 346 355 361 361 364 364 368 363 363 363 363 364 366 363 361 363 360 361 360 359 358
356 354 354 342 337 343 351 352 348 348 349 341 342 341 341 342 343 344 343 349 345 347 347 347 350 355 362 366 367 362 361 363 364 365 365 364 360 361 358 358 358 359 359
353 353 352 333 335 342 344 352 350 349 348 345 342 341 336 339 342 342 345 345 344 347 349 349 352 350 354 362 363 360 361 364 365 365 364 364 362 360 358 356 355 358 355
353 355 352 344 344 346 350 351 352 351 347 342 337 340 329 334 338 341 342 344 340 343 347 348 351 350 353 353 352 355 360 362 365 364 362 361 363 359 359 355 354 356 357
353 352 354 349 347 347 345 352 353 350 347 347 344 343 335 334 336 335 337 339 340 345 345 345 345 352 351 352 355 357 358 357 362 362 360 359 360 361 360 355 352 354 355
355 353 353 353 350 349 347 351 352 352 351 347 347 348 341 336 326 330 340 335 341 343 342 343 340 341 346 343 350 350 356 356 356 357 358 359 359 360 362 359 354 350 352
355 355 352 351 353 352 350 351 353 351 352 350 347 348 342 340 340 329 326 329 336 342 346 342 341 340 343 344 346 345 355 354 352 352 355 356 357 360 362 362 359 354 350
350 352 354 354 352 352 351 351 351 349 351 350 352 344 337 334 333 332 328 329 328 339 342 339 335 340 338 344 350 352 358 352 348 348 349 351 353 355 358 361 363 362 358
345 345 350 351 351 351 352 351 350 347 350 348 348 352 348 336 336 336 332 330 331 338 339 343 339 339 344 338 339 349 355 352 346 344 345 347 350 351 355 358 360 362 362
344 348 349 352 351 354 353 353 350 352 349 348 347 347 349 346 343 340 338 330 325 333 336 333 343 342 343 342 346 353 354 349 348 346 345 345 347 347 348 350 352 354 356
344 348 350 351 353 354 352 352 351 348 348 345 347 348 348 348 348 347 344 343 339 328 330 333 339 343 342 341 343 350 350 352 350 346 343 348 347 346 346 346 346 346 348
342 347 350 348 353 351 349 351 349 346 349 348 350 347 347 347 347 349 349 346 342 337 331 340 339 345 344 350 353 351 352 351 348 347 346 345 349 348 346 345 344 344 344
344 344 346 347 351 349 352 351 350 349 352 348 349 348 347 348 348 346 350 349 346 347 337 339 344 346 344 347 351 352 356 352 349 346 345 342 343 343 343 343 341 341 342
346 347 345 351 351 351 352 347 349 352 349 348 348 347 346 351 346 348 347 347 345 347 342 336 341 344 343 348 347 348 352 356 350 348 342 340 344 340 338 338 338 337 336
350 352 353 350 351 352 351 352 352 351 350 350 349 348 347 347 345 343 346 346 344 347 344 342 341 345 346 344 338 343 348 350 355 353 347 346 341 337 335 333 333 333 330
350 349 351 351 350 349 344 349 352 350 350 351 354 350 346 347 347 345 347 346 347 346 345 344 341 341 344 348 346 344 347 351 350 354 352 348 347 346 342 338 335 334 330
351 350 350 349 341 339 334 334 340 348 348 348 350 349 351 350 347 344 345 344 345 344 344 342 341 341 340 343 343 346 344 346 346 349 350 351 351 351 352 349 346 339 338
345 347 347 345 332 328 326 330 334 339 348 348 347 347 341 333 338 338 338 340 340 341 339 341 341 340 341 343 344 341 342 339 337 348 348 348 348 350 350 354 346 341 341
346 344 343 331 320 316 317 319 328 336 345 347 345 344 333 324 323 328 335 340 341 337 338 340 338 340 340 338 334 331 333 335 336 344 344 342 347 346 349 352 345 339 338
344 340 337 334 321 313 315 316 322 335 335 330 333 328 322 319 318 323 333 333 335 326 322 329 331 331 332 329 332 333 333 339 342 344 341 336 343 342 346 348 343 338 334
335 332 331 326 316 309 312 315 327 337 331 323 321 324 319 316 317 322 326 322 319 319 321 324 325 325 325 323 326 331 336 333 330 332 335 333 339 336 343 344 343 336 333
328 325 322 320 315 307 310 312 324 337 326 318 316 314 317 314 314 314 322 314 310 313 315 321 325 327 331 328 330 337 334 328 326 322 330 330 335 335 329 337 337 334 327

GFSMA_sfc_thetae_114.txt.gz
Theta_e
333 337 340 340 342 337 342 338 342 344 346 348 348 343 342 333 336 341 344 355 357 355 354 354 355 357 359 360 361 363 365 366 365 364 363 362 361 360 361 359 358 356 354
340 341 337 337 337 342 346 345 343 344 343 339 340 336 332 331 334 335 338 344 357 358 357 357 358 360 360 362 364 366 367 365 365 365 364 362 361 362 359 360 358 357 354
346 343 338 337 344 345 348 347 348 345 345 342 339 339 334 331 333 334 335 338 344 358 360 361 362 363 364 362 366 368 365 364 364 365 363 362 361 361 360 359 358 356 355
349 345 345 343 346 349 348 345 342 342 340 340 338 339 338 337 333 336 338 339 341 344 349 360 363 364 365 365 369 369 365 363 362 364 364 362 361 360 359 358 358 357 356
351 347 348 343 345 344 347 344 343 340 337 339 341 340 341 340 339 342 340 340 340 343 343 350 357 361 363 364 369 369 364 362 362 363 364 362 361 359 358 358 358 358 356
354 352 351 342 338 343 345 349 345 348 343 339 343 341 340 340 340 340 341 344 344 344 346 347 347 350 359 365 365 365 364 364 363 363 364 362 360 360 356 355 357 358 356
351 349 348 331 342 347 347 347 349 350 343 340 336 340 334 338 339 340 343 342 345 346 344 346 350 353 354 360 357 361 364 364 366 362 361 362 360 359 356 353 355 357 358
351 353 348 344 345 347 346 349 349 347 347 343 338 336 328 332 338 339 343 343 342 344 344 341 342 350 348 352 354 357 358 359 362 363 360 359 361 358 355 353 353 355 356
351 351 350 348 346 343 342 348 349 348 344 346 341 339 331 328 330 333 336 341 342 342 343 344 342 342 344 341 347 349 353 351 358 362 360 359 359 360 358 353 352 353 354
350 351 351 351 347 347 345 348 352 349 347 343 344 343 338 335 325 326 333 334 342 342 342 342 341 342 342 340 343 348 350 351 357 358 357 359 358 359 361 356 351 351 352
351 351 349 351 350 348 346 347 347 349 348 346 343 339 337 336 332 326 322 327 335 341 342 344 341 339 340 339 338 344 351 353 354 353 353 356 357 359 361 362 357 351 350
345 348 351 350 349 348 347 348 348 348 348 347 346 341 337 334 332 327 324 325 326 335 340 341 337 338 338 337 342 347 350 351 351 352 349 350 353 354 357 362 362 359 355
343 344 346 348 349 349 349 349 347 344 347 345 346 344 336 337 337 333 327 327 329 335 338 342 342 341 340 338 340 345 349 349 349 347 345 346 349 350 352 357 361 363 363
342 345 348 349 349 351 348 350 346 349 345 344 343 345 342 336 336 336 333 331 327 327 335 335 338 340 340 342 344 349 347 345 346 344 342 343 344 346 347 349 352 354 355
341 344 348 348 349 350 350 349 347 347 347 342 346 345 344 343 338 341 340 335 331 325 328 334 332 344 343 342 345 344 344 346 346 344 340 339 343 344 345 345 346 346 347
339 341 346 347 347 351 349 348 347 344 346 345 348 341 343 343 344 345 348 344 338 333 331 335 337 339 344 346 348 350 348 348 347 342 340 338 340 342 344 344 342 343 343
336 340 344 344 346 348 349 349 347 346 348 346 346 345 343 346 345 346 346 345 342 341 333 336 341 344 342 343 343 350 352 352 348 343 339 339 338 339 339 339 340 339 340
340 342 343 343 345 348 349 347 346 352 347 345 344 345 344 349 343 345 344 343 342 343 338 334 338 342 341 343 341 346 351 355 351 347 340 340 339 337 336 335 332 333 334
339 343 344 342 346 349 346 346 346 345 348 348 347 346 344 343 342 341 343 342 342 344 342 339 339 342 343 344 343 346 348 348 353 348 344 342 340 338 336 333 329 328 327
339 345 347 347 346 342 340 341 346 347 347 347 348 348 346 345 344 342 344 343 344 343 342 339 339 339 341 345 344 342 339 344 344 351 349 345 343 343 339 336 335 332 328
347 347 346 340 337 336 335 335 339 341 345 344 346 348 344 343 340 339 342 341 341 339 339 339 337 338 338 340 339 341 337 340 340 346 345 347 347 348 348 343 343 338 332
342 342 342 336 329 328 321 329 332 337 342 343 342 336 333 336 337 334 334 337 340 339 336 338 338 336 337 338 337 331 333 333 332 343 340 342 346 344 347 347 334 333 329
344 340 333 326 324 319 318 320 326 332 341 342 341 335 325 323 326 332 336 331 329 330 333 337 334 332 332 329 329 327 328 332 333 335 336 336 340 337 345 343 330 327 325
343 340 332 326 320 320 317 318 325 333 331 331 327 322 318 320 322 330 329 327 321 317 318 322 323 325 327 329 329 329 330 333 336 337 330 328 336 331 341 336 327 322 321
336 334 330 323 319 314 314 318 332 329 324 321 320 317 315 315 318 322 315 312 311 316 320 322 323 323 322 323 327 328 327 322 322 326 317 325 328 330 335 330 329 320 318
327 324 320 314 312 311 312 314 331 328 320 316 312 313 316 313 313 314 312 310 312 312 316 316 316 318 320 319 321 321 320 315 316 312 315 317 310 316 319 326 323 315 317

GFSMA_sfc_thetae_117.txt.gz
Theta_e
331 334 337 337 339 335 341 342 342 343 343 343 346 346 344 334 336 339 341 355 357 355 354 354 355 357 359 361 363 364 366 366 365 364 364 362 361 360 359 360 358 356 353
335 339 336 333 336 340 344 343 344 342 342 340 339 335 337 333 333 335 338 340 357 357 355 355 357 359 360 362 364 367 368 365 366 365 365 363 361 360 360 359 357 355 351
342 341 338 337 341 345 346 345 345 345 342 341 337 336 330 330 331 331 333 336 339 354 358 360 362 364 364 363 367 368 367 365 365 365 364 362 361 360 359 358 357 356 353
346 342 341 343 345 346 346 343 341 340 339 338 336 338 334 332 331 331 332 334 336 341 345 352 356 358 362 365 370 369 366 363 363 364 364 361 360 359 357 357 355 356 353
349 344 345 342 341 342 346 347 343 338 336 337 338 339 338 339 335 339 337 339 338 342 345 350 355 355 358 361 367 366 365 365 364 364 364 362 359 359 357 356 355 356 354
351 349 346 337 338 343 347 347 345 346 338 336 340 340 339 338 338 339 340 344 344 346 347 351 352 353 357 362 360 362 366 364 365 363 362 361 359 359 355 354 355 355 354
350 349 339 334 344 345 347 349 348 346 342 339 335 336 333 336 336 340 341 341 342 343 342 343 351 349 350 357 357 359 359 358 361 364 361 359 360 359 354 351 355 354 353
351 350 346 342 343 342 346 347 347 344 344 343 339 331 325 331 333 337 341 341 340 342 342 341 342 346 341 342 346 354 356 354 357 361 361 359 358 358 355 352 353 355 354
350 351 348 345 344 341 344 346 347 345 340 339 338 337 329 325 328 333 334 339 341 341 342 343 342 341 339 338 341 344 352 351 356 360 360 359 357 358 358 352 352 354 355
348 350 349 348 345 345 344 348 349 346 344 339 340 342 335 331 324 325 332 332 338 340 340 341 342 341 338 338 340 345 349 352 354 356 356 357 358 357 360 357 351 351 352
348 351 348 348 346 345 346 346 346 345 346 341 337 335 333 332 328 324 320 326 332 337 340 341 341 340 338 337 336 342 349 349 349 354 357 353 355 358 359 362 357 352 352
344 347 350 348 347 345 346 346 345 346 345 346 342 338 335 331 328 323 321 322 324 332 339 340 340 338 337 337 343 347 349 347 349 349 350 353 351 354 355 359 362 360 354
342 343 346 347 347 346 347 347 345 343 345 344 344 339 335 334 334 329 324 326 328 332 337 340 339 338 341 340 340 348 350 347 345 343 345 346 348 350 353 354 358 361 362
342 343 345 347 348 348 345 347 345 347 344 343 342 343 336 335 334 332 329 329 326 326 330 334 338 340 343 342 346 349 345 343 343 342 341 341 344 346 348 349 351 353 355
341 342 347 347 348 347 348 347 345 345 344 341 343 343 341 338 335 337 338 333 331 324 325 333 332 339 343 345 347 347 345 345 343 341 339 338 341 343 345 345 346 346 347
337 342 345 346 346 346 349 347 346 344 344 342 345 341 342 342 341 342 341 340 337 331 326 333 337 338 341 345 348 348 350 348 344 340 341 339 339 340 342 343 343 343 343
336 337 338 344 343 346 347 345 346 345 343 344 344 342 341 343 343 343 343 342 340 337 330 334 338 342 341 341 343 348 353 350 349 341 341 340 338 337 338 338 337 339 340
334 335 339 342 342 345 343 344 345 347 345 343 343 343 342 346 341 341 342 340 340 340 336 332 336 340 340 343 343 345 348 350 348 344 340 338 337 336 334 332 330 332 333
336 338 342 341 340 344 346 346 345 345 346 345 345 344 343 343 340 340 340 341 340 343 340 337 336 339 340 344 343 344 341 343 349 347 342 341 338 337 334 332 327 325 324
338 337 341 343 344 345 342 343 345 347 347 346 346 346 346 343 341 341 341 341 342 340 339 336 336 337 338 342 341 337 334 339 341 344 346 342 340 340 334 329 330 326 324
339 340 343 341 338 338 337 335 339 343 345 344 345 345 342 342 339 339 343 341 339 337 336 335 335 335 336 336 333 334 333 335 338 336 339 341 343 339 329 330 328 325 321
344 342 341 336 331 329 323 330 331 337 340 343 341 336 336 339 337 335 335 337 340 338 335 337 336 333 332 331 330 327 329 331 329 333 332 336 337 339 324 324 325 321 319
342 338 333 329 325 322 319 321 327 331 337 339 340 333 325 324 329 335 329 325 325 326 334 337 331 329 328 328 327 325 327 330 328 323 329 332 334 336 326 321 323 319 316
342 338 332 327 322 322 317 319 324 330 332 329 330 326 322 324 325 332 325 317 316 317 318 320 321 323 324 326 328 328 330 329 334 321 316 325 329 327 331 318 321 317 315
341 336 331 324 323 320 316 317 330 329 324 322 322 324 325 323 320 322 320 311 316 317 321 320 321 319 318 319 324 325 320 317 318 318 309 316 309 314 330 313 314 319 312
330 326 321 319 317 318 316 317 327 325 320 317 318 318 318 317 317 315 311 313 315 313 313 313 312 312 312 314 317 314 316 314 312 305 307 307 305 309 308 316 309 309 306

GFSMA_sfc_thetae_120.txt.gz
Theta_e
335 338 340 341 342 341 345 346 347 347 347 347 345 349 348 340 340 341 343 349 356 355 354 355 357 359 360 362 365 365 367 367 366 364 364 362 360 361 360 359 357 354 351
335 342 341 340 342 346 348 347 348 348 346 346 345 341 343 342 340 340 341 343 352 358 354 354 357 359 361 363 366 368 368 365 365 364 362 361 361 360 358 358 357 355 351
344 345 344 345 347 350 351 351 349 348 347 345 344 342 339 339 336 336 338 338 341 345 352 355 358 362 362 362 368 370 367 364 364 364 363 361 361 359 357 357 357 354 352
348 347 347 349 351 351 352 351 347 345 344 346 344 345 340 337 337 338 339 339 341 343 346 351 356 358 359 362 368 367 367 365 364 363 363 361 359 358 355 357 356 354 351
351 350 350 347 346 350 352 352 349 344 343 344 344 345 344 345 344 343 346 345 345 348 350 351 356 358 358 359 362 364 365 364 364 363 362 362 359 358 356 357 356 355 353
352 352 347 344 348 352 353 353 351 347 345 345 342 341 342 342 344 345 345 348 349 350 352 355 358 357 360 362 359 362 362 362 362 363 361 360 359 358 354 354 355 354 352
353 348 337 345 351 352 352 354 352 350 348 346 345 339 340 341 343 345 346 345 346 347 347 351 355 351 352 354 355 358 356 358 363 363 360 358 359 357 354 351 355 355 354
353 351 346 348 350 350 352 352 351 348 345 343 346 336 335 339 340 341 344 345 345 344 346 346 346 346 346 346 347 350 353 356 359 361 361 358 357 358 355 351 352 354 353
353 354 350 348 349 349 351 353 352 350 344 343 343 345 336 333 335 341 339 341 344 345 347 347 347 347 347 345 344 347 352 353 353 356 360 358 357 357 358 354 350 353 352
353 353 353 351 352 351 353 355 353 352 349 343 344 342 341 340 336 336 339 341 342 341 346 347 347 346 345 344 343 343 349 349 349 353 357 359 356 357 359 358 353 351 352
353 354 353 352 352 352 353 353 353 353 351 347 345 342 339 337 335 334 330 332 338 342 344 345 346 346 345 345 343 346 350 349 350 352 352 355 355 356 358 359 358 353 351
349 352 353 352 353 351 353 352 352 352 352 351 348 345 343 341 338 332 330 331 331 339 344 347 347 347 345 346 348 350 351 350 348 348 348 350 352 352 353 353 359 361 357
346 348 352 352 351 352 352 353 352 350 351 351 350 344 343 342 341 335 333 334 337 340 344 349 347 347 350 351 352 352 351 346 346 343 342 345 348 350 352 354 355 359 361
346 348 349 351 352 353 351 353 351 351 351 350 349 350 345 343 342 339 339 340 339 336 338 344 348 348 352 355 356 353 354 344 343 341 340 340 343 346 349 351 350 352 354
344 347 348 351 351 352 353 352 350 350 351 349 348 350 349 343 342 345 344 342 342 336 334 343 344 350 350 352 354 357 358 345 343 342 339 339 340 342 344 345 346 346 348
344 345 347 350 350 351 353 352 352 352 350 348 350 349 350 349 349 348 347 346 344 340 336 341 347 349 350 351 353 358 356 349 344 341 339 337 338 339 339 339 339 342 343
341 342 345 347 347 349 352 352 351 351 349 350 350 350 348 349 348 349 350 349 347 343 340 342 346 351 352 352 354 354 352 356 355 340 339 338 335 334 334 333 335 338 340
342 341 341 343 346 347 351 349 350 353 349 348 348 349 349 347 349 350 348 349 347 348 343 342 346 349 350 353 353 351 350 352 355 343 338 333 331 329 329 329 328 328 328
341 339 340 343 346 346 349 348 349 350 350 351 349 349 349 349 350 348 347 348 347 350 348 346 345 347 350 352 351 348 347 350 347 344 339 333 329 326 324 324 324 323 321
343 340 342 346 345 346 349 349 349 350 350 351 351 351 351 350 349 350 348 350 348 347 347 344 344 345 347 350 347 343 343 346 338 345 343 335 330 327 324 321 322 321 318
343 343 342 346 346 344 341 341 344 347 346 347 349 350 348 348 341 344 350 349 348 345 344 344 343 344 345 341 340 341 342 344 341 337 342 335 327 325 322 321 322 321 319
344 343 346 345 340 334 326 331 335 342 345 346 347 346 343 341 339 335 336 337 346 346 345 344 344 342 340 339 338 336 339 341 333 330 339 335 326 323 319 318 319 319 317
343 344 341 336 331 330 321 324 327 336 340 344 346 342 335 331 334 335 328 326 326 327 336 346 343 340 338 338 336 336 338 338 325 321 337 327 329 318 315 314 317 316 315
339 339 336 333 329 327 319 319 324 332 337 337 340 335 331 332 333 334 327 324 325 327 329 327 333 332 332 333 336 337 339 338 331 320 323 327 325 317 318 315 315 314 312
341 338 335 330 328 325 319 320 329 332 326 327 328 329 331 330 321 324 330 324 324 322 318 318 318 317 317 319 327 334 327 329 327 318 314 319 316 322 313 311 312 312 311
336 332 327 326 324 324 316 317 327 329 324 321 321 320 319 321 316 316 321 322 322 320 320 318 317 317 318 317 316 322 325 323 320 313 311 314 313 317 320 311 310 310 308

GFSMA_sfc_thetae_123.txt.gz
Theta_e
350 350 351 352 354 356 358 359 360 359 358 355 351 355 354 350 348 345 345 346 353 355 354 355 357 359 361 362 365 367 370 368 367 365 362 362 360 360 359 357 357 355 351
348 351 354 355 357 360 361 361 360 359 356 353 351 350 352 351 349 344 344 347 345 353 355 355 358 360 361 363 366 370 369 366 366 365 363 362 360 359 357 357 356 353 352
358 358 357 357 360 363 364 364 360 360 353 350 352 348 349 346 344 344 345 347 348 347 350 354 358 360 360 362 366 369 367 366 365 364 363 361 360 358 355 357 354 352 351
359 360 358 359 361 365 365 362 357 352 350 351 352 351 349 349 349 349 350 349 351 350 355 354 357 361 360 363 364 364 365 365 364 363 363 361 359 356 355 357 354 351 350
360 361 360 357 361 364 364 362 357 355 350 350 349 352 354 353 353 351 354 355 355 355 357 361 359 358 361 360 361 363 363 364 363 363 361 361 359 355 354 358 355 352 350
361 363 359 357 363 363 361 359 359 357 355 355 349 350 355 355 356 356 355 354 357 356 357 360 362 359 360 360 359 359 360 362 363 363 360 360 359 355 353 357 356 353 352
363 362 356 360 364 362 363 364 361 359 354 356 350 349 350 354 355 356 357 355 355 354 354 356 359 356 354 353 350 351 355 359 362 364 360 358 359 356 353 355 356 355 352
362 362 358 361 362 362 363 364 363 358 354 357 354 349 343 345 351 352 356 354 355 354 354 353 354 354 353 350 351 350 353 355 356 360 361 359 357 356 353 352 355 356 354
361 362 360 361 361 363 360 363 362 360 351 352 355 353 343 339 347 350 350 350 353 353 354 353 353 354 353 351 351 354 351 351 353 357 359 360 357 357 356 352 353 355 354
361 361 361 361 364 362 364 364 362 361 360 352 353 350 352 350 343 341 349 349 350 347 349 349 351 353 354 352 349 348 346 351 352 355 356 357 356 357 358 355 352 352 352
361 361 363 362 362 361 365 364 364 363 359 356 354 351 350 347 348 342 336 339 348 348 352 353 354 355 356 356 358 358 352 352 352 352 351 353 356 355 356 360 357 352 350
358 362 361 363 365 361 362 362 364 362 363 361 357 355 351 347 346 342 340 344 343 349 354 356 357 358 359 360 356 352 354 350 348 347 348 349 354 355 354 358 361 359 356
354 360 363 362 365 363 362 364 363 362 361 359 361 354 353 353 351 347 345 346 345 350 352 357 357 358 361 363 362 356 350 348 345 343 344 346 349 350 352 354 357 360 362
354 360 359 362 361 363 362 363 360 359 360 358 359 361 356 353 353 352 349 346 342 346 349 351 358 358 361 361 360 357 358 344 344 341 340 342 344 347 349 351 351 354 356
355 356 358 358 360 361 362 362 357 359 361 360 358 359 357 355 353 354 354 352 346 337 339 349 351 359 359 362 358 363 360 343 343 340 338 337 338 340 340 341 343 346 348
356 356 356 357 359 361 361 362 362 361 361 358 356 360 361 357 356 355 354 355 352 350 340 350 354 358 360 358 357 359 357 352 340 337 334 332 334 335 336 337 338 341 345
354 354 355 356 357 358 360 361 362 361 360 360 359 360 359 360 355 356 357 358 354 354 345 350 354 361 362 360 359 358 360 361 343 334 331 329 329 330 331 332 333 335 336
356 355 353 353 354 356 359 359 358 358 358 357 357 358 358 355 359 361 357 360 357 357 350 350 355 357 360 361 357 358 355 356 342 331 328 327 325 324 324 324 323 325 325
355 353 350 351 351 352 355 359 360 359 357 358 359 357 357 358 360 357 359 359 353 357 355 354 350 355 358 359 354 356 353 353 350 334 328 325 324 324 323 322 321 319 317
354 352 351 350 351 354 354 356 358 358 358 358 359 359 358 358 358 360 357 360 358 359 357 352 349 349 353 359 353 351 347 348 349 338 330 327 326 326 323 322 322 321 318
354 355 352 351 353 356 353 355 356 357 358 357 357 358 358 353 345 349 361 360 360 359 357 356 346 349 350 348 348 351 350 343 344 348 335 333 328 326 325 322 324 320 319
357 356 354 353 352 351 329 333 342 351 353 354 351 354 357 345 345 337 338 339 347 358 355 355 353 350 352 346 346 347 349 349 336 344 335 328 325 321 320 318 316 317 316
358 356 354 354 352 348 323 325 328 345 350 352 354 356 354 349 340 351 332 330 329 328 334 355 354 354 347 347 348 346 350 345 335 337 342 326 326 317 317 314 314 313 313
348 355 352 349 343 340 321 321 325 342 345 349 349 352 353 347 345 345 340 338 336 336 338 338 344 345 344 347 348 350 351 339 334 330 341 331 326 321 317 312 311 309 309
344 341 343 347 341 334 321 321 327 340 338 338 338 338 341 343 324 327 340 334 330 325 318 318 318 318 316 319 329 344 340 341 337 328 327 329 326 319 318 316 313 309 309
342 340 337 338 327 329 319 317 325 334 330 327 325 326 318 322 314 317 338 330 326 324 326 325 327 325 325 321 320 332 336 331 333 323 321 323 323 328 320 317 315 315 312

GFSMA_sfc_thetae_126.txt.gz
Theta_e
353 354 356 358 361 361 357 358 359 357 357 351 351 350 347 348 348 348 350 347 349 354 355 355 357 359 362 364 367 369 368 366 365 364 363 362 361 358 356 357 356 353 350
356 358 358 356 359 363 361 361 362 357 353 349 350 350 349 350 350 352 350 351 347 350 354 357 358 360 361 362 366 370 366 365 364 362 363 361 361 357 357 357 354 353 351
361 366 358 360 361 365 368 363 359 358 350 347 351 352 352 351 350 352 355 356 354 352 352 354 358 358 360 362 365 366 367 365 363 362 362 361 360 355 357 355 353 352 352
364 363 358 360 364 367 366 360 353 351 350 347 350 350 351 353 355 357 359 358 358 355 357 357 356 358 361 363 362 364 364 365 364 363 361 360 359 354 356 355 353 351 351
362 363 361 360 369 366 361 356 354 351 350 349 346 350 353 355 355 354 358 359 360 359 359 360 361 358 363 362 362 363 362 363 363 362 359 360 359 354 355 355 353 351 351
364 364 359 365 365 363 358 359 360 360 357 354 347 348 355 355 356 356 354 354 361 360 360 362 363 361 357 354 352 353 357 360 363 362 359 358 357 354 354 355 353 352 351
365 366 361 362 365 360 366 366 360 359 355 362 351 350 353 354 352 353 355 355 358 357 358 360 360 358 355 352 349 350 356 359 359 361 359 357 357 355 351 356 356 353 351
364 364 365 363 363 360 366 368 366 356 358 363 353 348 341 345 348 351 355 356 358 357 359 358 357 360 358 354 352 349 351 352 356 358 361 355 354 357 351 355 357 355 353
360 366 365 364 365 363 358 365 365 362 352 359 361 353 342 339 345 351 353 354 357 355 355 356 354 355 358 356 355 357 351 351 354 356 360 360 354 356 355 352 356 356 355
361 363 363 366 367 361 364 364 364 364 364 354 357 357 358 354 341 338 349 353 353 350 351 353 354 354 357 356 352 353 351 353 355 356 358 358 356 354 358 354 354 356 356
363 362 363 364 364 359 366 364 362 368 362 356 353 355 356 352 353 343 336 342 350 351 356 358 357 358 363 362 362 355 355 354 353 352 354 354 358 356 357 359 354 352 353
356 362 362 365 366 363 363 362 365 363 362 362 358 356 351 346 347 344 341 346 343 349 357 358 360 358 358 362 360 357 353 351 348 347 349 352 354 356 356 359 360 357 354
353 359 362 362 358 360 360 363 366 363 362 359 363 355 355 354 353 350 345 343 341 347 351 356 358 358 360 360 362 360 351 348 345 343 344 347 349 351 352 354 356 361 361
355 360 361 361 362 362 362 363 360 359 360 358 361 362 354 352 354 352 348 344 337 341 345 350 354 356 358 360 359 361 357 343 342 339 338 340 341 343 345 347 350 353 359
358 362 363 362 362 362 363 363 359 359 361 361 358 360 358 352 353 351 351 349 343 334 337 351 346 360 361 362 356 363 362 338 337 335 334 335 337 338 340 341 341 348 351
362 362 361 361 362 363 363 365 360 361 361 358 355 357 360 353 355 354 352 351 350 344 337 345 348 356 361 356 358 362 360 344 334 332 331 330 332 333 335 336 341 345 346
362 361 361 360 361 362 362 365 363 360 359 360 361 359 360 362 354 351 353 352 349 349 342 343 354 359 359 359 359 362 361 355 342 329 328 327 327 327 328 329 330 333 334
363 362 360 360 360 360 362 362 360 358 358 357 358 359 358 355 360 360 353 356 354 356 349 350 355 353 356 360 362 362 357 349 340 326 326 326 326 325 324 323 323 323 326
361 360 360 359 358 358 358 361 362 359 359 358 359 358 358 358 358 355 356 356 354 358 357 352 349 353 355 356 358 360 359 354 342 328 326 326 325 325 323 322 321 319 318
360 360 360 359 357 356 356 357 359 360 359 358 360 359 358 358 359 358 357 362 358 359 359 351 352 348 349 359 354 353 351 356 341 339 328 329 330 326 325 321 321 319 316
359 360 360 360 358 357 356 358 359 360 359 358 358 359 357 355 346 347 359 359 364 359 354 349 345 346 349 349 348 351 354 348 355 349 342 336 334 330 327 324 324 318 317
361 362 360 359 358 353 335 337 346 357 358 359 359 359 359 349 348 340 340 340 347 360 358 350 344 348 355 354 349 347 352 345 338 349 340 330 331 323 321 320 315 315 314
360 359 360 358 357 358 329 329 332 351 354 357 357 359 357 352 349 358 338 335 332 331 336 355 354 353 355 353 351 351 354 352 349 345 343 333 329 322 320 314 312 311 311
348 346 355 356 358 357 324 324 327 347 348 352 356 356 358 358 354 353 352 351 350 345 344 346 349 353 352 354 353 353 356 351 342 342 348 335 332 322 317 311 309 309 309
344 344 345 350 349 349 322 322 330 347 343 344 343 339 350 351 326 328 349 346 345 337 319 319 318 317 318 321 330 346 354 347 345 337 339 334 331 326 325 320 313 309 308
346 345 344 343 329 335 319 317 327 334 339 333 336 327 317 322 315 320 347 344 340 339 332 333 327 328 329 325 325 339 342 336 334 332 329 329 329 327 323 325 322 317 314